GFSMW_500_spd_000.txt.gz
Wind_Speed
17 17 18 19 22 26 30 33 33 33 31 28 27 25 26 25 27 29 31 32 33 35 36 36 37 39 40 42 42 44 46 47 51 54 55 58 57 57 58 59 59 59 60
17 18 21 24 27 31 34 34 32 28 26 24 25 26 27 29 30 32 34 35 37 39 41 43 44 46 47 49 50 51 52 53 55 57 61 63 61 59 62 63 63 62 62
18 20 24 29 33 35 36 34 29 27 26 27 26 27 28 31 34 37 40 42 44 46 49 50 52 54 55 55 56 57 58 60 59 61 65 67 67 66 61 63 64 64 63
21 25 29 32 34 34 31 28 28 29 29 30 31 34 36 38 39 41 44 46 48 49 51 52 54 56 58 59 60 62 62 63 64 66 66 68 70 73 75 65 64 66 64
25 28 30 30 28 26 26 26 28 30 32 34 36 38 39 40 41 43 45 47 50 52 54 56 58 61 63 65 67 68 70 71 72 72 73 74 73 72 73 76 65 61 59
29 27 24 23 24 25 27 29 29 30 32 34 36 38 40 42 45 47 50 53 55 57 60 61 62 64 66 67 69 70 70 70 72 72 72 69 68 65 66 67 66 64 58
25 24 24 24 24 26 27 27 29 32 33 36 39 41 44 47 49 51 53 54 55 56 57 59 61 63 64 65 66 67 67 68 69 71 72 68 62 59 60 64 65 68 68
24 22 22 23 23 25 29 31 33 36 38 40 43 45 48 49 50 52 55 57 59 61 63 65 67 69 70 72 73 73 74 75 75 75 75 75 76 75 70 68 69 68 65
22 22 23 25 27 30 33 34 36 39 41 43 44 45 48 52 55 58 61 62 63 65 67 69 71 72 74 75 76 77 78 79 79 80 81 81 80 78 76 75 73 73 73
24 26 27 29 32 34 36 37 39 40 41 45 49 51 55 58 59 60 61 65 69 73 75 77 79 81 82 83 84 83 83 84 85 86 86 84 81 79 76 75 72 70 72
26 28 30 33 35 38 39 39 40 44 50 53 56 59 61 63 65 66 69 73 76 78 81 83 85 87 88 88 89 88 88 88 86 84 84 83 81 80 78 77 76 76 73
27 30 33 34 34 37 40 44 49 52 55 59 62 64 66 68 70 74 78 81 83 86 90 92 94 93 92 90 88 88 87 87 86 84 84 81 79 78 78 78 77 76 73
32 33 34 35 39 43 47 51 54 58 61 64 66 68 70 73 77 81 84 87 91 94 96 97 96 96 94 93 89 88 86 86 84 81 79 78 79 75 75 75 75 74 74
32 33 36 40 45 50 53 57 61 64 66 68 70 74 78 81 84 87 91 95 98 99 98 95 93 92 90 90 88 88 87 84 80 80 79 77 76 76 74 73 73 74 72
35 39 43 47 51 56 59 62 65 68 70 74 78 80 82 85 90 94 98 100 101 99 98 96 93 89 84 79 76 75 75 73 71 71 72 71 73 73 73 75 73 73 70
38 43 48 52 57 61 64 67 70 73 77 80 81 84 88 92 96 99 98 97 95 94 92 88 81 76 74 72 71 72 70 69 71 71 70 70 71 71 72 73 71 69 67
46 51 55 60 64 66 69 71 74 76 78 82 87 90 94 96 96 93 90 89 85 80 74 72 72 70 69 69 69 70 72 73 74 75 74 73 74 74 75 72 71 69 69
54 58 60 62 64 66 70 72 74 77 82 87 91 94 96 92 87 84 80 74 71 68 66 64 64 65 67 71 74 78 80 81 82 83 83 82 80 80 82 79 75 73 72
57 59 60 62 66 69 71 73 77 82 87 91 95 94 87 82 77 72 69 67 65 64 65 66 68 71 73 77 81 84 85 86 87 87 85 82 79 77 78 78 76 73 70
58 60 63 66 68 70 73 78 84 87 92 94 88 81 76 73 70 68 66 65 66 68 70 72 77 81 82 85 88 90 92 90 88 84 78 73 70 68 66 67 65 64 63
62 65 68 69 70 74 81 85 88 92 90 81 75 72 71 69 69 67 69 69 71 74 77 80 83 87 89 91 92 91 91 89 84 78 70 65 61 59 57 56 54 52 50
65 68 69 71 76 82 85 89 93 90 79 74 71 69 68 69 70 70 72 75 78 81 84 87 91 92 92 93 92 91 86 81 75 68 61 55 50 46 45 44 41 40 40
70 71 71 75 82 86 90 91 86 78 71 68 68 68 68 70 73 75 77 80 85 90 93 95 96 95 92 88 84 78 73 65 58 52 50 46 41 38 36 33 32 32 34
72 73 75 82 87 91 90 85 78 70 67 68 69 69 70 72 75 79 85 89 93 96 98 98 95 90 82 73 67 62 54 46 42 40 41 44 37 31 27 25 27 28 29
72 76 82 86 90 88 81 74 70 68 67 68 69 70 73 78 83 86 90 93 93 94 91 85 80 73 63 54 50 46 40 34 32 31 32 33 32 27 22 22 23 23 20
75 81 85 88 86 79 70 68 67 67 68 70 73 78 83 86 89 91 90 85 78 71 69 63 59 53 48 44 43 40 33 30 29 30 28 27 27 24 19 18 15 14 16

GFSMW_500_spd_003.txt.gz
Wind_Speed
24 20 20 19 19 20 22 25 30 33 36 37 37 34 31 30 30 29 29 30 31 33 34 36 38 40 42 44 46 48 50 51 53 55 55 56 56 58 58 61 63 63 62
19 18 19 21 22 24 27 30 33 34 35 34 32 30 29 28 29 31 33 34 35 38 39 41 43 45 47 49 51 54 55 56 58 60 63 62 60 59 62 64 65 65 65
20 21 21 23 26 29 32 33 33 33 29 27 26 26 28 29 31 33 34 36 39 40 43 45 47 49 52 54 57 59 61 63 65 67 69 71 72 72 68 67 67 66 68
18 21 24 27 31 33 33 33 30 27 25 25 27 29 30 31 33 35 38 40 43 46 49 52 54 56 58 59 60 61 62 63 64 66 67 70 73 76 76 72 69 65 64
20 24 29 31 33 34 31 26 25 26 27 28 30 31 33 35 37 40 43 46 48 50 52 53 53 54 56 58 60 62 64 67 68 70 70 72 72 73 76 77 76 72 64
23 28 32 33 33 29 27 26 27 29 30 32 33 35 38 40 42 45 47 49 49 50 53 55 57 58 59 61 63 65 68 69 70 71 72 74 76 77 79 80 79 78 73
28 31 33 31 27 27 28 30 31 32 34 36 39 41 42 44 46 46 47 50 54 56 57 59 60 62 65 69 72 74 76 77 78 79 80 81 82 81 81 82 83 84 80
31 32 31 26 28 30 32 32 34 36 38 40 42 44 42 45 48 51 54 57 59 61 62 64 68 71 74 77 79 81 83 85 87 88 90 90 89 87 86 86 86 86 83
30 29 27 29 31 33 34 35 37 39 41 43 42 44 49 53 56 59 62 65 67 68 70 73 75 79 82 85 87 90 92 93 95 96 96 96 94 92 90 86 84 83 86
27 28 28 30 34 35 36 37 39 39 40 42 47 51 54 58 62 66 69 70 71 73 76 79 81 84 88 92 95 98 101 102 102 101 99 96 94 93 91 88 84 80 80
29 28 29 32 35 35 35 36 37 40 44 49 53 56 60 64 67 69 69 72 76 78 81 83 86 91 96 100 103 106 106 104 103 98 95 93 93 90 88 83 78 77 74
26 26 29 32 34 34 36 39 42 47 51 55 59 63 65 67 69 72 75 79 81 83 85 89 94 97 101 103 105 105 104 101 95 89 82 77 77 75 72 71 71 72 71
27 29 30 31 33 36 40 44 48 53 58 63 65 67 70 73 75 78 80 80 82 86 92 96 99 101 103 103 102 101 96 88 78 73 70 68 68 67 67 68 69 70 70
26 29 31 35 37 41 44 48 53 57 61 65 70 73 75 76 77 77 80 85 91 96 100 102 101 100 99 96 91 83 77 73 69 67 65 64 65 67 68 70 70 71 71
29 32 36 38 42 46 50 54 58 61 65 68 70 72 73 74 77 84 90 95 99 103 103 99 96 94 89 80 75 72 70 67 65 65 67 68 71 74 77 78 76 79 79
34 37 40 44 48 51 54 58 61 64 66 68 68 70 74 80 86 91 96 101 104 101 95 90 87 81 76 72 70 70 69 69 70 73 75 76 78 81 83 84 85 86 85
39 42 45 48 52 55 57 61 64 67 68 70 73 77 82 88 93 99 103 103 97 90 86 82 79 75 71 71 70 73 75 77 79 81 84 86 88 90 89 86 84 82 81
43 47 50 53 57 60 62 65 67 70 72 74 79 84 88 95 100 102 100 93 86 82 81 78 75 74 74 76 78 81 83 86 89 92 94 94 92 89 87 80 76 70 67
48 51 55 57 59 62 65 68 71 73 75 79 85 91 97 101 100 92 84 80 77 75 75 76 76 77 76 81 86 92 96 98 99 98 95 92 87 83 78 71 65 60 55
51 54 56 60 62 65 68 71 73 75 79 86 92 98 100 95 87 81 77 74 75 76 77 77 81 84 87 91 97 100 103 102 98 93 86 78 73 67 64 60 56 52 45
54 57 59 62 65 67 69 71 74 78 84 90 96 95 88 80 75 72 72 74 77 80 84 87 90 93 95 96 95 92 90 87 82 74 64 57 51 49 47 46 46 44 39
57 58 60 63 66 68 71 74 79 84 90 94 90 83 76 71 69 71 76 82 87 91 94 95 93 90 86 78 74 72 68 62 58 49 42 39 39 39 38 37 38 37 33
59 61 63 65 68 71 75 79 84 89 91 87 81 74 67 67 71 78 84 89 92 94 93 89 81 71 64 63 60 58 54 48 44 41 40 39 38 36 34 33 32 30 25
60 62 65 69 72 75 80 83 88 89 86 80 73 67 65 68 75 82 88 91 91 86 79 73 70 65 56 54 55 53 49 45 40 36 33 33 33 33 31 27 26 23 18
61 64 67 71 74 79 84 87 88 85 79 71 67 64 66 71 78 85 89 87 80 77 74 73 67 57 52 54 55 49 46 43 38 33 31 31 31 29 29 25 19 15 13
62 66 70 73 77 82 85 86 83 79 73 69 65 65 68 75 82 87 85 78 76 71 71 69 60 56 56 55 52 47 43 37 37 34 33 31 28 26 23 16 9 8 7

GFSMW_500_spd_006.txt.gz
Wind_Speed
26 28 25 23 22 21 22 21 24 28 31 34 35 36 36 34 32 31 29 29 31 33 35 36 38 40 41 44 46 48 50 52 56 57 57 58 58 59 59 60 61 63 65
22 22 22 22 20 21 23 25 29 33 36 38 36 33 29 27 28 30 32 33 35 37 38 41 43 45 48 50 52 55 55 56 56 59 61 61 59 58 59 60 61 62 63
18 22 23 22 21 23 26 28 32 36 37 34 29 26 26 28 30 33 35 37 39 41 44 47 49 50 50 51 53 55 58 58 59 62 64 66 66 67 66 66 65 65 65
17 23 24 24 24 24 29 33 34 34 30 28 28 29 30 32 35 36 39 42 45 46 46 46 47 50 53 55 57 58 60 61 61 63 67 71 75 78 77 75 75 74 71
19 22 25 27 29 29 31 34 34 30 29 29 31 33 35 36 38 41 43 44 43 44 46 49 52 55 58 59 61 62 64 68 71 74 77 79 81 83 85 82 80 81 81
22 24 26 30 33 32 32 33 31 31 32 35 36 37 39 41 42 42 41 43 47 50 53 56 60 64 67 69 70 72 74 76 78 80 81 84 86 88 92 94 91 91 90
25 26 29 32 35 34 33 31 32 35 37 39 40 41 41 41 40 41 45 49 52 56 60 64 68 71 72 73 75 77 80 81 82 85 88 91 93 97 99 101 101 100 98
27 29 30 32 35 35 32 34 38 40 41 42 42 41 39 40 44 48 52 55 60 64 67 70 71 73 75 77 78 80 82 84 89 93 97 100 101 100 101 102 102 103 99
28 26 29 32 34 34 37 39 41 41 41 40 39 40 43 47 52 56 61 65 69 72 73 74 75 77 79 82 85 88 92 96 100 103 105 107 106 103 102 99 93 87 93
26 28 31 34 36 37 39 40 39 38 39 40 41 45 49 53 57 61 65 69 72 75 77 79 81 85 88 90 93 96 98 101 105 107 106 104 102 100 94 84 74 71 74
26 29 32 34 37 39 36 35 37 38 39 41 45 48 51 55 60 64 68 72 75 78 80 82 84 86 90 94 98 103 105 107 108 104 101 97 92 81 71 67 64 64 66
28 31 32 34 37 36 34 36 37 39 42 45 50 53 57 61 64 69 72 74 76 78 79 83 87 91 97 101 105 107 108 107 102 96 87 79 74 67 64 62 60 62 63
28 31 34 35 34 35 35 37 40 44 47 51 56 58 63 65 68 71 74 76 78 81 85 89 95 99 104 106 106 104 97 92 87 82 77 72 69 66 65 65 66 68 70
31 34 34 34 34 36 38 43 46 51 56 59 60 63 66 70 72 73 76 79 82 86 91 97 101 105 106 102 96 90 84 81 78 76 74 74 73 73 71 72 75 78 80
33 33 33 34 38 41 45 49 53 56 59 60 63 66 69 72 74 77 79 83 87 93 98 102 104 102 93 86 82 78 77 76 75 75 75 76 78 79 80 82 82 85 88
32 32 36 39 43 47 50 53 54 57 60 63 65 68 71 74 76 79 84 89 94 99 102 102 97 86 78 78 78 81 81 81 82 83 83 84 85 88 90 91 94 95 97
35 37 40 44 48 50 52 53 56 60 63 65 68 71 74 76 81 85 90 94 98 101 98 90 79 77 80 85 88 91 92 91 91 92 92 92 93 95 96 97 97 96 92
38 41 45 48 50 52 54 57 60 62 65 68 72 74 77 81 85 90 95 98 98 94 85 77 78 83 88 92 92 93 91 88 84 82 79 76 75 76 77 78 78 75 71
42 45 47 50 53 55 58 60 63 66 70 72 74 77 80 84 90 94 97 96 90 80 74 77 83 91 91 91 88 84 79 75 69 65 61 65 65 60 58 60 59 54 48
45 48 51 53 56 59 62 64 67 68 70 73 76 79 84 89 93 95 92 86 78 73 76 80 89 93 91 83 77 75 73 64 59 57 57 56 56 52 49 49 48 43 38
49 52 54 57 61 63 65 67 68 69 72 74 79 84 89 92 94 89 82 76 72 74 79 84 91 92 84 76 73 70 62 61 59 53 50 50 51 49 46 43 41 40 35
53 56 59 61 63 65 65 65 67 70 74 78 83 87 90 91 88 83 76 72 73 77 82 87 90 85 75 70 68 61 58 61 59 51 48 47 45 44 41 40 40 38 34
59 61 63 65 65 63 63 66 69 72 76 81 86 88 88 87 81 75 72 72 75 80 85 90 90 78 69 65 62 59 59 59 52 46 43 45 43 41 40 40 38 33 26
63 64 64 62 60 62 65 68 70 75 80 84 88 89 88 81 74 72 74 75 77 81 86 90 85 73 67 65 62 59 57 53 45 40 39 44 43 40 39 36 34 28 21
65 63 59 59 62 64 66 70 74 79 84 87 89 88 81 74 71 71 73 75 78 83 88 90 80 73 68 65 63 58 56 49 42 40 39 43 41 34 33 33 31 21 9
60 57 58 60 62 64 69 74 79 83 86 89 87 81 75 71 70 71 70 73 77 81 87 82 72 70 69 66 61 55 52 47 43 41 39 40 35 30 28 27 19 6 5

GFSMW_500_spd_009.txt.gz
Wind_Speed
23 25 25 26 26 23 24 25 23 23 24 27 31 35 39 40 37 33 31 31 32 33 35 36 39 40 42 45 46 47 48 49 52 54 54 54 54 55 56 55 55 56 59
25 27 28 21 20 22 24 25 24 26 27 31 34 36 37 35 32 32 33 34 35 37 39 41 43 44 45 46 47 49 51 54 57 60 62 62 60 59 60 62 65 66 67
25 25 22 22 17 20 24 26 27 28 30 32 34 34 31 31 32 35 37 38 39 41 42 42 42 43 45 48 51 54 58 60 62 66 70 71 71 72 70 71 71 71 71
20 19 21 21 21 21 23 26 29 32 33 34 33 33 33 34 37 39 40 41 42 42 41 42 46 48 51 54 58 62 66 70 72 72 72 75 79 82 81 79 79 80 80
20 19 20 22 23 23 25 27 30 32 34 33 33 33 36 39 41 41 42 40 40 41 43 47 50 54 59 64 68 71 73 75 76 78 80 80 81 83 86 85 86 87 89
22 21 22 24 27 28 28 28 29 32 34 33 34 37 39 40 41 42 40 40 42 46 49 53 56 60 64 68 71 73 76 77 79 81 83 86 89 92 95 97 94 96 95
23 24 25 27 30 30 29 30 32 33 34 36 38 39 41 40 39 38 40 44 47 49 51 55 59 65 69 72 74 76 78 81 83 85 88 90 94 98 103 106 106 107 103
25 25 27 28 29 30 30 31 33 35 36 39 38 38 38 38 39 41 45 47 50 53 56 61 67 71 73 74 76 78 80 83 87 90 95 98 101 105 107 108 110 112 110
28 27 28 29 29 31 32 33 35 37 38 36 36 37 38 40 43 45 49 53 57 61 66 71 74 75 78 79 81 83 86 90 95 98 101 103 105 107 107 104 99 93 97
27 26 28 30 32 32 33 35 36 36 36 36 37 39 41 44 47 52 56 61 65 69 73 76 78 79 80 82 85 87 91 96 99 101 103 106 106 104 98 90 84 80 82
25 28 29 31 31 33 35 36 35 36 36 37 39 42 46 50 55 59 63 66 70 73 76 76 77 80 83 86 89 93 97 99 101 104 104 100 95 89 84 81 79 78 80
25 27 29 30 33 35 36 36 34 35 37 40 44 49 53 56 60 64 67 70 72 73 75 77 81 84 87 91 95 98 99 102 104 101 96 88 84 82 81 80 80 80 80
25 27 29 31 33 34 34 34 34 38 42 47 51 54 58 61 64 66 69 70 71 74 78 82 84 88 93 96 98 100 103 102 98 92 89 89 89 87 87 87 87 86 85
27 28 30 32 32 32 34 37 40 44 49 53 55 58 62 64 65 67 69 71 75 79 82 85 90 94 96 99 101 100 98 93 88 90 90 89 88 86 85 85 86 89 91
28 30 31 30 30 34 38 42 45 50 53 56 59 62 63 66 68 70 72 76 79 82 86 90 94 96 98 98 97 96 91 87 89 89 88 85 81 77 75 76 74 75 76
30 29 29 32 36 40 43 47 50 53 56 59 61 63 66 69 70 72 76 78 81 85 90 92 95 96 93 92 89 88 87 89 91 86 80 76 71 66 65 67 70 73 74
30 32 34 37 40 43 46 49 53 57 59 62 65 66 68 70 72 75 77 80 85 88 92 95 95 89 87 85 84 85 87 90 87 81 75 67 63 62 65 63 64 62 62
33 34 36 39 42 46 50 54 57 60 62 65 67 67 69 71 74 77 80 84 87 90 93 93 89 83 81 82 82 85 89 88 80 73 68 62 61 64 63 60 59 55 52
34 36 39 42 47 51 55 58 60 63 65 67 67 68 70 72 75 79 83 86 88 91 89 87 84 80 78 79 83 88 90 81 73 68 66 64 63 62 59 59 55 51 46
36 38 43 47 51 55 58 61 64 66 66 66 67 69 71 74 78 82 84 86 89 88 86 82 79 78 77 79 84 90 85 75 70 65 63 61 61 57 54 54 54 49 46
40 44 48 52 56 59 63 65 66 65 65 66 67 70 72 77 81 83 85 87 88 85 80 76 76 75 78 80 85 86 77 74 68 63 58 56 53 51 49 53 54 49 43
45 49 53 56 60 64 66 67 66 64 64 66 68 71 76 80 82 84 87 87 85 80 75 73 71 74 77 80 86 81 72 71 69 63 57 51 48 47 49 52 51 44 39
50 53 56 60 64 67 67 66 63 64 66 66 69 74 78 80 85 87 87 84 79 75 72 72 72 72 76 80 85 76 70 68 65 58 52 48 45 46 47 48 45 39 36
54 58 61 65 67 68 65 62 63 65 65 68 72 76 78 82 86 87 85 79 74 71 71 72 73 74 76 82 80 70 67 65 61 53 47 44 40 41 44 43 39 37 29
58 61 66 68 69 65 62 63 63 64 68 72 75 78 82 85 85 83 80 75 70 71 72 73 76 76 77 83 75 67 65 62 57 48 45 41 35 36 38 35 32 22 11
63 66 69 68 62 61 62 62 65 68 71 75 78 82 86 86 85 81 73 68 68 69 71 74 76 76 82 81 68 65 60 56 52 49 46 38 35 35 29 24 14 11 12

GFSMW_500_spd_012.txt.gz
Wind_Speed
27 26 25 27 28 29 31 30 26 25 25 25 25 29 32 35 37 38 36 34 34 35 36 38 39 40 41 42 42 41 42 45 48 51 53 56 58 60 64 64 66 66 67
26 25 25 28 30 32 31 25 24 25 25 25 27 31 34 37 36 35 34 35 36 38 40 40 41 42 42 41 44 45 47 50 54 58 62 64 63 65 67 68 69 70 70
24 24 26 29 33 31 27 23 22 22 25 27 30 31 34 34 34 34 35 37 39 40 40 41 41 41 42 45 47 49 52 55 59 63 69 71 72 72 71 70 72 73 75
23 23 26 28 27 26 27 27 26 27 28 30 31 32 33 34 34 36 38 39 40 41 41 41 42 44 47 49 51 54 57 62 67 71 72 73 79 83 83 81 82 82 83
25 26 25 24 25 26 26 27 28 29 30 31 34 34 34 34 37 38 39 39 40 41 42 44 47 49 51 54 57 62 66 70 74 76 78 80 80 82 85 87 89 90 93
29 29 27 26 26 26 26 28 29 30 31 33 35 35 36 37 38 38 38 40 41 42 46 48 50 53 56 60 63 68 72 74 77 79 82 84 87 89 92 93 93 94 94
28 29 29 28 27 27 29 29 30 31 33 35 34 35 37 37 37 38 40 42 44 46 48 52 55 58 62 66 70 73 75 77 79 82 84 87 90 94 98 101 100 102 101
28 29 28 28 28 29 30 30 32 33 34 34 35 36 36 36 38 39 41 43 45 50 53 58 62 65 68 70 73 75 77 80 82 85 89 93 96 100 103 107 111 111 110
28 28 29 29 29 30 31 32 33 34 35 36 35 36 36 37 38 40 44 49 52 56 60 63 66 68 70 73 75 77 80 83 87 92 95 98 101 104 104 104 106 108 111
29 29 29 30 31 31 31 31 32 34 35 34 35 36 37 38 42 46 50 54 58 61 64 67 69 70 72 76 79 82 85 89 93 96 99 102 102 102 102 103 101 100 102
30 29 29 30 31 30 30 31 33 32 33 34 36 37 40 45 49 52 56 59 63 66 68 69 71 73 76 79 82 85 90 93 96 100 102 103 103 103 100 98 96 96 95
30 29 27 28 28 29 30 31 31 32 33 36 38 41 46 50 54 57 61 64 66 69 70 71 73 77 80 83 86 90 93 96 99 101 103 103 100 97 95 94 91 89 87
28 26 25 27 29 30 30 31 32 33 36 39 44 48 51 55 58 62 64 67 69 71 72 74 76 80 83 86 89 92 95 98 101 102 100 98 95 92 91 88 86 82 79
25 25 26 28 29 30 31 32 34 38 42 46 49 51 56 60 63 65 68 70 71 72 73 76 80 82 85 87 90 94 98 100 99 97 96 93 89 90 88 84 78 76 72
25 26 27 29 30 29 31 35 39 42 45 48 52 56 60 63 66 68 70 71 72 73 76 78 81 83 85 89 94 98 100 99 96 94 89 85 87 88 83 77 73 72 70
26 28 30 29 30 32 36 39 42 45 48 53 57 60 64 67 69 70 70 70 72 75 77 80 83 84 88 93 96 98 98 95 91 85 81 84 87 82 74 71 70 69 67
29 29 30 32 34 37 39 42 45 48 53 58 62 65 68 69 70 70 69 71 74 76 79 82 84 88 92 95 96 95 91 86 82 81 82 84 84 75 70 67 65 62 62
29 29 31 34 36 38 41 45 49 53 58 62 66 69 70 70 68 67 70 73 75 79 81 84 87 90 94 95 93 88 83 79 79 81 84 85 76 70 69 65 59 56 54
31 31 34 36 39 41 45 49 54 58 62 66 70 71 69 66 66 70 72 74 77 80 84 87 90 92 92 91 85 82 77 77 78 81 86 77 70 68 64 61 56 50 50
32 34 37 39 41 45 49 54 58 63 66 70 71 67 64 66 69 72 74 76 80 84 89 92 93 93 89 84 80 76 76 77 78 81 79 70 68 64 59 58 55 51 50
35 37 38 41 45 49 54 58 63 66 70 71 66 64 66 69 71 73 75 79 84 88 92 94 93 89 86 78 74 74 77 79 78 81 69 64 61 56 52 54 54 50 49
35 37 41 45 49 54 59 63 66 70 70 64 63 66 69 70 71 74 77 82 88 91 92 91 89 85 78 73 71 74 76 78 83 74 62 57 53 52 52 50 45 46 43
37 41 46 50 54 59 62 65 69 66 62 63 65 67 68 70 73 77 82 87 92 94 93 89 84 77 71 69 72 73 75 79 78 65 58 54 55 51 45 41 43 38 28
43 46 50 54 58 62 65 67 62 60 61 63 64 66 70 74 78 82 88 92 94 93 89 83 76 70 68 70 72 73 75 78 67 56 53 52 47 41 40 39 33 18 12
47 50 54 58 61 64 61 57 58 59 60 62 66 71 74 78 82 88 92 93 92 89 82 76 70 69 70 72 74 76 78 71 56 50 48 43 42 40 35 27 12 12 14
50 54 57 60 58 54 55 56 56 58 62 66 71 75 79 84 90 92 92 92 87 78 72 70 70 71 73 74 76 79 74 56 49 45 42 42 37 31 19 9 12 14 19

GFSMW_500_spd_015.txt.gz
Wind_Speed
30 33 31 30 28 29 30 31 31 34 36 34 29 29 29 30 32 34 37 36 35 34 34 35 35 36 37 38 39 39 40 42 45 46 46 49 52 53 57 60 62 64 65
31 33 31 30 30 30 31 32 33 35 32 29 29 29 30 33 36 38 38 37 35 34 35 36 37 38 39 40 41 42 45 48 51 52 54 56 55 59 62 67 69 70 72
29 33 32 31 30 31 32 33 34 34 29 27 23 31 34 36 38 38 38 36 36 37 38 39 40 40 41 43 46 49 51 51 53 57 62 65 66 69 71 74 75 76 77
28 29 30 30 29 30 32 31 29 29 30 32 32 34 36 37 39 38 38 38 38 40 40 41 42 43 45 47 48 50 53 57 60 64 67 71 76 81 82 82 81 81 82
29 30 30 29 28 29 28 27 28 29 30 31 34 36 37 37 38 37 37 39 40 41 42 43 44 45 46 49 53 56 60 64 69 72 73 76 77 77 80 84 87 86 88
30 31 32 31 30 30 28 28 28 29 31 33 35 36 38 38 38 38 39 40 41 42 42 42 44 48 52 56 59 63 66 68 70 72 74 78 82 84 87 88 88 90 90
32 33 33 32 33 31 28 28 29 31 33 35 36 38 38 38 38 39 39 40 41 41 43 47 51 55 57 61 65 67 69 71 73 75 77 81 85 88 91 94 93 94 94
32 33 34 34 33 32 31 31 31 32 34 36 37 38 38 37 38 39 40 41 42 45 49 53 56 60 63 66 68 71 73 74 76 78 82 85 89 91 94 97 102 102 103
29 31 33 32 32 32 32 33 34 34 35 36 36 37 37 37 37 38 41 44 47 51 54 57 61 64 67 69 72 74 75 76 79 83 86 89 92 95 99 103 107 113 113
30 29 30 31 32 34 35 34 34 34 34 35 36 36 36 37 39 41 45 49 52 55 59 62 66 68 70 72 74 75 76 80 84 87 89 93 96 100 103 107 110 111 111
28 30 30 32 34 34 34 34 32 31 33 34 34 35 37 39 42 47 50 53 57 60 64 67 70 72 73 74 75 77 81 84 87 90 93 97 100 104 108 110 109 106 101
29 30 33 34 33 33 33 31 31 32 33 34 35 37 40 43 48 51 54 58 62 66 69 71 73 74 74 74 77 80 83 86 89 93 97 102 107 109 109 107 102 96 92
30 32 32 31 31 30 30 31 32 33 34 35 38 42 45 48 51 55 59 63 67 71 73 74 74 73 74 77 80 82 85 89 93 98 102 105 108 106 103 99 93 90 89
30 29 29 29 29 31 32 32 32 34 36 39 43 46 48 51 56 60 64 68 72 74 75 73 72 74 77 79 81 84 87 91 95 99 103 105 103 101 97 90 87 87 88
32 30 30 31 31 32 33 33 35 37 39 42 45 48 52 56 61 65 69 72 75 75 72 71 73 75 77 79 81 86 91 96 98 100 101 101 98 92 87 85 85 88 85
30 29 31 31 32 34 34 36 38 39 42 44 47 52 56 61 66 70 74 76 74 70 70 72 73 75 76 81 89 94 98 99 100 100 99 95 87 83 81 83 86 83 78
30 31 32 34 34 34 36 38 39 41 44 47 52 57 61 67 71 74 76 72 68 69 70 72 74 77 81 88 94 98 100 99 98 97 92 84 80 80 82 84 79 72 69
31 33 34 35 36 37 39 39 41 44 47 52 56 62 67 71 75 74 69 67 68 69 72 74 78 82 89 95 99 100 99 97 93 86 81 79 78 80 85 80 70 63 61
32 34 35 37 38 38 39 40 43 47 52 56 61 66 71 74 72 66 65 66 69 72 76 80 84 90 95 99 99 98 95 89 82 78 77 78 78 82 79 70 64 62 60
33 37 40 39 39 38 40 43 47 51 56 61 66 70 73 66 62 63 65 68 73 78 82 86 92 96 98 98 96 92 86 81 77 73 75 77 81 78 65 62 61 57 49
32 33 34 35 39 40 42 46 51 56 61 66 70 69 61 60 61 64 69 74 79 83 88 93 96 97 96 91 86 80 77 76 73 73 73 76 75 62 56 55 52 50 47
33 33 36 37 39 42 47 51 55 60 65 69 62 58 58 59 64 68 74 80 86 89 92 95 96 93 89 83 77 73 72 74 77 76 76 74 59 50 51 51 50 45 37
33 34 36 38 42 47 50 55 60 65 64 56 55 56 58 63 68 73 79 86 91 93 96 97 93 86 80 74 70 71 72 75 77 80 74 58 46 46 46 47 41 31 20
32 35 38 43 46 50 55 60 63 56 53 52 54 57 61 67 72 77 84 91 95 99 97 91 83 76 70 69 70 72 75 76 79 72 55 44 41 42 44 38 28 19 22
36 40 43 46 50 55 58 56 51 51 51 54 56 62 67 71 77 84 91 96 100 98 88 79 74 71 69 71 75 77 79 79 68 52 41 37 38 38 34 25 20 23 28
39 42 46 50 54 55 49 48 49 51 53 56 62 68 72 78 85 90 93 99 97 87 78 72 70 69 73 76 78 80 75 60 47 40 36 35 34 31 20 17 22 29 31

GFSMW_500_spd_018.txt.gz
Wind_Speed
27 28 28 32 34 29 26 26 27 29 31 33 35 36 36 31 30 31 32 34 38 39 40 39 37 38 37 36 37 37 38 40 42 43 44 46 47 49 51 55 58 61 63
29 27 28 31 31 29 28 28 29 31 33 36 36 37 33 30 30 31 33 38 40 40 40 38 37 38 39 39 40 40 41 43 46 47 49 50 51 55 58 62 66 68 68
29 29 29 30 30 29 29 30 30 32 36 38 37 31 30 31 35 36 38 39 40 41 40 39 40 41 41 42 43 43 45 47 51 55 60 63 66 68 66 66 67 68 70
28 27 28 29 31 30 30 28 30 33 36 32 30 31 33 34 35 38 40 41 42 41 40 40 41 41 42 42 44 47 51 55 57 60 65 70 74 76 74 71 71 72 73
29 27 28 28 27 27 27 28 30 32 31 30 32 34 36 37 38 40 41 41 41 40 41 41 41 41 43 47 50 53 57 61 65 68 69 69 71 74 76 76 77 77 79
29 28 28 28 26 26 28 29 31 32 33 34 36 37 38 38 39 41 41 41 40 40 40 41 42 45 48 51 55 59 62 65 67 70 72 75 76 78 79 80 80 81 84
30 29 29 28 27 29 30 32 33 34 35 37 38 37 38 39 40 41 40 40 40 40 40 43 47 50 53 56 59 63 66 69 71 74 75 76 78 81 84 87 87 88 88
28 28 26 27 28 31 32 33 34 35 36 38 38 38 40 40 39 39 39 39 40 41 45 48 51 55 58 61 65 68 71 73 74 75 77 78 80 83 87 91 96 96 96
27 25 24 27 28 30 32 33 33 35 36 38 39 39 39 37 38 38 39 40 42 45 49 52 55 58 62 65 68 71 73 75 76 76 78 80 84 88 91 94 98 106 107
26 25 25 26 27 30 31 33 35 36 37 37 38 37 37 37 38 39 40 43 46 50 53 56 59 63 67 70 72 74 75 76 76 78 81 85 88 91 94 100 106 110 113
28 29 27 27 30 32 33 33 34 37 37 37 35 36 37 37 38 40 43 47 50 53 56 61 65 68 71 73 75 75 74 76 78 81 85 87 91 97 103 107 110 111 110
28 27 27 30 33 33 33 34 35 36 36 35 36 37 38 38 41 44 47 50 54 57 62 66 69 73 74 74 73 73 75 78 81 84 87 94 100 104 108 110 109 106 102
25 26 28 31 32 33 34 34 34 34 34 36 37 38 39 42 44 47 50 54 58 63 67 71 74 74 72 71 72 73 76 80 84 89 96 101 106 108 109 105 101 97 93
23 26 29 32 33 33 32 32 32 34 36 37 38 40 41 44 47 50 55 59 64 68 72 74 72 69 69 70 73 76 80 85 91 97 101 105 106 105 100 96 92 91 88
27 29 31 33 32 32 32 33 34 37 38 39 40 41 43 47 50 54 59 64 69 72 74 70 66 66 69 73 78 83 88 93 98 101 103 103 100 95 91 89 85 82 82
30 31 32 32 32 32 33 35 37 38 39 40 41 42 46 50 55 59 64 69 73 74 66 64 65 69 74 81 86 91 95 98 102 103 100 95 91 86 81 79 78 79 82
27 29 31 32 32 33 35 36 37 39 39 40 42 44 50 55 59 64 69 73 70 63 62 65 69 75 81 86 93 99 102 103 100 97 92 86 80 78 75 74 75 76 79
27 29 31 32 33 34 35 37 39 40 44 41 45 49 55 59 64 69 73 66 62 61 64 69 75 82 89 95 102 104 103 99 93 87 82 78 74 73 76 76 77 76 63
28 30 31 32 33 35 38 41 42 42 41 45 49 54 58 63 68 71 62 60 61 65 70 76 83 89 93 102 106 105 100 90 82 77 74 73 73 74 78 80 76 62 51
29 29 30 32 35 37 37 35 39 41 45 49 53 57 63 68 67 61 59 61 66 72 77 82 88 92 100 106 104 98 91 84 77 71 70 73 76 79 79 71 57 47 47
29 30 33 35 37 34 36 37 40 44 49 52 56 62 67 62 60 59 61 66 72 74 81 88 91 97 106 103 95 88 82 78 74 72 73 76 79 74 60 48 45 46 45
28 28 30 32 34 35 37 40 44 48 50 56 61 63 58 58 58 61 66 71 76 80 86 92 95 104 104 95 86 79 75 75 78 79 79 75 64 49 43 41 41 39 25
29 31 32 33 34 36 40 44 46 50 55 59 57 55 55 57 60 65 70 75 81 86 91 96 102 104 95 84 76 74 75 78 81 79 69 55 44 40 37 38 34 21 23
29 30 31 33 36 40 42 45 50 55 56 52 52 53 54 59 64 70 77 82 86 90 96 101 105 97 84 76 73 76 79 78 70 58 48 42 39 37 35 30 22 25 30
30 32 34 37 39 41 44 49 54 51 48 49 50 53 57 63 69 74 81 85 90 96 100 104 99 87 76 73 78 81 72 62 53 45 42 38 32 28 24 20 25 30 27
32 34 36 37 40 44 50 51 46 46 47 49 52 56 62 68 74 79 82 88 92 97 101 95 84 75 76 80 78 66 57 50 44 42 34 27 26 19 16 20 25 19 18

GFSMW_500_spd_021.txt.gz
Wind_Speed
26 32 29 28 27 28 29 28 25 25 25 28 29 30 32 34 34 32 29 29 32 33 36 39 41 41 39 38 37 38 39 41 41 40 41 43 45 47 51 53 56 59 62
25 32 28 28 27 27 28 29 28 27 28 29 29 33 35 36 29 30 26 32 37 38 39 40 41 41 40 40 40 40 40 41 43 44 45 47 49 53 56 59 63 66 66
27 32 30 28 28 27 26 27 28 28 30 30 32 35 34 28 27 29 33 36 38 40 41 42 42 41 41 41 41 42 43 44 48 52 55 58 60 61 60 62 64 67 68
28 30 30 30 30 27 27 28 28 29 29 31 33 31 29 29 30 33 36 39 41 42 43 43 41 41 41 41 42 45 48 50 53 56 61 66 70 72 70 68 68 70 71
29 28 28 29 27 26 26 27 28 28 29 31 31 30 31 33 35 36 39 40 42 44 43 41 41 42 42 44 46 50 53 56 59 62 64 67 69 73 77 79 77 76 75
28 29 30 29 26 26 26 26 26 28 30 31 33 33 35 36 36 38 39 40 41 42 41 42 42 43 45 48 51 54 57 60 63 67 70 72 74 74 76 77 78 80 81
28 29 32 29 25 26 27 28 28 30 31 33 35 36 37 37 38 40 41 40 39 40 41 41 43 46 49 52 55 58 61 64 67 70 72 75 77 79 81 82 83 84 84
28 30 31 27 25 26 27 29 31 32 34 34 35 36 37 38 39 40 39 39 40 41 41 44 47 50 53 56 59 62 65 68 71 73 75 75 76 77 80 83 88 88 87
27 26 25 26 24 25 28 29 31 32 33 33 33 36 38 39 39 38 39 40 41 42 44 47 51 54 56 59 63 66 69 72 73 73 73 74 75 78 82 88 93 98 97
25 23 24 23 21 23 26 28 29 30 32 32 35 37 38 38 37 38 40 41 42 44 48 51 54 57 61 64 68 71 72 72 71 71 73 75 79 84 90 97 101 105 109
23 22 21 21 22 25 26 28 29 30 32 34 36 37 37 36 39 40 41 43 45 47 51 54 58 61 65 69 71 72 71 69 69 72 76 81 88 93 99 103 108 111 113
18 19 20 22 25 27 28 29 31 32 33 35 36 35 36 39 41 41 43 46 47 50 54 58 62 66 69 72 71 68 67 70 73 79 85 91 97 101 106 109 111 110 106
18 19 21 24 25 27 28 29 31 32 33 34 35 36 38 41 42 43 44 47 50 54 59 63 67 70 71 68 66 68 71 75 81 89 94 99 104 108 111 110 106 101 95
16 17 19 21 24 26 28 29 32 33 34 35 36 38 40 41 42 44 48 49 54 59 63 67 70 70 66 66 68 71 76 83 89 94 99 105 110 112 108 101 95 90 86
16 17 20 24 27 28 29 30 31 34 35 36 37 39 41 42 44 49 47 54 59 63 67 70 68 66 66 67 72 77 84 90 95 100 106 112 111 104 95 90 85 81 79
19 20 22 24 25 26 28 30 32 34 34 37 39 41 43 45 46 48 53 59 62 67 69 65 65 65 68 74 79 85 90 96 101 105 111 111 101 92 85 80 78 78 80
21 21 22 23 25 27 29 30 32 34 36 39 42 45 47 44 49 53 58 62 66 67 63 64 65 69 75 80 86 91 96 101 105 111 111 99 88 83 78 75 76 78 79
21 23 24 25 27 28 29 31 33 36 39 43 41 40 45 48 53 57 61 64 63 61 62 64 70 75 81 87 91 96 100 105 111 112 100 88 80 77 79 80 80 74 61
24 25 25 25 26 27 29 31 35 38 38 39 41 44 48 52 55 60 63 59 59 60 63 70 75 80 84 91 96 101 105 110 111 98 86 82 82 84 81 77 64 50 41
24 24 24 25 26 28 31 35 38 38 38 39 43 47 51 54 59 60 56 56 58 63 68 74 78 84 90 95 101 107 111 110 96 83 80 83 82 74 62 52 45 37 37
23 24 25 26 26 28 30 32 37 38 40 43 47 49 54 57 56 54 55 57 62 66 72 78 83 89 95 100 105 110 109 93 84 82 80 72 64 53 45 41 37 36 27
23 23 24 27 30 32 34 36 37 39 43 46 48 53 56 52 52 54 57 61 66 71 77 83 88 93 98 103 107 105 89 82 85 78 68 60 49 43 39 34 31 22 21
26 27 28 29 33 33 35 36 39 43 45 47 51 52 50 50 52 56 59 65 71 77 83 89 92 96 100 105 104 89 79 81 73 65 56 48 43 34 28 26 18 23 27
25 27 29 31 32 34 36 39 41 43 45 49 47 47 48 51 55 59 64 70 77 83 88 92 96 99 103 103 90 79 79 69 60 49 44 35 32 29 22 17 25 27 21
25 27 29 31 33 35 37 38 41 45 46 45 45 47 50 53 57 63 70 76 82 88 92 96 100 103 100 87 79 79 66 58 46 42 33 32 26 18 19 26 25 20 21
25 27 28 30 32 33 36 41 43 43 43 44 46 49 52 56 62 68 73 81 87 90 94 97 101 98 86 78 77 64 55 46 42 33 30 22 16 19 22 19 18 17 19

GFSMW_500_spd_024.txt.gz
Wind_Speed
33 30 29 31 30 30 30 28 25 28 26 25 25 25 27 29 30 33 35 29 27 25 29 34 36 38 40 41 43 44 44 44 42 40 41 43 45 45 48 50 54 57 60
33 31 29 29 31 30 30 28 25 29 30 27 27 27 29 29 32 34 29 27 28 31 33 36 39 41 43 44 45 44 44 45 45 44 45 44 47 50 53 56 60 63 65
35 31 28 29 30 28 29 27 26 26 28 30 29 30 30 31 33 28 28 31 33 36 38 40 42 44 45 45 43 43 43 45 47 49 51 52 53 55 56 60 63 66 67
34 29 28 29 32 31 30 28 26 27 28 29 30 30 30 31 29 29 31 35 37 39 41 43 43 45 44 43 44 45 46 47 50 53 57 61 65 65 63 63 66 68 69
34 30 30 31 30 31 29 28 28 28 30 31 31 30 30 30 31 33 36 38 39 41 43 44 45 43 43 44 46 48 50 52 55 58 62 64 67 71 75 76 74 72 70
32 30 31 30 27 29 27 27 27 29 30 32 32 30 31 32 33 36 38 39 41 44 45 44 43 43 45 46 48 50 53 58 61 63 66 69 71 74 76 78 78 79 77
30 30 29 31 29 28 28 26 27 29 29 31 31 32 33 34 36 37 38 40 43 44 43 42 44 45 47 48 51 54 58 61 64 67 70 73 76 78 78 78 77 77 77
31 28 31 32 30 28 29 27 27 28 29 32 33 34 35 36 36 38 40 41 42 42 42 44 46 47 48 52 55 59 62 65 69 72 74 76 75 74 75 78 82 82 82
29 30 31 30 29 28 28 28 27 28 31 32 34 34 35 36 37 40 41 42 41 42 44 46 47 49 53 55 59 62 66 70 73 75 73 71 72 73 77 82 88 93 92
29 30 28 28 27 26 25 26 26 27 29 31 32 34 35 37 39 41 41 40 42 45 46 47 50 53 56 59 63 66 71 73 74 71 71 72 75 79 85 91 96 101 106
28 27 27 26 24 24 24 23 24 26 27 31 32 35 37 38 40 40 40 42 45 47 48 50 53 56 59 63 67 71 73 71 69 69 72 77 83 88 94 99 104 109 115
27 28 26 24 23 23 23 24 26 28 29 31 34 36 37 37 37 39 42 45 47 48 50 54 57 57 62 67 71 71 69 68 69 73 79 84 90 94 100 105 110 115 118
26 24 20 19 21 22 24 25 26 28 29 31 33 34 36 37 39 41 45 47 49 52 55 54 57 62 66 70 68 66 67 70 75 80 85 91 95 100 106 112 117 121 120
19 19 19 20 21 22 22 23 25 27 29 31 33 35 38 39 41 44 47 49 51 53 53 57 62 66 69 65 64 66 69 75 80 85 90 96 103 109 114 119 123 116 104
18 19 19 18 19 20 22 25 26 28 30 33 35 37 38 40 43 46 48 51 50 53 57 61 66 67 63 63 65 69 75 79 84 91 98 103 108 115 119 121 108 97 93
15 16 17 18 19 20 22 24 27 29 32 33 35 36 39 42 45 47 47 50 53 57 61 65 64 62 62 65 69 74 80 85 92 97 103 108 113 117 112 98 92 93 91
18 18 18 19 19 20 23 26 28 30 32 33 35 38 42 44 44 46 48 52 56 60 64 62 60 62 65 70 75 81 87 92 98 104 109 113 117 105 94 89 88 79 69
18 17 17 18 20 22 25 27 28 30 32 34 38 41 44 45 46 47 51 55 60 62 60 59 61 64 69 75 81 87 92 98 104 109 113 113 100 92 90 83 73 60 49
15 17 19 20 22 24 25 26 28 30 33 37 40 42 44 44 48 50 55 58 61 57 58 60 64 69 76 82 87 93 98 103 107 110 107 95 90 86 76 69 55 45 40
18 20 20 20 22 24 26 27 30 33 35 37 41 43 45 47 52 52 57 59 55 56 59 63 69 75 81 88 93 98 103 106 109 102 87 85 80 69 61 53 46 36 31
19 18 18 21 24 25 27 29 32 35 37 40 41 43 48 49 52 57 54 52 55 58 62 67 74 80 88 92 97 102 107 109 101 85 79 72 63 53 47 42 35 28 22
16 18 19 21 23 27 30 32 35 37 38 40 43 47 48 51 54 51 51 54 57 60 66 73 79 85 90 96 100 105 106 97 85 79 68 59 49 43 40 36 26 26 29
15 17 22 24 26 28 30 34 35 37 40 42 45 47 50 50 49 50 53 56 60 67 73 78 82 88 93 98 104 105 93 82 78 66 55 48 41 39 31 24 28 23 19
20 21 23 25 28 30 32 35 36 38 41 42 46 48 47 47 50 52 55 60 66 71 76 82 88 93 97 101 104 92 79 75 65 51 45 38 35 25 23 28 22 20 20
19 22 25 28 30 31 32 34 36 38 41 44 45 45 46 48 50 53 58 64 72 78 83 89 94 95 99 100 89 78 73 64 49 41 35 32 24 25 27 22 20 20 20
20 23 26 28 29 30 32 34 37 40 42 43 43 43 45 49 52 57 64 72 78 83 88 92 94 98 95 85 75 70 61 48 40 34 29 21 24 23 17 20 21 20 23

GFSMW_500_spd_027.txt.gz
Wind_Speed
43 39 35 33 31 30 31 29 28 24 25 28 29 28 25 26 27 28 29 32 34 33 29 29 31 33 36 39 41 44 47 47 46 45 44 44 45 46 47 49 51 54 56
41 41 36 31 33 31 32 30 27 26 26 28 33 30 27 28 29 28 30 32 33 30 30 32 36 38 40 42 44 47 48 48 44 42 41 42 45 48 50 53 56 59 62
41 44 37 32 34 31 32 31 29 27 26 26 31 32 32 30 30 30 32 33 31 30 32 36 39 41 43 46 48 49 47 44 44 45 46 47 47 49 51 57 60 62 65
41 40 40 32 34 32 30 31 29 26 26 26 27 29 31 31 31 33 33 34 32 33 37 39 41 43 46 48 49 47 44 45 47 50 52 54 58 60 57 57 61 64 68
41 37 38 33 35 33 30 31 30 27 27 27 27 28 30 32 33 35 36 36 35 38 40 41 43 46 48 50 48 47 47 49 50 53 56 60 64 66 68 66 67 69 69
40 38 39 36 33 33 30 30 30 28 26 28 29 30 33 34 35 35 38 38 40 41 41 43 46 47 48 47 47 49 51 52 55 59 63 65 66 69 72 72 73 74 72
41 37 37 34 30 33 30 30 30 27 26 29 29 29 31 33 34 37 39 41 41 41 43 46 47 47 47 47 49 50 53 57 61 64 67 69 72 74 76 77 76 76 75
41 36 37 33 34 34 32 30 29 27 26 28 28 29 31 33 36 39 41 41 42 44 46 47 46 47 48 50 51 53 57 61 66 68 69 73 75 75 75 75 78 78 78
39 38 36 33 34 33 33 31 29 28 27 28 30 31 33 34 37 38 39 41 44 46 46 46 47 48 49 51 54 57 62 66 67 70 72 74 72 71 73 77 82 87 88
37 37 38 35 33 32 33 31 29 28 28 29 31 32 33 34 35 37 40 43 45 45 46 47 48 50 52 55 58 62 64 66 70 73 72 69 69 72 77 83 88 93 98
35 38 37 34 33 32 31 30 28 27 28 29 29 31 33 34 36 39 41 43 44 46 47 48 50 52 55 58 61 61 66 69 72 70 69 69 73 77 83 88 94 100 108
39 39 35 33 30 29 30 28 27 27 26 28 30 31 34 35 37 39 41 43 45 45 48 50 52 55 58 58 62 65 69 72 68 68 70 74 79 84 91 96 102 108 115
36 36 32 30 29 28 27 26 26 26 27 28 30 32 34 35 37 40 41 43 45 47 50 52 55 55 57 62 66 70 70 68 68 71 75 80 86 92 97 104 111 117 122
31 31 29 27 27 27 25 25 25 26 27 29 30 32 34 36 38 40 42 44 46 49 53 53 55 58 61 66 70 68 67 69 71 75 82 87 93 100 107 112 119 125 122
26 27 26 25 24 22 22 23 24 25 27 29 30 33 35 37 39 41 43 46 49 52 52 55 57 61 65 69 67 67 69 71 75 82 88 95 101 107 113 120 123 112 99
26 23 21 20 19 20 21 22 24 25 27 30 32 34 36 37 39 42 46 49 51 52 53 57 61 65 69 65 66 68 71 76 82 89 95 101 107 113 118 118 103 92 86
22 21 20 19 19 20 21 22 24 26 29 31 32 34 36 38 41 45 47 48 50 53 57 60 64 68 65 65 67 71 76 82 89 96 102 107 113 117 112 93 85 75 63
20 19 19 20 20 21 21 23 25 27 29 31 32 34 37 40 42 46 49 51 53 58 59 64 65 63 64 66 71 75 81 89 97 103 107 112 114 104 89 83 70 54 50
21 20 19 18 18 20 22 24 26 28 29 31 33 36 39 42 46 47 49 53 56 59 64 61 61 62 65 70 75 83 89 95 101 105 110 112 99 86 79 67 50 46 44
17 17 18 19 21 22 22 23 26 28 30 32 36 39 42 44 46 47 52 54 58 61 58 59 61 64 70 78 84 90 95 99 103 108 106 89 82 74 61 49 44 38 30
18 19 21 21 20 21 23 25 27 29 32 36 39 41 42 44 47 50 53 57 57 56 57 59 64 70 78 84 90 95 99 102 106 101 84 78 68 55 47 43 33 30 34
18 18 18 18 20 21 22 25 29 32 34 37 39 40 43 46 48 52 55 52 53 54 57 61 68 75 81 90 95 97 101 106 96 80 75 64 49 43 40 30 31 33 26
16 17 17 17 19 23 25 27 30 33 34 36 39 41 44 47 51 51 50 50 53 56 61 67 72 77 87 91 95 99 104 90 78 72 62 47 42 38 29 33 31 25 24
15 16 19 21 21 24 26 29 32 33 34 36 39 42 46 48 47 47 48 51 55 61 66 72 77 82 90 95 98 104 90 77 70 61 46 41 37 29 33 31 26 27 25
14 15 17 19 22 25 28 30 31 32 34 37 42 44 45 44 45 47 51 55 60 67 72 77 82 87 93 97 102 93 76 69 60 45 39 36 28 33 30 28 28 29 29
13 15 18 23 26 27 27 29 31 33 38 40 43 42 42 43 45 49 54 61 67 72 77 83 87 91 96 99 92 74 67 59 46 38 33 27 31 26 26 27 30 30 26

GFSMW_500_spd_030.txt.gz
Wind_Speed
35 40 42 41 40 37 32 31 33 31 27 27 28 28 30 29 27 26 28 29 30 32 33 35 34 32 33 36 37 39 40 41 43 45 47 46 42 41 42 45 47 49 50
37 38 38 38 42 38 35 32 33 33 27 27 28 28 31 30 28 28 29 30 32 32 33 34 33 34 36 38 40 41 43 45 46 47 44 40 43 45 47 48 50 53 57
41 42 38 36 39 40 35 35 33 33 30 28 28 27 28 30 33 31 31 32 33 33 34 35 36 37 39 41 43 44 46 48 49 47 46 46 44 45 45 50 55 58 61
41 42 40 36 36 40 38 35 33 33 33 29 27 27 28 29 32 33 34 34 34 35 37 39 40 40 43 44 45 47 49 48 47 48 49 50 52 53 53 54 57 61 62
43 42 39 38 36 41 39 36 34 33 32 29 27 27 27 27 29 31 33 34 35 37 40 42 43 44 45 45 48 49 49 47 48 50 51 54 58 62 64 62 62 61 65
44 41 39 38 37 39 37 36 36 33 31 29 28 29 28 28 30 31 34 35 37 39 42 44 44 45 46 48 50 49 49 49 51 53 56 59 62 65 68 66 65 65 65
45 42 39 37 37 38 36 36 37 34 32 30 30 30 28 28 30 33 34 35 38 42 43 44 44 46 48 49 50 50 51 52 54 57 60 64 68 69 69 70 70 70 70
42 41 39 39 41 39 38 38 36 35 32 31 29 29 28 29 31 33 35 38 41 43 43 43 45 47 49 49 50 51 53 55 58 61 65 67 68 71 73 74 74 73 72
41 40 39 39 41 40 39 38 36 35 30 31 30 30 28 30 34 35 37 40 40 40 42 44 47 48 49 50 51 53 56 59 62 64 65 69 72 74 74 74 76 79 79
40 37 39 39 37 39 39 38 36 35 32 32 32 32 31 32 35 36 36 37 39 41 43 46 47 49 50 51 53 56 60 62 62 65 69 73 74 73 74 76 79 83 88
34 36 40 40 38 41 40 37 36 33 33 32 33 33 33 32 32 33 35 37 40 42 45 47 48 49 51 54 57 59 60 62 65 70 73 73 73 74 77 80 84 89 96
34 35 40 39 41 40 38 37 35 33 33 32 33 33 31 31 32 34 36 38 41 44 46 47 48 51 54 57 57 60 61 66 69 73 72 72 74 76 80 85 92 98 104
33 37 42 41 39 36 36 36 34 34 33 32 31 31 31 32 33 35 37 40 42 44 45 48 50 53 55 57 58 62 66 69 74 71 72 73 76 81 88 94 99 105 110
36 37 38 38 37 36 36 37 35 32 31 31 31 31 32 33 34 36 39 40 42 44 46 50 52 53 55 58 62 65 69 72 70 70 72 77 84 90 94 99 105 111 116
34 34 32 35 36 35 34 33 31 29 29 30 31 31 32 33 35 36 38 40 42 46 49 51 52 55 58 63 65 70 70 67 68 72 77 84 89 95 101 107 112 114 109
31 28 28 31 31 32 32 31 29 28 29 29 29 30 31 33 35 37 39 41 45 47 51 53 54 59 62 66 70 68 67 68 72 77 83 89 96 103 108 112 111 101 92
28 27 27 29 29 28 28 28 26 25 25 25 27 29 32 34 36 38 41 44 47 51 52 53 58 62 65 69 65 66 67 71 75 83 91 97 104 109 113 106 93 82 70
23 22 24 24 24 24 23 21 20 22 24 26 28 30 32 34 37 40 44 48 50 51 53 57 60 65 65 63 64 66 71 75 82 90 98 105 107 112 105 92 77 60 51
19 19 19 19 17 17 18 20 21 23 24 27 29 31 33 36 39 44 47 47 49 53 56 59 63 60 60 62 66 71 76 81 88 95 103 106 112 105 90 76 56 45 40
18 16 16 16 18 20 20 21 23 25 26 28 30 32 34 39 42 44 45 49 51 55 59 59 58 58 61 66 71 76 81 88 94 100 106 110 102 84 71 55 44 36 34
13 15 17 20 21 21 21 22 23 24 26 28 31 34 37 40 42 44 47 49 54 57 54 54 57 60 65 71 76 82 88 95 99 105 107 97 79 67 53 44 36 36 36
14 17 18 19 18 18 19 21 22 25 28 30 32 36 38 40 42 44 48 52 52 51 52 55 59 65 71 76 81 87 94 99 102 104 89 75 63 50 43 36 35 35 28
17 15 16 16 17 17 19 22 25 27 29 32 34 36 37 39 43 48 49 48 48 50 54 58 63 69 75 79 86 92 97 101 100 80 72 61 48 41 35 33 34 28 31
13 14 14 15 17 20 22 24 27 29 31 32 33 35 38 43 45 46 45 46 49 53 57 62 68 72 79 86 92 97 101 97 76 66 59 46 39 34 33 32 29 33 32
13 16 17 17 18 21 23 25 28 29 29 31 34 38 40 43 42 43 44 48 53 57 61 66 72 79 86 91 98 101 95 75 65 58 45 37 32 32 33 34 36 33 32
12 13 15 17 20 23 25 26 26 28 29 34 37 39 40 40 41 44 48 52 56 61 66 73 79 85 92 96 101 91 73 65 57 48 35 30 30 31 32 31 31 31 32

GFSMW_500_spd_033.txt.gz
Wind_Speed
42 37 37 39 39 35 37 39 36 34 35 37 35 31 31 31 30 32 31 28 28 29 30 31 33 34 35 36 34 34 36 37 39 41 44 45 47 47 45 45 46 48 49
43 39 36 39 40 35 32 39 37 36 35 34 36 31 32 31 30 32 31 30 31 31 32 33 34 36 36 35 36 38 40 41 41 42 45 47 48 46 45 47 49 51 53
44 41 38 39 41 34 33 39 40 38 35 34 34 30 32 31 29 30 34 35 34 34 34 35 37 37 37 38 40 42 44 44 44 46 49 48 45 45 45 49 52 55 57
45 42 41 43 42 36 36 39 41 39 35 33 32 32 32 33 30 30 33 36 37 37 37 38 38 38 39 42 44 45 46 46 49 50 50 49 50 50 49 47 51 55 58
46 43 39 42 40 37 38 39 40 40 36 34 31 32 33 33 30 31 32 34 37 38 40 39 39 40 42 45 46 46 46 49 51 51 50 52 54 56 57 56 55 57 60
47 46 43 45 41 38 40 39 38 39 37 34 32 34 34 33 31 32 32 34 36 38 39 39 40 42 45 46 47 47 50 52 52 52 53 55 56 57 61 62 62 61 60
51 49 47 45 42 38 40 39 38 38 37 35 34 34 35 33 32 32 34 35 37 38 39 40 42 44 45 46 47 50 52 52 53 55 56 58 59 62 62 63 65 66 67
53 49 47 47 41 39 40 41 40 38 37 35 34 35 34 33 32 33 33 34 36 38 39 41 42 43 45 47 50 51 53 54 55 57 58 60 61 63 65 67 70 70 70
52 50 46 43 40 39 41 41 40 39 38 35 35 35 33 32 33 34 35 36 36 38 39 39 40 43 46 49 51 53 54 56 57 59 60 61 63 66 69 72 74 75 75
50 48 47 40 39 40 42 43 41 40 40 37 35 34 33 32 34 35 37 38 37 36 37 38 41 45 48 50 53 54 55 57 59 60 60 63 67 70 73 73 74 74 77
48 46 44 41 37 40 43 45 41 40 40 36 34 34 34 34 35 37 37 36 35 35 37 40 43 47 49 51 53 55 58 59 59 61 64 67 71 73 72 73 73 78 83
49 45 44 39 36 40 43 44 41 39 39 36 35 36 36 35 35 37 35 35 35 37 39 42 46 48 50 52 54 57 57 58 62 65 67 72 71 71 72 75 79 84 94
45 43 38 37 37 41 43 41 39 39 38 37 35 37 36 36 36 34 34 35 36 38 41 45 46 48 51 54 57 58 58 64 65 69 72 68 69 71 75 80 86 93 99
36 39 37 35 41 44 43 41 40 38 37 36 36 36 36 36 33 33 34 35 38 41 43 45 47 50 53 56 58 59 63 65 69 68 67 69 72 77 81 87 94 99 105
32 33 35 36 42 42 40 39 38 37 35 35 34 35 36 33 33 33 34 37 40 42 43 46 49 52 56 57 59 62 64 67 65 66 69 72 77 82 88 96 101 106 111
34 36 36 36 39 38 37 35 34 33 33 32 33 33 32 32 32 33 36 39 40 42 45 49 52 55 55 59 61 64 65 63 65 68 73 78 82 86 95 101 108 111 106
29 29 29 30 33 34 34 33 30 29 30 30 31 30 29 30 33 35 36 39 41 45 48 52 53 54 58 60 63 62 62 64 68 73 78 82 88 95 102 110 109 96 81
28 28 26 27 29 29 26 25 25 25 26 27 27 28 29 31 33 35 38 41 44 47 50 52 54 56 59 61 60 61 63 67 73 77 83 89 95 102 108 108 93 75 63
24 25 24 24 23 22 23 23 21 23 24 25 26 27 29 32 34 37 39 43 46 48 50 52 55 58 58 58 60 63 67 72 76 84 90 97 102 107 105 91 72 58 48
23 21 19 18 17 17 17 17 19 21 22 24 26 28 31 34 35 39 42 44 46 48 50 54 56 55 55 59 62 66 71 75 81 89 96 102 106 100 84 71 60 44 38
17 17 16 16 15 13 14 15 17 20 23 25 27 30 32 35 38 40 41 43 45 49 52 53 53 54 57 61 65 70 75 81 89 96 101 105 95 80 68 59 45 36 33
10 8 7 7 10 13 16 18 20 21 23 25 28 32 34 36 37 38 40 44 48 50 50 50 53 57 61 65 69 75 81 90 97 102 102 91 76 65 56 43 36 33 34
9 8 9 11 14 15 15 16 18 21 25 27 30 32 33 34 36 39 44 46 47 47 48 51 55 59 64 69 76 80 89 96 102 100 85 74 63 52 42 35 33 32 33
8 8 10 12 12 13 15 18 21 23 26 28 30 31 33 35 40 42 44 45 45 47 51 54 58 63 69 75 80 85 92 100 99 84 69 58 47 37 33 34 32 33 30
7 9 11 13 14 14 15 18 21 25 27 29 30 32 35 38 40 42 42 44 47 49 53 57 62 68 74 79 84 92 100 102 84 65 52 41 35 32 33 33 33 32 33
9 8 9 10 12 14 18 22 25 26 28 29 32 35 36 39 40 40 44 46 48 53 58 64 69 74 79 85 91 99 97 78 62 46 35 31 30 30 30 32 34 35 34

GFSMW_500_spd_036.txt.gz
Wind_Speed
50 48 44 39 39 40 42 41 42 42 43 40 37 35 34 37 36 37 35 36 37 37 35 34 34 34 33 35 36 37 37 36 35 37 40 43 45 44 47 50 51 50 48
51 53 50 44 40 40 43 41 39 43 45 41 38 36 35 38 38 35 34 34 36 37 37 36 35 35 35 37 39 40 39 39 38 40 44 46 46 47 51 52 52 51 52
50 51 53 50 42 41 42 41 40 41 47 44 40 38 38 36 36 36 34 34 37 39 40 39 37 37 38 40 42 42 42 42 43 45 47 47 47 49 50 51 52 55 57
53 51 52 53 44 41 44 42 37 39 45 44 41 38 38 37 37 36 36 36 36 38 40 40 40 41 43 43 44 44 45 46 47 48 49 50 52 52 50 49 53 55 57
52 52 51 54 48 44 44 44 37 37 44 43 42 40 37 36 37 37 34 35 38 38 39 39 41 42 44 45 46 47 47 48 49 50 50 52 53 54 56 55 54 56 57
53 53 52 53 50 48 46 44 37 40 44 43 43 40 37 37 38 34 33 37 38 38 38 40 41 42 43 45 47 47 48 48 50 51 53 54 55 57 58 59 60 59 57
53 52 53 52 50 47 45 41 39 40 41 41 41 40 39 38 37 35 35 36 38 39 41 42 42 43 44 45 46 47 48 49 52 53 54 56 58 59 61 63 64 64 63
52 51 54 53 51 48 47 40 40 40 40 39 39 39 39 38 36 37 37 38 38 40 41 42 42 42 43 44 45 47 49 52 53 55 56 58 60 61 62 63 66 68 69
50 50 51 55 52 49 46 40 42 42 41 40 38 39 39 36 36 37 37 37 37 38 41 43 43 42 43 43 45 48 52 53 55 56 58 60 61 61 64 68 69 70 72
49 48 48 51 52 49 45 41 42 43 43 42 40 41 39 36 36 37 37 38 37 38 39 41 41 41 42 44 47 50 53 55 56 57 59 62 62 65 68 69 72 71 73
46 47 44 45 51 47 44 41 42 43 43 41 40 40 38 36 35 36 38 38 39 39 40 40 40 41 43 46 49 52 54 55 57 59 61 62 66 67 71 72 70 70 73
46 46 41 44 44 43 41 41 42 43 44 42 41 41 38 36 36 38 38 39 40 41 40 39 40 42 45 49 51 53 54 56 59 62 62 66 67 70 69 69 71 74 78
48 47 42 41 40 39 38 41 44 43 44 42 40 40 38 37 36 38 40 40 41 40 39 40 42 45 48 50 52 54 56 59 61 63 65 68 69 68 69 72 75 79 84
48 47 45 40 40 37 38 39 43 43 43 41 41 40 39 37 36 37 39 40 41 39 40 41 44 47 49 51 53 56 59 60 63 65 68 67 67 69 73 76 80 86 93
45 44 43 39 38 35 36 41 43 42 41 41 40 38 38 36 36 36 38 41 39 39 41 44 47 48 51 53 56 58 60 62 64 66 66 67 69 73 77 81 87 94 101
37 39 38 34 32 34 38 40 40 39 39 40 39 38 35 35 33 37 38 37 38 40 43 46 47 49 52 55 58 60 61 64 64 65 67 70 73 77 83 89 96 103 110
34 33 36 33 31 32 35 35 36 36 36 35 35 33 32 33 35 33 35 37 40 42 44 46 48 51 54 57 59 60 62 62 64 67 70 74 79 84 90 96 103 109 109
27 29 32 31 29 30 32 32 30 30 29 29 28 30 30 30 31 33 36 38 40 42 44 47 51 53 55 56 60 60 61 63 66 70 75 80 86 91 95 102 108 105 88
25 23 22 22 20 20 23 25 26 25 25 25 26 28 29 29 31 33 35 38 40 43 47 49 52 53 56 58 58 60 63 65 69 74 80 85 90 96 102 110 104 81 66
24 22 19 19 21 21 22 23 25 26 27 25 24 24 26 28 30 32 35 39 43 46 48 49 51 54 55 57 59 62 64 68 73 80 86 91 97 104 109 99 77 61 50
26 23 23 24 24 24 24 23 21 20 20 20 21 22 25 28 31 35 39 41 44 45 47 51 52 54 55 57 60 63 68 74 79 85 91 97 104 106 88 71 57 44 37
14 12 13 14 14 15 13 9 9 12 15 18 21 24 28 31 34 37 39 40 42 46 48 50 52 55 56 59 63 68 74 79 84 91 95 104 100 76 62 48 39 36 36
10 8 7 6 4 2 4 8 12 15 18 21 24 27 29 32 34 35 37 41 44 47 49 50 52 54 57 62 68 73 79 83 90 96 102 89 68 54 41 37 37 37 35
2 1 2 3 5 8 11 13 15 18 19 21 24 27 29 30 32 36 41 43 46 48 48 49 51 56 61 66 72 76 81 87 94 98 79 62 45 36 37 37 37 38 38
3 4 4 7 8 10 12 12 13 16 20 23 25 27 29 32 36 39 42 45 45 46 47 50 55 60 65 69 75 80 86 92 94 71 56 37 34 35 36 37 39 41 41
4 4 4 5 6 8 11 15 18 21 23 24 26 28 32 34 38 41 42 42 43 46 50 55 60 66 69 76 81 86 91 89 68 48 32 32 33 34 36 38 39 39 36

GFSMW_500_spd_039.txt.gz
Wind_Speed
40 42 41 44 47 45 42 42 43 43 44 43 45 46 44 39 35 38 39 38 36 38 38 41 39 40 40 39 39 39 38 38 40 40 40 40 40 40 43 44 47 48 50
45 46 47 46 46 48 45 43 44 45 45 44 46 49 48 40 39 39 38 38 38 36 37 39 40 42 42 41 41 40 40 41 42 42 43 44 44 44 47 48 50 52 52
48 49 51 50 49 48 50 44 45 45 45 45 46 50 47 41 42 39 38 39 40 39 38 38 39 42 42 44 44 43 44 44 45 45 47 48 48 48 49 50 53 54 54
56 53 53 53 54 51 51 50 47 47 47 45 45 46 46 46 42 41 41 40 41 41 40 38 38 40 43 44 46 47 47 47 47 47 49 51 52 52 51 52 53 53 55
60 61 57 56 55 54 52 54 49 50 50 42 41 45 46 43 42 41 42 42 42 40 39 38 39 41 42 44 45 46 47 47 47 48 49 50 52 53 54 53 55 57 58
60 61 59 56 57 56 54 52 52 49 51 42 40 45 44 39 40 42 43 42 40 41 39 40 41 42 43 45 46 47 47 47 47 48 49 51 52 54 57 58 57 58 57
64 62 61 56 57 56 54 52 53 49 48 44 42 44 43 41 41 42 43 40 39 40 40 40 42 44 45 46 47 47 47 47 47 49 50 50 53 55 58 61 62 63 61
49 57 62 60 55 55 53 53 53 50 48 44 42 44 42 42 41 42 41 40 40 41 41 41 42 44 45 45 46 47 47 48 48 49 51 53 55 58 60 62 65 66 65
53 43 53 61 54 53 52 52 51 49 46 45 44 41 43 41 41 42 40 39 38 38 40 41 42 43 43 44 45 46 47 47 48 51 53 55 58 60 61 64 67 70 71
51 51 39 58 53 51 52 52 51 48 45 45 42 42 44 42 40 40 39 39 39 39 40 41 41 42 43 44 46 45 46 48 51 53 56 58 60 62 64 67 68 70 72
42 47 44 55 50 51 51 52 49 46 44 44 43 44 44 43 40 40 39 40 39 39 40 41 42 43 45 45 45 46 48 51 54 56 57 60 62 64 67 69 70 72 73
39 36 45 51 48 49 47 52 48 44 43 44 46 45 44 41 39 40 39 40 40 41 40 42 42 44 46 45 46 47 50 53 56 57 60 63 65 67 68 70 71 72 73
35 33 49 47 45 45 43 46 44 41 42 45 46 44 42 41 40 40 39 39 40 42 43 42 43 46 45 46 47 50 53 55 57 59 63 65 67 68 70 71 72 73 76
32 41 45 45 40 42 39 41 38 40 43 44 45 43 42 40 40 38 38 39 41 41 42 43 47 44 45 47 50 53 54 56 59 62 64 66 68 69 70 72 74 77 81
33 35 40 44 36 39 35 38 37 38 41 43 42 42 41 39 37 36 38 40 40 42 44 46 42 44 46 49 51 53 55 58 61 63 65 68 68 69 71 75 78 83 89
28 23 40 41 33 33 33 35 36 36 37 39 41 39 38 36 34 35 33 42 39 48 45 40 44 44 47 49 52 55 58 60 62 65 65 67 69 71 75 80 85 91 97
16 23 36 34 29 32 30 30 30 31 34 38 35 33 32 34 35 39 38 39 46 39 41 41 43 45 47 51 54 57 58 61 63 64 66 68 72 76 81 86 91 97 104
21 29 26 27 27 29 29 29 28 29 30 29 28 29 28 35 37 37 42 39 38 39 39 41 43 46 50 53 55 56 60 61 63 64 67 71 76 82 86 90 96 102 107
25 25 27 26 24 23 22 22 21 20 20 22 24 25 30 32 36 38 38 36 37 38 38 42 45 48 51 52 56 57 59 60 61 66 70 75 80 86 91 96 102 103 87
21 20 22 17 15 13 12 13 14 14 18 26 25 33 35 37 36 34 35 33 34 37 41 44 47 49 52 54 56 57 58 60 64 70 75 81 87 92 98 101 97 78 58
17 17 15 15 15 15 23 19 25 27 32 35 34 32 30 29 28 27 29 33 37 40 42 44 47 50 52 54 54 57 60 65 70 73 79 86 93 98 99 90 71 49 43
18 18 19 20 21 23 26 29 29 27 26 22 20 21 21 22 25 29 32 35 38 40 43 46 49 51 51 51 54 59 65 70 73 79 86 92 98 95 82 60 44 46 45
11 9 8 10 10 11 10 9 10 11 14 14 15 18 22 25 28 31 33 35 38 42 45 47 48 48 50 54 59 64 69 73 80 85 93 97 91 71 48 44 44 44 45
8 7 8 6 6 6 7 7 8 10 12 15 17 21 24 27 29 31 34 38 41 43 44 43 45 48 53 59 63 67 72 79 84 92 94 84 59 40 41 42 44 46 46
5 4 3 2 2 2 4 6 8 11 14 18 20 23 25 27 30 33 36 39 40 40 40 44 48 53 58 62 67 72 79 85 92 89 74 49 37 38 40 43 44 43 42
2 2 2 2 3 4 7 9 12 16 18 21 23 25 27 29 32 35 37 37 37 39 43 48 52 57 61 67 75 81 86 93 85 64 40 31 33 37 39 40 41 41 41

GFSMW_500_spd_042.txt.gz
Wind_Speed
36 35 33 33 33 34 37 42 46 43 40 40 40 40 40 40 37 39 38 33 39 36 38 37 37 36 39 40 41 41 41 41 41 41 41 41 41 42 42 42 43 43 43
39 38 39 39 40 39 40 41 43 49 46 44 42 43 44 39 39 38 39 37 40 37 39 38 37 39 37 41 42 42 42 43 43 43 44 44 43 45 46 46 47 48 47
46 47 47 47 47 46 45 45 45 47 52 46 48 45 43 39 40 40 41 40 39 39 40 38 38 38 36 41 41 42 43 42 45 47 48 48 48 48 48 47 48 48 49
53 53 54 55 55 55 52 50 49 49 52 54 49 47 44 41 41 42 42 40 41 42 41 40 39 39 37 41 42 40 38 43 45 48 49 49 51 51 50 49 48 49 50
60 61 62 63 64 62 60 55 53 52 51 56 50 48 47 40 41 43 42 41 43 44 43 40 40 41 40 41 41 42 45 45 45 47 47 49 52 52 51 49 49 51 53
61 62 61 61 59 60 62 60 57 54 52 53 52 50 48 44 41 44 42 41 43 44 42 40 39 40 41 41 41 42 44 46 46 47 48 49 51 52 52 50 50 51 52
57 54 48 48 54 59 55 59 59 57 53 51 51 50 50 46 43 41 44 42 42 42 43 39 39 42 39 41 41 42 43 45 46 48 48 49 51 51 52 54 56 56 55
51 49 49 43 37 37 54 55 57 59 52 49 50 50 47 48 43 40 44 42 42 41 42 41 40 40 42 41 41 41 43 44 46 47 48 49 50 52 54 57 59 59 60
52 57 57 53 47 40 37 49 55 56 51 51 51 51 48 46 44 42 43 43 42 41 40 40 40 41 41 41 40 41 43 45 46 48 48 49 52 54 56 58 61 65 67
54 55 55 51 51 51 44 45 51 56 51 52 51 50 46 44 44 43 44 41 43 41 39 39 39 40 42 42 42 43 45 47 48 47 49 52 54 56 58 61 63 66 69
50 47 46 42 48 52 46 40 50 55 51 52 50 45 44 44 45 44 42 41 40 41 39 38 39 40 42 43 43 45 49 49 48 49 51 54 56 58 61 64 66 67 69
49 43 41 37 38 39 42 43 49 51 50 47 42 43 44 44 44 42 40 40 40 40 39 36 39 47 38 43 47 48 53 47 49 52 54 55 58 61 63 65 65 68 70
37 42 39 37 34 35 36 43 47 47 44 40 39 41 42 41 40 39 40 40 39 37 37 37 39 43 46 46 47 53 48 48 51 53 55 58 61 63 64 66 68 69 69
40 39 34 33 37 36 36 40 41 38 40 38 38 38 39 38 40 40 39 39 36 36 34 40 40 45 44 48 51 49 47 50 53 55 58 61 62 63 66 66 67 67 70
30 24 22 30 33 33 34 33 38 36 38 38 36 36 37 40 38 36 36 34 34 35 38 43 41 42 47 48 45 45 49 52 55 58 60 61 64 65 65 65 67 70 73
11 15 20 18 20 24 30 27 31 33 36 35 33 34 36 35 32 33 33 34 34 34 38 34 45 45 47 43 45 49 50 54 57 58 60 62 63 63 65 69 73 77 83
7 7 8 9 20 23 25 27 27 28 29 28 30 30 29 29 31 32 32 26 31 41 44 48 45 41 43 45 45 50 53 55 56 59 60 60 62 65 70 73 77 84 91
11 10 9 18 20 24 23 22 22 23 25 25 24 24 27 28 28 25 34 30 37 42 44 42 42 41 41 45 49 52 53 56 57 58 59 61 65 69 73 77 84 94 98
20 19 22 18 21 21 18 17 17 17 19 19 20 23 22 22 23 25 34 36 41 43 44 41 39 41 44 47 49 51 54 55 55 58 61 66 70 75 80 84 92 98 102
22 24 19 18 18 18 16 14 12 13 13 13 16 18 20 35 41 31 34 43 41 39 36 37 41 43 45 47 51 52 53 52 55 61 66 71 76 83 88 92 102 99 79
18 20 17 12 11 11 13 12 15 15 14 17 32 32 37 29 34 32 34 33 32 34 37 39 40 43 46 48 49 49 52 55 59 64 68 76 84 88 94 101 91 63 47
14 17 17 7 9 24 23 17 26 22 21 17 20 28 29 33 30 30 29 30 33 35 36 38 42 45 46 45 46 50 55 60 64 69 74 84 89 96 96 74 49 46 47
4 7 10 8 6 9 12 13 15 21 25 24 19 21 25 25 25 27 29 31 33 35 38 41 42 42 43 46 51 56 61 65 71 76 83 88 95 84 57 41 42 43 43
11 10 8 6 6 8 8 7 8 10 13 15 16 18 21 23 25 28 29 31 34 37 39 38 39 42 46 51 55 60 66 69 75 83 85 91 71 41 34 37 36 38 43
8 8 7 6 4 4 4 5 7 9 11 14 17 20 22 24 26 28 30 33 35 34 35 38 41 46 51 56 59 64 70 77 83 87 84 59 34 31 32 31 35 39 43
5 5 4 3 3 2 3 5 8 11 14 16 19 21 23 24 26 29 31 31 31 33 37 42 47 51 56 59 64 72 79 84 86 78 52 28 26 26 26 31 36 41 44

GFSMW_500_spd_045.txt.gz
Wind_Speed
36 35 33 34 34 35 36 34 35 35 34 38 38 43 41 40 39 35 31 31 30 39 36 36 34 34 35 35 36 39 38 38 38 38 40 41 41 42 41 41 42 43 45
40 40 40 40 39 38 39 38 37 36 36 36 40 45 46 44 43 38 35 34 31 38 38 38 34 36 35 34 36 35 36 38 39 39 40 41 44 43 44 45 47 47 48
44 44 45 44 43 43 43 43 43 43 41 40 41 43 46 47 46 41 37 38 37 36 36 36 36 36 36 36 34 37 38 39 41 40 42 40 42 43 44 45 47 48 49
42 44 45 47 48 48 49 50 49 49 49 47 44 46 47 50 49 45 43 40 38 37 36 35 38 38 38 38 36 36 38 40 44 42 45 42 44 44 45 46 47 48 48
49 52 54 55 56 57 57 55 55 55 54 53 49 47 49 51 52 47 45 40 40 41 39 39 38 39 40 39 36 36 38 40 42 39 40 43 44 46 46 47 49 48 49
56 57 58 60 62 63 63 65 65 61 59 57 55 51 49 46 51 51 47 44 43 43 41 41 39 39 39 38 38 39 40 39 41 40 41 42 44 45 46 47 48 47 47
55 56 57 59 58 59 62 64 64 61 61 61 60 56 50 45 47 54 50 47 45 44 43 41 39 39 41 40 40 40 38 39 40 40 41 42 44 47 49 50 50 48 48
48 49 50 50 51 47 44 41 41 47 58 59 58 54 50 48 48 55 52 48 47 44 43 42 39 40 42 40 40 40 38 39 41 41 43 45 47 50 51 51 52 52 54
49 51 51 52 54 55 53 50 46 44 42 51 58 55 46 52 51 51 49 51 48 44 43 42 40 41 42 41 40 40 41 42 43 43 43 47 51 51 52 53 56 58 58
48 51 47 46 48 44 52 53 51 49 44 40 50 54 48 52 52 49 48 48 48 44 43 40 42 42 43 41 42 42 42 42 41 47 47 51 54 52 53 56 58 60 62
55 57 51 46 45 45 46 46 52 51 49 41 41 52 49 49 48 46 46 47 45 42 40 41 41 41 41 41 43 39 47 43 47 49 51 55 54 54 56 57 60 63 65
49 52 51 45 41 44 46 44 49 53 49 44 41 47 43 45 45 46 47 45 42 40 39 40 39 40 38 42 44 42 45 48 51 52 53 56 54 56 58 60 63 65 65
51 47 43 38 36 39 43 43 41 50 47 49 43 45 43 43 44 46 45 41 39 38 38 37 35 35 41 37 42 45 45 53 53 52 53 54 56 58 60 63 64 66 67
30 33 32 32 32 33 38 38 31 33 40 36 38 40 39 41 41 41 39 36 35 35 34 35 36 37 47 38 47 48 50 54 55 52 54 57 57 60 61 62 65 65 64
26 20 17 18 19 21 23 23 21 28 26 32 33 35 37 37 35 33 32 32 32 34 35 37 34 29 39 41 46 49 53 54 51 53 55 57 59 60 63 64 63 64 67
12 9 4 2 4 6 6 9 14 23 26 28 32 34 32 28 28 29 30 27 32 33 34 35 34 41 46 45 54 54 50 52 53 53 56 57 60 61 61 62 65 69 72
7 4 4 6 9 11 11 15 20 22 25 29 29 27 24 24 23 19 29 28 24 33 35 38 51 37 46 47 47 49 50 49 52 53 56 58 59 59 61 65 69 73 79
9 7 7 7 7 12 16 18 21 22 23 23 23 23 22 20 25 22 21 23 36 37 36 36 45 45 46 46 46 46 49 51 53 56 56 56 57 62 65 69 74 79 86
12 11 10 11 15 18 22 17 15 17 19 18 16 18 18 16 18 25 22 32 33 35 45 43 42 49 44 43 46 48 50 53 54 54 54 58 62 65 69 74 80 88 96
14 16 17 20 21 16 14 13 13 13 13 15 15 12 12 20 23 29 31 29 38 37 47 45 45 39 42 45 46 49 51 51 50 54 58 61 65 70 76 83 89 95 94
8 13 14 14 13 14 14 16 15 15 13 20 20 19 18 20 25 27 32 30 31 34 37 35 39 40 43 46 48 49 48 50 53 57 61 64 70 77 84 89 94 84 54
3 8 9 7 10 9 9 11 7 15 16 12 13 14 18 17 18 22 26 27 27 30 33 36 39 41 43 45 45 47 50 53 57 61 64 70 77 85 90 90 70 44 39
6 8 11 13 10 12 14 8 6 3 10 9 6 10 12 15 20 23 25 27 30 34 36 38 40 42 42 43 46 49 54 58 62 67 74 79 85 90 86 58 36 33 37
9 6 2 1 2 3 4 5 2 3 4 6 9 11 14 18 21 25 29 31 33 34 36 38 38 39 42 45 50 54 59 64 69 75 82 85 90 80 47 31 28 33 40
2 3 3 4 3 3 2 3 3 4 7 9 13 16 20 23 25 27 28 29 32 34 34 35 38 42 47 52 56 60 65 69 75 83 88 88 67 37 26 24 30 37 43
2 1 1 4 4 3 1 3 6 9 12 15 17 19 20 21 24 26 28 30 30 32 36 40 44 49 53 57 61 67 73 77 84 90 82 57 29 20 18 25 32 39 44

GFSMW_500_spd_048.txt.gz
Wind_Speed
39 38 37 35 37 39 40 38 40 38 36 36 35 35 36 38 36 37 35 33 31 33 37 34 33 33 34 34 33 34 34 35 36 37 36 36 37 37 39 40 41 45 42
40 40 40 40 41 41 42 43 42 41 39 37 36 36 39 41 39 38 37 36 33 35 40 37 35 33 34 35 34 35 35 36 36 35 36 38 39 39 39 43 42 42 42
43 42 43 44 45 45 44 43 45 45 43 42 41 38 38 39 39 39 40 40 36 40 42 40 36 35 35 34 34 35 36 36 37 38 38 38 40 42 42 44 39 42 44
42 44 45 47 47 47 46 45 46 47 48 48 48 46 43 41 41 45 47 47 43 45 45 43 41 37 36 35 35 36 37 36 37 39 40 40 41 40 41 40 42 42 44
42 44 45 46 47 48 49 49 50 50 52 53 53 53 51 49 46 48 50 49 45 46 44 43 41 40 39 37 36 36 37 35 36 38 40 40 39 40 39 40 42 42 44
44 45 46 48 50 53 55 57 59 59 60 60 59 59 57 55 54 48 51 51 49 49 47 45 44 42 41 41 39 38 38 38 38 39 40 41 41 42 42 42 43 44 47
49 51 53 55 57 59 61 62 64 65 65 65 65 64 62 62 61 57 50 52 53 51 49 48 46 45 43 43 41 41 41 40 40 41 41 42 43 44 45 45 45 46 49
50 52 55 57 57 54 53 54 57 62 64 64 64 65 65 65 63 59 50 53 54 53 51 50 47 46 45 44 43 43 41 41 41 41 42 43 42 43 43 50 51 51 52
45 46 47 49 51 51 52 53 57 58 58 58 55 57 59 60 59 57 52 53 55 55 51 51 49 48 46 44 44 43 42 43 44 44 43 44 45 46 50 52 53 53 56
41 43 47 51 50 51 49 53 55 55 58 56 50 44 40 43 54 57 54 54 53 53 51 51 52 49 47 45 43 43 37 48 44 44 45 43 45 50 53 58 59 60 63
47 52 58 60 57 57 49 51 55 54 54 55 58 54 47 44 45 50 54 53 51 50 49 51 49 46 47 44 42 41 44 45 44 47 41 49 49 55 60 60 63 64 62
53 54 58 59 58 49 45 46 51 50 50 53 53 56 54 47 42 47 52 52 50 48 48 48 46 45 42 41 40 42 47 43 40 46 49 52 51 59 62 64 64 63 66
57 51 39 41 41 42 42 40 43 43 43 45 46 54 57 48 42 44 49 49 48 46 44 43 42 40 38 37 34 52 45 48 44 50 52 54 58 63 62 61 63 64 65
51 40 32 31 30 27 29 31 34 34 44 46 46 52 57 49 43 44 46 47 43 40 40 39 38 37 36 37 39 42 47 54 43 56 56 64 61 58 60 62 63 64 66
38 30 22 19 20 20 21 25 27 29 39 36 35 43 46 43 39 41 41 39 35 35 35 35 36 34 34 37 42 39 41 42 55 61 63 61 58 60 60 61 64 65 65
34 24 21 12 9 10 11 14 17 17 23 24 28 34 30 29 31 35 33 29 31 29 32 30 28 34 30 44 45 48 47 48 55 60 59 60 59 59 61 63 64 63 65
28 27 18 10 3 2 8 12 13 16 18 20 23 24 26 27 28 27 25 28 28 26 29 28 37 33 33 40 43 43 47 53 54 56 56 57 58 61 61 61 63 66 70
24 20 16 7 3 2 3 8 18 19 17 16 19 22 24 23 22 24 24 20 22 22 28 32 32 36 40 47 50 53 51 49 51 54 56 59 59 58 59 63 66 70 75
22 20 15 10 7 7 7 9 11 15 18 22 23 24 24 23 16 14 17 26 25 23 33 30 38 40 40 46 58 56 52 51 54 57 57 55 56 59 62 66 69 75 82
17 17 19 18 17 18 19 18 15 14 14 14 19 22 16 19 16 21 26 28 21 21 26 31 33 44 49 55 48 47 50 55 55 55 54 56 59 63 67 72 76 82 89
11 10 13 13 12 10 8 6 9 12 14 8 11 10 13 16 16 11 16 18 20 27 32 33 33 37 40 44 48 51 51 52 51 53 56 61 65 69 74 78 84 88 91
8 12 12 4 9 8 12 9 10 6 7 9 5 8 11 14 13 18 20 22 25 27 29 31 34 37 40 42 45 47 49 52 55 58 63 66 70 75 80 85 89 84 55
8 7 9 10 15 4 8 11 12 4 2 5 1 3 5 8 11 14 18 21 24 28 30 33 35 38 41 43 45 49 53 57 61 65 70 73 78 83 87 88 77 44 33
7 8 8 9 9 8 4 7 8 7 5 3 4 5 8 11 14 18 22 24 26 29 33 35 37 37 40 44 49 54 59 63 68 73 78 82 85 87 84 62 31 27 32
8 7 7 6 5 4 3 3 4 5 4 5 7 10 13 17 20 22 23 25 27 28 29 31 35 40 45 50 54 59 65 71 76 81 85 88 87 70 40 20 20 27 34
8 8 5 5 5 5 6 6 7 9 10 12 14 16 17 17 18 20 23 24 26 28 32 35 40 44 49 54 60 67 73 79 86 90 87 74 49 25 12 13 21 29 36

GFSMW_500_spd_051.txt.gz
Wind_Speed
39 41 42 39 37 40 41 42 43 42 41 41 41 41 38 38 37 36 36 36 33 33 34 36 37 36 34 34 33 35 36 36 37 37 36 35 35 35 35 36 37 39 40
41 42 45 45 42 41 42 44 44 45 45 43 42 42 42 42 42 40 38 37 35 36 38 38 41 39 37 36 35 35 35 35 35 36 37 36 38 39 38 38 38 38 40
41 43 45 46 47 44 42 43 46 48 49 48 47 45 44 42 41 41 38 36 38 41 42 42 43 42 41 39 39 38 37 35 35 37 38 38 38 39 39 39 40 41 41
44 44 44 46 47 47 46 46 47 49 50 51 51 49 45 44 43 44 43 43 41 41 42 45 47 45 46 46 42 41 36 37 37 38 37 37 37 39 39 37 38 40 40
40 41 43 45 46 47 48 49 50 50 50 52 53 53 52 50 47 46 46 45 46 46 44 46 47 48 47 44 43 41 40 39 40 39 39 39 38 41 39 40 41 42 42
37 39 41 42 45 47 49 50 51 51 52 53 54 55 55 55 55 52 53 54 51 52 51 50 50 49 49 49 48 46 44 40 41 43 42 41 41 41 40 41 42 42 44
39 42 44 46 47 49 51 54 56 57 58 58 58 58 58 59 59 59 58 60 58 54 54 54 53 52 51 51 49 48 48 44 43 45 45 43 43 41 41 44 44 45 44
41 44 46 48 52 54 56 59 62 63 64 65 65 66 65 66 65 65 65 64 64 62 56 58 57 54 52 51 50 50 49 46 47 46 47 47 46 41 44 45 47 46 47
42 45 47 51 54 56 58 58 57 59 60 62 63 64 65 66 66 67 68 69 68 63 59 57 58 57 56 52 52 52 50 48 48 48 48 47 45 47 44 48 44 51 53
38 43 46 48 49 50 53 55 56 55 57 60 62 64 64 62 61 61 63 66 67 63 59 58 58 57 57 55 53 52 52 49 49 48 47 48 44 46 47 45 51 56 57
40 43 46 50 55 60 64 64 64 62 63 62 60 59 61 59 57 54 53 55 60 63 58 56 55 57 57 55 52 52 51 49 48 46 51 45 51 48 49 53 57 56 58
35 35 40 47 54 61 62 61 61 58 62 64 62 61 60 61 59 55 52 48 45 46 49 55 56 57 54 51 50 49 48 47 44 47 46 54 44 54 60 62 64 60 69
30 36 43 52 56 44 40 46 49 56 58 54 54 58 59 56 59 59 56 52 50 44 43 49 50 52 50 47 46 45 44 42 43 44 45 51 52 59 58 64 67 68 69
31 36 42 49 38 32 36 39 39 42 40 43 45 46 50 51 51 55 55 55 50 43 43 44 46 45 43 42 40 41 39 43 42 41 51 51 57 55 57 61 67 70 67
29 35 37 43 26 29 30 27 25 27 26 27 32 32 37 40 44 47 49 48 43 44 43 41 39 36 37 38 37 37 38 38 44 49 54 57 56 61 65 65 64 64 65
28 32 31 35 25 22 23 18 17 13 14 21 25 23 24 29 34 41 39 38 37 38 36 32 31 32 35 37 39 32 45 46 44 48 52 51 55 59 61 62 63 66 67
25 28 26 27 25 20 16 11 4 7 9 9 12 17 20 18 22 26 27 27 26 27 27 31 32 32 31 38 38 43 45 52 49 54 60 61 63 60 61 64 65 65 65
20 26 24 19 19 18 12 7 10 3 5 4 10 15 15 19 22 24 23 23 26 26 29 29 28 31 29 33 36 39 40 42 49 54 58 58 60 65 67 64 62 65 69
16 19 22 23 18 18 13 8 4 1 4 3 6 12 9 17 20 19 22 20 25 25 28 31 26 23 26 35 35 38 41 52 53 52 55 60 61 62 61 64 68 71 76
15 12 14 19 18 17 16 16 9 2 4 3 4 10 14 17 15 12 16 20 19 18 17 23 29 28 32 37 41 44 46 48 53 57 59 61 62 64 67 70 73 76 80
11 14 9 11 11 12 11 10 10 13 11 8 6 8 6 4 8 7 10 11 12 14 20 23 25 32 37 38 41 44 46 49 51 54 57 61 64 68 71 75 78 81 85
9 9 11 15 6 16 15 12 9 7 9 8 6 5 2 3 5 8 10 12 14 19 21 23 27 30 34 37 40 42 44 48 52 57 61 66 70 75 79 81 85 88 82
10 11 11 10 8 6 9 9 7 7 6 5 6 4 3 3 5 9 12 14 16 19 22 24 27 30 33 35 38 43 47 52 58 64 70 75 80 83 87 89 84 61 36
9 9 9 9 9 7 7 8 9 8 6 5 7 6 6 7 10 12 14 16 17 20 23 25 27 29 32 36 41 47 53 59 66 74 80 85 88 89 80 62 34 17 17
11 9 7 6 7 7 8 9 9 8 7 7 8 9 10 12 13 15 17 19 21 22 22 24 27 30 35 41 47 53 58 65 75 82 85 83 73 58 33 14 7 13 20
10 6 4 5 6 7 8 9 9 9 10 12 13 15 15 16 17 18 19 20 20 21 24 27 31 35 41 45 50 55 65 73 78 73 70 58 36 14 5 6 11 19 24

GFSMW_500_spd_054.txt.gz
Wind_Speed
44 44 43 43 42 41 40 41 42 42 41 42 42 42 44 43 42 40 40 39 38 35 34 33 35 36 36 35 34 33 34 35 35 34 35 35 35 34 35 37 37 38 37
44 43 44 45 44 42 42 42 43 46 45 43 45 44 44 46 44 44 43 42 40 39 38 37 39 38 38 37 36 37 38 38 39 38 38 35 34 34 35 35 36 37 37
42 43 45 45 45 44 44 45 45 47 49 48 46 47 46 46 47 45 43 44 44 44 44 44 43 41 40 40 40 41 42 39 41 40 41 36 35 35 35 34 35 37 38
40 40 41 43 46 46 46 47 47 47 49 51 50 47 47 47 46 48 49 49 49 46 46 44 42 40 41 41 42 42 43 42 40 42 39 38 38 39 38 37 36 37 38
37 36 37 39 42 45 46 46 49 51 51 52 54 54 53 50 49 48 49 50 49 46 46 46 45 44 43 43 44 45 45 46 45 43 42 42 42 42 42 42 40 39 39
35 36 38 39 41 43 44 46 47 50 53 55 57 59 59 58 56 52 50 48 49 49 48 49 48 49 49 48 48 48 49 48 48 48 49 47 44 44 44 45 45 44 41
35 37 37 38 39 42 44 46 48 50 52 55 56 57 58 59 60 60 58 55 53 52 51 51 49 49 53 53 52 50 50 51 51 50 51 50 47 45 46 46 47 48 43
34 35 37 40 43 46 48 51 53 56 57 59 61 61 62 61 62 62 61 61 59 58 57 57 55 55 55 59 56 54 53 53 52 52 52 52 50 48 47 47 46 49 45
32 35 39 41 44 48 51 53 56 58 60 63 65 67 68 68 68 68 67 66 66 65 64 63 63 59 57 53 57 58 58 57 53 53 55 53 52 51 49 52 53 50 50
34 37 39 40 43 45 48 51 54 56 58 59 61 64 67 69 71 71 71 71 70 69 68 66 63 56 60 60 60 62 63 60 57 53 54 54 53 53 49 50 58 52 58
30 31 34 37 41 42 43 45 50 55 60 62 66 68 67 67 68 70 70 67 66 67 66 65 62 62 60 59 59 61 61 57 54 52 52 53 53 50 54 58 57 52 54
31 33 34 31 35 39 46 51 56 60 61 59 61 64 71 68 66 64 62 62 62 60 56 54 53 54 58 56 63 58 56 54 51 51 52 52 49 51 50 56 54 53 56
25 25 28 32 36 42 44 46 45 48 54 57 53 52 54 63 61 64 63 59 55 56 55 51 49 47 48 47 52 50 50 51 51 48 47 48 49 52 53 54 55 59 60
25 27 30 31 35 37 41 36 39 47 44 36 37 37 36 40 47 55 57 59 55 53 54 52 50 45 40 41 43 44 44 45 45 46 47 42 47 52 62 52 60 58 58
21 24 26 27 31 31 34 31 38 41 27 26 23 22 26 28 29 34 38 42 46 48 48 52 49 41 37 37 38 39 41 44 46 46 43 42 54 57 59 55 59 66 67
19 23 24 24 26 28 28 24 31 31 17 12 14 11 11 10 13 16 23 30 29 33 39 39 33 34 37 36 38 39 44 45 41 42 56 48 53 53 58 61 64 64 65
18 20 21 23 23 25 23 19 23 18 12 7 3 1 2 8 11 14 11 13 19 24 27 28 29 35 36 35 39 39 41 41 47 40 40 43 50 55 60 64 65 66 66
16 14 16 18 23 22 22 19 18 19 17 13 8 5 5 6 6 9 9 14 15 19 24 30 30 30 31 30 33 35 38 34 36 41 43 47 53 56 59 61 62 64 68
15 15 13 16 19 20 21 21 17 14 11 13 12 4 5 6 4 11 7 13 14 18 24 22 23 28 26 29 26 28 31 36 40 44 47 50 52 55 58 61 65 70 75
14 11 12 15 13 13 18 20 20 20 18 15 12 7 5 5 4 5 9 12 13 11 10 17 21 17 21 26 30 33 38 40 43 45 47 49 53 57 62 67 72 78 83
13 10 11 10 12 11 17 15 13 14 16 14 14 11 12 7 1 7 3 6 6 8 9 13 15 17 23 27 31 34 36 39 40 43 48 54 59 66 72 77 81 85 87
11 10 11 8 5 8 12 10 8 8 13 14 10 8 4 5 4 1 6 4 8 10 13 16 18 21 25 28 29 31 33 36 41 47 52 59 66 71 76 78 79 77 65
7 9 9 10 7 6 9 10 10 6 6 9 9 10 10 8 7 7 9 11 12 14 16 17 19 21 22 25 28 31 36 41 45 51 59 67 74 77 72 70 63 39 16
6 5 6 6 5 5 6 7 9 9 9 10 11 12 11 11 11 12 13 14 15 16 18 19 21 22 25 27 30 36 39 45 51 58 65 70 70 65 61 41 15 12 15
7 4 3 4 5 6 7 7 8 9 10 11 12 12 13 13 13 15 17 18 19 19 19 20 22 24 27 30 35 40 43 48 54 58 66 62 56 43 25 14 15 15 20
6 5 4 4 5 6 7 8 8 10 11 12 14 15 16 16 17 19 21 21 19 20 21 22 24 27 31 35 38 41 44 49 56 58 63 48 33 29 21 13 15 18 22

GFSMW_500_spd_057.txt.gz
Wind_Speed
41 41 40 40 39 38 39 39 40 43 45 46 46 45 44 45 45 44 45 46 43 41 41 40 38 38 36 37 35 34 32 32 32 33 35 37 37 37 35 33 32 32 32
43 42 42 42 43 43 42 40 40 42 43 45 46 45 46 46 47 47 47 47 45 42 44 44 42 42 41 40 39 37 36 34 34 34 37 36 38 39 39 36 34 34 34
42 43 43 43 44 45 44 43 42 43 45 47 47 48 46 46 48 48 48 48 49 48 47 47 45 46 45 44 43 41 40 38 38 35 36 35 36 38 39 38 37 37 37
41 41 41 42 44 44 44 44 43 43 45 47 49 50 50 49 47 48 50 52 51 51 49 49 49 49 48 47 45 42 41 40 38 38 38 40 40 40 42 42 39 40 38
38 39 39 40 40 42 43 43 43 44 46 48 49 49 50 51 51 51 50 52 54 54 53 53 53 52 50 49 46 44 43 42 42 42 43 42 43 43 43 47 44 45 45
39 39 38 38 37 38 39 40 41 42 43 45 47 50 51 52 53 53 54 55 57 58 57 57 56 54 52 49 49 49 47 47 46 45 46 48 47 47 47 48 50 49 47
34 34 34 34 36 37 38 40 41 43 45 46 48 49 51 53 54 54 55 56 57 58 58 58 59 56 54 53 52 52 50 48 52 48 49 51 51 51 52 50 51 52 51
30 31 33 35 35 37 39 41 43 45 47 50 52 54 56 57 58 59 59 59 59 59 60 59 59 59 58 57 53 51 52 44 51 52 55 58 54 55 54 52 53 55 55
29 30 32 32 34 37 41 44 47 51 53 56 58 59 61 64 66 67 68 68 67 66 64 62 60 59 59 57 55 55 62 56 59 59 60 56 55 54 54 52 53 55 55
27 29 31 34 37 40 42 44 45 48 51 54 57 59 61 64 66 67 69 71 72 73 71 69 67 65 62 60 60 60 61 61 63 61 63 63 58 53 52 52 53 53 53
28 31 32 31 32 36 38 40 40 42 46 50 54 56 58 60 66 70 72 72 71 69 69 70 68 66 63 60 59 59 59 61 61 61 59 60 58 57 55 51 54 54 55
25 25 26 28 30 31 34 38 39 41 43 47 48 52 56 58 60 62 65 70 72 71 67 63 62 61 58 53 52 52 53 55 56 58 55 59 56 55 54 54 54 50 56
21 21 19 25 28 31 30 33 34 39 37 42 50 59 54 50 52 54 56 56 57 65 63 57 51 52 54 50 47 45 40 42 43 49 53 52 54 51 52 51 53 58 61
18 20 21 23 25 26 27 27 32 32 33 42 44 47 37 34 35 37 39 40 44 47 54 50 47 47 48 45 43 42 39 37 40 42 44 47 49 49 48 45 53 58 62
18 18 18 19 21 22 22 20 26 26 30 33 33 32 27 26 25 24 26 26 30 38 42 41 42 43 43 40 42 40 34 35 37 38 39 35 48 59 51 52 54 54 55
16 14 14 17 16 14 17 18 22 26 27 28 28 26 19 17 14 8 16 17 18 21 27 36 32 29 31 29 27 28 34 36 31 34 43 48 49 52 54 52 51 55 58
13 12 11 12 12 13 14 17 16 21 22 23 23 19 16 11 8 3 7 11 7 7 9 11 14 19 20 27 28 32 33 29 33 38 42 45 50 38 42 49 53 56 59
15 13 12 11 13 15 15 16 17 20 20 20 17 16 13 12 9 6 1 4 5 9 12 16 20 21 20 27 27 31 34 38 35 34 33 36 39 41 44 46 50 56 60
13 14 11 12 15 10 12 18 18 13 17 14 15 16 16 12 6 8 7 4 3 2 4 11 12 15 20 26 27 27 30 31 33 36 34 36 37 40 44 50 56 63 68
12 10 11 11 7 5 9 15 12 12 11 14 14 18 18 12 10 8 5 4 5 5 8 11 18 18 19 17 24 24 26 27 29 30 32 35 39 43 49 55 61 65 70
14 11 10 11 13 11 14 12 6 9 10 13 13 13 12 15 9 11 11 3 4 6 5 3 5 10 13 16 20 23 24 27 29 31 35 39 43 49 54 61 64 74 70
9 8 7 7 7 7 7 6 7 5 7 11 12 12 12 9 8 9 8 8 8 10 10 11 12 14 16 18 20 21 23 26 30 34 37 41 47 53 59 63 71 62 48
7 6 7 7 8 5 6 6 5 6 6 7 9 9 8 8 8 9 10 11 12 12 12 13 14 15 16 17 19 22 26 29 33 35 38 45 51 56 59 62 54 43 30
8 8 6 5 4 5 3 4 5 6 6 7 9 10 11 11 12 12 12 13 14 15 15 14 15 17 19 21 24 27 30 34 36 37 43 48 51 56 55 46 38 32 26
8 7 6 5 4 4 4 5 5 6 7 9 12 13 14 13 12 13 17 19 19 17 17 18 19 21 23 25 27 31 34 38 38 41 47 51 56 55 45 36 32 31 30
10 11 8 8 6 4 3 5 6 8 10 11 13 15 15 15 17 19 21 21 19 19 20 21 23 25 27 29 31 34 37 39 39 43 48 52 57 50 38 33 30 31 32

GFSMW_500_spd_060.txt.gz
Wind_Speed
41 41 38 39 39 38 39 39 40 39 41 43 43 43 44 45 46 46 48 48 47 47 47 47 46 45 44 43 43 41 39 39 37 36 33 34 32 30 30 29 30 32 35
40 40 40 39 39 39 40 40 40 41 40 43 44 45 47 46 46 47 48 48 48 49 49 50 49 49 48 48 46 45 44 43 41 40 38 36 34 32 33 31 32 33 35
39 40 40 40 40 40 41 41 41 42 42 42 44 46 47 48 48 48 48 49 51 51 52 51 52 52 51 50 48 49 48 47 46 44 43 41 37 36 36 37 37 38 38
39 40 41 42 42 42 43 43 44 44 44 44 44 45 47 49 49 49 51 53 53 54 54 53 55 55 55 52 50 51 50 50 49 48 45 44 42 41 39 40 41 40 42
39 40 42 42 42 42 42 42 43 43 44 44 44 46 48 50 53 53 52 51 53 56 57 56 57 55 57 55 54 54 54 53 52 50 48 47 46 44 44 43 42 44 45
38 40 41 41 40 40 40 40 41 41 42 43 44 45 46 48 50 52 54 55 52 53 58 60 60 60 57 58 58 59 58 55 54 52 51 49 49 49 50 48 45 48 48
38 38 38 38 38 38 38 37 38 39 40 42 43 44 46 48 49 51 53 55 56 56 56 60 63 65 64 61 62 62 60 58 56 53 53 53 54 55 56 50 50 53 56
35 34 35 34 34 35 36 37 39 40 41 42 43 45 48 51 54 57 59 60 61 62 62 61 62 63 66 67 67 65 62 61 57 54 54 58 59 51 47 56 52 62 59
31 32 32 32 34 35 35 36 38 40 41 44 46 48 50 53 56 59 62 64 66 67 69 69 68 66 65 64 63 64 64 61 59 54 62 48 52 53 56 61 62 60 56
29 30 30 30 31 32 33 36 38 39 41 42 45 48 49 52 55 58 61 64 66 68 69 69 69 69 69 67 65 62 59 59 58 57 60 57 49 44 45 57 61 60 62
27 28 28 29 31 31 30 32 35 37 39 41 44 47 48 49 50 55 60 62 66 69 71 71 69 67 65 64 62 63 63 63 62 61 59 62 63 53 52 51 63 58 57
28 29 30 28 25 24 24 27 31 34 36 38 40 40 36 43 49 52 60 65 65 69 69 66 64 66 65 62 57 55 54 55 56 58 56 56 57 60 56 60 50 60 58
27 28 24 23 22 23 26 29 29 30 32 33 31 31 36 42 46 44 49 48 49 50 57 60 57 54 56 58 52 47 45 45 47 48 48 49 47 49 50 53 60 60 58
24 22 21 22 24 25 26 25 25 24 23 28 34 35 39 40 43 38 45 44 42 39 40 42 47 50 46 49 43 42 39 40 41 42 42 39 39 42 49 50 52 53 51
21 19 19 20 22 22 20 19 15 14 20 24 27 31 35 34 34 35 35 34 30 27 27 31 35 40 38 36 34 35 33 30 32 34 35 40 39 43 47 50 54 53 53
16 17 18 20 21 16 16 17 14 10 14 18 20 21 24 25 25 26 21 22 24 10 18 22 23 18 17 14 17 24 22 20 25 30 35 39 40 42 42 45 49 51 55
18 17 17 16 17 15 12 14 15 13 11 16 17 15 15 18 19 14 14 17 16 10 14 2 12 6 15 15 20 20 20 23 27 33 38 36 38 40 42 45 43 41 42
18 20 20 19 18 19 14 15 17 15 18 16 14 15 12 15 13 11 15 14 12 11 10 7 13 1 14 22 13 18 29 27 30 34 34 37 38 39 37 35 37 41 44
15 16 19 19 17 15 17 14 15 14 13 11 11 14 11 13 14 15 14 17 11 8 8 7 7 4 6 12 18 19 22 25 28 28 33 33 31 31 34 36 40 44 49
21 19 16 17 15 12 14 14 15 12 7 8 9 11 12 9 9 15 15 13 13 13 8 2 5 10 11 15 14 17 22 24 26 25 25 27 29 33 36 40 44 48 52
15 15 17 16 17 19 20 18 14 12 10 12 10 9 10 10 11 13 13 11 12 11 8 7 5 7 9 11 14 16 17 19 21 23 26 30 34 38 42 44 47 51 54
11 14 14 12 12 10 12 13 11 11 11 8 7 8 10 12 14 14 14 13 13 13 13 12 12 12 13 13 15 18 20 22 25 28 31 34 37 40 43 47 52 55 56
11 11 12 12 13 11 10 11 11 8 6 8 7 10 12 14 14 14 13 13 14 14 14 14 13 13 14 16 18 20 22 25 28 31 34 38 39 43 47 49 53 55 55
12 11 12 13 12 11 9 9 9 9 8 8 10 12 14 15 15 14 14 16 16 16 14 14 14 16 17 19 21 23 25 28 31 35 38 40 42 45 48 51 53 55 46
11 11 11 12 12 11 11 11 9 8 8 10 12 14 15 16 16 16 18 20 20 20 19 18 19 20 21 23 25 28 29 32 35 39 41 43 46 47 49 53 56 47 38
14 14 13 14 14 13 11 10 9 9 10 12 14 15 15 16 17 18 20 21 21 21 21 21 22 23 25 27 30 33 35 37 40 42 44 46 47 49 53 56 54 41 37

GFSMW_500_spd_063.txt.gz
Wind_Speed
45 44 43 43 42 41 41 41 40 39 39 41 44 39 43 45 45 45 45 45 44 44 45 45 46 47 46 46 46 46 47 46 46 44 42 41 40 38 35 35 35 34 33
44 45 43 42 41 40 42 42 41 41 40 42 43 43 43 45 46 47 47 47 47 48 47 47 47 49 49 50 50 50 50 49 49 49 49 45 43 41 39 39 39 38 36
37 37 38 38 39 39 39 40 40 41 41 43 43 45 41 44 45 46 48 49 52 52 51 50 51 52 53 53 53 52 52 53 53 52 52 49 46 44 43 44 44 42 41
34 35 35 36 36 36 37 38 39 40 41 43 44 45 46 44 46 47 49 51 53 54 55 53 53 54 53 54 55 55 55 55 54 54 53 52 51 48 47 46 46 45 45
35 35 36 36 36 36 36 37 39 40 41 42 43 45 45 46 46 48 50 51 52 54 55 57 56 55 57 56 56 56 57 56 57 54 54 54 53 53 52 49 48 49 47
37 36 36 37 38 38 39 40 40 40 40 41 42 43 44 45 45 47 48 50 53 54 54 54 56 59 60 60 60 60 60 59 59 58 59 59 58 56 54 52 51 51 52
36 37 37 37 38 39 39 40 40 40 40 40 40 40 41 44 46 47 49 51 52 54 55 57 58 59 61 63 65 64 63 61 62 62 61 61 61 60 58 54 56 55 59
36 36 36 36 36 37 38 38 38 38 37 38 39 41 42 43 45 48 50 52 54 56 58 60 62 64 66 67 67 66 66 65 65 67 67 64 62 60 56 52 48 60 66
35 36 36 36 37 37 36 36 36 36 37 38 40 41 42 43 45 47 49 52 54 56 58 61 62 65 67 68 68 69 68 66 64 64 64 62 61 59 56 50 59 62 57
33 35 36 36 36 35 35 34 34 35 36 37 37 37 40 42 44 47 50 51 51 52 56 60 64 66 68 69 68 66 65 63 63 63 60 58 56 53 52 51 60 60 47
34 34 34 34 33 31 31 32 33 32 31 32 34 37 40 41 45 48 46 45 50 55 55 57 60 62 67 69 68 64 63 61 59 58 56 58 57 57 56 54 57 51 57
29 29 29 29 29 31 31 29 28 27 28 33 36 34 35 37 42 41 48 50 53 53 49 56 61 62 57 60 58 56 55 54 54 54 54 55 56 57 56 57 57 62 63
27 27 28 29 30 28 27 27 28 30 32 32 29 26 28 31 35 39 42 43 49 49 50 55 57 58 48 46 49 48 45 42 42 45 49 50 51 54 55 54 55 54 54
28 28 28 26 25 24 24 27 29 28 27 25 20 20 18 19 23 27 34 39 41 41 46 41 40 41 40 37 37 41 38 38 35 36 40 42 45 48 47 46 47 49 49
25 24 22 22 22 24 25 26 27 23 20 17 16 17 16 16 19 19 25 31 34 37 42 30 35 31 33 31 25 28 27 26 31 32 34 36 37 39 40 43 44 46 48
22 22 23 23 23 24 25 24 25 23 20 19 18 19 18 18 20 20 22 25 29 30 33 29 29 25 24 20 25 22 22 25 26 19 20 26 31 35 38 41 46 49 49
19 20 21 20 19 20 20 22 22 22 18 20 22 22 19 20 20 19 20 21 26 24 22 24 25 21 16 13 12 12 21 17 20 20 20 24 27 33 35 37 40 43 44
19 18 19 23 25 24 23 23 24 22 20 20 22 18 18 17 18 18 15 18 21 24 23 19 17 15 16 11 12 8 12 19 19 21 23 28 32 34 37 43 35 33 34
18 19 20 20 21 24 23 21 24 22 20 20 18 17 16 17 18 18 20 19 19 21 20 18 15 13 10 10 9 12 12 15 18 19 22 28 30 27 27 28 31 35 39
21 23 24 23 20 23 22 20 18 20 22 19 16 16 18 17 17 16 17 20 21 22 21 19 18 15 15 16 17 14 13 14 16 19 20 21 23 25 28 32 36 40 42
14 15 17 19 21 21 22 23 23 23 20 20 19 19 14 13 16 19 19 21 22 22 21 19 17 16 15 14 14 15 15 16 17 19 21 24 27 30 34 38 41 43 46
13 14 14 16 18 18 17 19 20 18 16 18 18 16 15 16 17 19 20 19 20 20 21 20 19 18 16 16 17 17 18 20 22 24 26 29 33 36 39 41 44 47 50
15 14 14 14 16 18 17 19 19 17 15 15 15 15 16 17 18 19 19 19 19 21 20 18 17 17 17 18 19 20 22 24 26 29 31 34 37 40 42 45 47 50 51
16 16 16 15 15 15 15 16 16 16 15 15 15 14 16 17 18 19 20 20 20 21 20 20 19 19 19 20 22 23 25 27 30 33 36 39 42 44 46 48 49 51 52
17 15 16 16 15 15 15 15 16 16 16 14 14 15 16 18 19 20 20 20 22 21 20 20 21 21 23 24 26 28 30 33 36 38 40 42 44 45 46 49 51 52 55
18 16 17 18 18 18 18 17 16 15 15 16 16 16 18 20 21 20 21 22 23 22 22 22 24 25 26 27 29 32 34 37 39 41 43 44 44 46 49 50 54 56 59

GFSMW_500_spd_066.txt.gz
Wind_Speed
40 40 38 37 38 40 40 39 39 39 39 40 40 38 37 41 43 42 43 42 41 42 43 43 43 44 44 44 45 45 44 45 45 46 46 45 45 44 41 40 40 38 39
43 40 39 42 43 42 42 41 41 42 41 41 42 44 40 37 42 44 43 44 45 45 47 46 45 46 47 46 47 47 45 46 48 48 49 47 47 45 45 45 45 44 42
41 41 41 42 43 43 44 44 43 42 42 43 42 43 46 40 38 43 46 46 48 48 49 49 48 48 49 49 49 50 49 49 49 48 49 50 49 48 48 47 48 46 44
37 36 37 39 40 40 38 38 38 40 41 42 42 43 43 45 41 42 46 47 49 50 52 52 53 54 53 53 53 53 52 54 53 52 52 53 53 52 50 49 48 48 48
33 33 32 31 32 33 33 34 35 36 39 39 40 41 42 43 44 44 44 45 46 47 49 51 53 55 57 58 57 57 58 58 58 57 55 55 57 56 54 53 51 51 52
32 31 33 34 35 35 35 34 34 34 36 37 39 39 40 42 42 44 44 44 45 46 48 49 51 53 55 56 57 59 60 61 61 60 58 57 58 59 56 57 57 57 57
33 35 36 36 35 34 34 35 35 36 38 38 39 39 40 40 40 40 41 44 46 47 48 50 53 54 56 57 60 62 64 64 65 64 63 61 60 59 59 59 56 57 56
36 36 35 35 34 35 36 37 38 38 38 38 38 37 36 37 39 41 42 43 44 46 48 50 52 54 56 57 58 59 61 63 66 68 67 65 62 60 60 62 62 61 57
34 35 36 36 36 37 37 37 37 37 36 36 35 35 36 37 38 38 39 42 44 46 48 51 50 50 52 56 58 60 62 63 64 65 66 66 62 60 59 59 58 57 55
32 32 32 35 37 38 38 37 36 35 34 34 34 35 35 34 35 36 38 39 41 43 44 47 52 53 55 57 58 59 62 67 64 62 65 64 62 59 58 57 55 53 51
36 37 38 37 36 36 36 35 34 32 31 32 32 30 30 32 34 35 35 36 35 36 39 43 47 53 52 53 49 58 65 57 56 58 60 60 58 56 55 55 53 49 44
38 39 40 39 37 34 32 30 30 30 30 29 28 28 30 31 31 28 28 23 22 26 31 35 39 47 54 56 50 53 59 51 50 49 47 45 53 52 53 52 52 52 57
32 32 32 30 29 28 28 29 30 30 29 28 30 32 29 27 23 21 18 24 28 27 30 34 37 43 41 45 49 48 56 43 41 42 42 43 41 45 45 46 48 50 44
27 27 27 26 26 27 27 28 28 27 27 28 28 27 26 23 22 22 24 26 24 26 30 32 33 39 39 41 43 42 48 38 35 28 24 28 33 35 34 36 41 45 46
24 25 24 25 26 26 27 26 24 25 26 26 25 24 25 25 25 23 25 26 25 27 29 31 33 35 33 35 32 33 33 29 18 20 21 24 29 33 29 32 37 39 41
23 23 23 23 24 24 23 23 24 25 25 24 25 25 27 26 24 26 27 26 27 25 28 29 30 30 33 32 26 24 23 23 18 15 21 20 25 22 27 31 32 36 39
22 22 22 22 22 23 24 22 21 22 23 22 22 23 25 28 26 24 23 24 27 29 27 27 28 29 29 26 26 22 24 20 15 16 16 16 20 20 20 22 28 31 34
22 22 22 21 21 23 24 22 22 24 25 24 24 24 26 24 23 23 23 24 25 23 24 26 28 28 26 23 21 20 21 17 17 15 18 18 20 22 22 25 26 26 26
22 23 22 21 21 20 21 24 25 24 24 26 25 24 22 20 21 22 23 20 22 25 26 28 29 29 25 22 21 21 20 19 16 15 15 16 16 19 20 22 24 26 28
21 21 20 21 22 23 23 21 23 22 23 22 22 22 19 19 21 21 19 22 24 25 26 28 28 27 25 23 20 19 19 18 18 17 16 16 18 20 22 25 28 31 34
14 14 15 16 17 20 22 23 22 24 24 24 24 19 20 21 20 19 21 23 24 24 26 27 25 23 22 22 21 21 20 20 20 20 21 23 24 27 30 32 35 37 40
14 13 14 13 14 17 18 19 20 21 22 22 20 18 19 19 18 19 21 21 23 24 25 24 21 21 20 21 21 21 21 22 24 25 26 28 30 33 35 37 40 42 43
15 15 15 15 15 16 16 16 19 19 18 19 18 18 17 18 18 20 20 21 22 24 24 23 22 22 21 22 23 24 25 27 29 30 32 34 36 38 40 42 43 43 43
16 15 16 16 17 16 15 15 15 16 16 17 18 18 17 18 19 20 20 21 23 23 24 23 22 23 23 24 25 26 28 30 31 33 34 36 38 40 42 43 43 44 47
18 18 16 17 16 16 17 16 16 16 17 17 18 17 17 19 20 20 22 23 23 24 25 24 24 24 25 26 27 28 29 31 33 36 38 40 42 43 44 43 44 47 50
19 19 19 19 17 18 19 18 19 18 17 17 16 17 18 20 22 24 25 25 25 25 27 26 26 27 27 28 29 30 32 34 36 38 40 42 43 43 43 43 46 50 52

GFSMW_500_spd_069.txt.gz
Wind_Speed
40 41 40 39 37 35 34 37 38 37 36 36 36 36 36 38 36 39 39 38 38 37 37 39 41 42 42 42 42 43 43 43 45 46 44 45 45 44 45 45 42 39 40
41 39 36 34 33 36 37 37 38 40 40 40 39 39 38 39 41 41 40 43 42 40 41 42 43 44 44 45 44 45 46 44 48 49 49 49 47 43 44 45 45 44 43
47 43 39 35 37 39 39 40 41 41 42 41 42 44 44 41 39 39 39 43 46 46 44 45 45 46 46 47 46 48 50 49 49 49 52 52 52 52 50 50 49 48 46
43 44 41 40 39 39 40 42 42 43 44 44 43 43 43 42 41 40 39 41 46 47 48 48 47 46 47 49 50 52 51 52 52 53 53 54 55 56 55 53 52 52 49
36 35 34 35 37 39 41 43 40 39 38 39 39 39 40 41 41 42 41 41 44 46 47 47 47 46 47 48 50 52 55 54 57 58 57 58 57 59 59 59 55 55 54
33 34 35 35 35 34 33 33 33 34 35 36 37 38 38 40 40 41 41 42 43 44 43 43 44 46 48 49 51 53 56 58 59 62 63 65 64 60 60 60 59 60 57
35 35 35 34 32 31 33 34 35 35 35 36 36 38 39 39 39 40 41 41 40 40 42 42 42 45 47 48 50 52 54 55 57 59 60 62 64 64 61 62 62 62 62
32 32 30 31 32 33 35 36 36 36 37 38 37 37 38 39 39 39 38 38 39 41 41 41 42 43 45 46 46 49 53 56 58 58 61 63 63 63 65 64 63 61 64
33 32 32 33 34 35 36 37 37 38 39 38 37 37 37 37 37 36 37 38 38 38 39 40 40 40 40 42 41 47 52 52 56 59 56 57 61 64 66 68 66 62 61
34 35 35 34 36 37 38 38 39 38 38 37 37 36 35 34 35 36 36 36 36 37 37 38 37 32 34 38 40 42 44 45 46 53 57 59 54 55 58 66 65 60 53
35 36 36 35 35 35 35 35 37 37 37 36 35 34 34 34 34 32 32 34 33 33 35 31 30 30 33 37 40 42 43 48 49 51 60 55 49 50 54 55 54 54 51
43 42 40 37 37 37 38 38 37 36 35 33 32 32 31 31 30 31 33 31 29 30 27 30 29 31 35 37 38 38 39 41 41 45 56 48 41 41 41 39 39 44 43
35 36 39 41 41 41 39 37 35 33 32 31 30 30 30 30 31 31 30 27 28 29 29 30 31 32 35 36 35 35 36 34 37 38 42 39 33 27 27 31 32 34 35
30 31 34 34 34 32 31 31 30 29 29 29 29 28 28 28 27 28 27 26 27 29 31 29 30 32 35 36 34 34 34 31 32 31 33 30 31 27 21 28 29 26 29
25 25 25 26 26 26 26 27 27 28 28 28 27 27 27 27 26 26 28 29 30 30 30 32 32 36 31 32 33 33 32 30 32 31 30 27 23 22 20 25 20 24 25
23 23 23 24 24 24 25 26 27 27 26 25 25 27 27 26 26 26 30 31 30 28 28 30 32 30 32 35 35 33 29 27 23 24 24 24 22 23 17 22 18 22 21
22 22 22 22 23 24 24 25 23 24 24 25 24 24 23 24 24 27 29 30 28 28 28 28 28 30 32 35 35 31 28 27 25 24 23 20 21 18 18 20 20 19 20
23 23 23 22 21 21 22 23 22 23 23 24 23 24 25 25 26 26 25 25 24 27 26 26 27 30 33 35 32 28 26 25 25 25 23 21 20 22 20 19 19 20 21
23 22 22 22 22 22 23 22 22 24 26 27 25 25 26 25 23 23 22 23 24 24 24 26 27 30 32 30 27 26 23 22 21 20 20 19 19 20 21 21 23 24 26
21 21 21 22 22 22 20 22 23 22 22 24 24 23 23 22 22 21 21 21 22 22 24 25 28 30 29 25 24 24 22 21 22 22 22 21 22 24 25 26 28 29 32
19 18 17 17 17 17 18 20 22 24 24 24 24 24 25 24 24 21 20 21 21 22 23 25 28 28 26 25 24 23 23 23 24 24 25 25 26 27 29 31 33 35 37
16 15 14 14 14 15 15 15 16 17 19 21 23 23 22 21 21 20 20 19 21 22 23 26 27 28 26 25 25 25 25 25 26 27 27 28 30 31 33 35 36 38 39
17 17 16 15 15 15 14 12 13 14 16 17 17 17 18 18 18 19 20 20 21 23 24 25 26 27 27 27 27 27 27 27 27 28 30 31 33 34 36 38 39 41 42
18 18 17 15 15 15 15 12 13 14 14 15 16 16 17 18 18 18 19 20 22 24 25 26 26 27 28 29 29 29 29 29 29 30 31 33 34 36 39 40 41 41 42
18 18 19 18 16 15 15 15 15 15 15 16 17 17 17 17 18 19 19 21 23 25 26 27 27 28 29 31 31 31 31 31 31 33 34 35 37 39 40 41 40 41 41
21 20 20 20 18 18 17 18 18 18 17 17 18 18 18 18 19 20 21 23 26 27 28 28 29 30 30 32 32 33 33 34 34 35 36 37 39 41 41 40 40 41 43

GFSMW_500_spd_072.txt.gz
Wind_Speed
47 45 44 44 43 41 39 38 37 36 38 39 38 37 34 35 34 35 35 36 38 38 39 37 37 38 39 39 40 41 41 42 43 45 43 44 46 47 47 47 49 47 42
49 47 44 42 41 40 38 38 40 41 39 38 38 37 37 37 37 37 39 41 40 41 39 39 37 38 41 43 43 45 45 44 44 44 46 47 47 48 51 51 52 52 52
49 48 46 44 42 41 42 42 41 40 39 39 38 37 37 38 40 43 44 44 43 42 42 40 40 41 43 44 44 45 45 45 46 46 49 50 52 52 53 55 57 57 54
47 48 49 46 44 43 42 40 39 38 38 38 40 41 40 41 42 43 43 42 42 43 44 45 45 44 44 44 45 45 43 46 48 47 49 53 54 55 55 55 55 57 58
42 45 47 48 44 44 45 43 42 40 39 40 40 41 40 41 41 41 40 40 41 41 44 46 47 47 47 45 45 46 46 47 49 50 51 55 57 59 61 61 60 58 59
39 39 39 41 45 46 48 49 50 47 47 44 44 40 38 37 38 40 40 40 40 41 44 46 46 46 45 46 47 46 46 47 49 50 50 52 56 59 62 64 64 65 62
40 37 37 37 38 40 40 40 40 40 40 39 37 37 38 40 40 41 41 42 43 43 44 43 42 43 44 45 44 44 46 47 45 45 48 49 53 55 58 62 65 68 64
48 44 40 36 38 38 38 38 37 36 36 37 39 40 40 41 42 41 42 43 42 41 40 40 41 41 41 41 42 42 40 40 42 45 46 46 47 49 54 60 65 68 67
39 41 40 39 36 36 36 37 37 37 38 39 40 40 41 41 42 42 41 40 40 39 39 40 40 39 40 41 42 37 37 38 42 46 46 46 46 44 53 61 58 60 63
32 37 38 37 37 37 36 37 37 38 40 40 41 41 42 42 41 41 39 38 38 38 39 38 38 38 39 36 35 35 37 41 42 43 42 41 44 46 51 50 48 50 54
37 36 36 39 40 39 40 41 42 42 42 43 43 42 42 40 39 39 38 37 37 36 35 37 37 37 32 35 34 36 38 39 41 42 41 41 41 44 45 46 44 43 40
40 38 37 36 36 38 40 40 40 39 39 39 38 38 38 38 36 35 36 36 34 34 35 36 35 32 35 36 35 35 39 40 42 42 42 39 40 41 40 41 38 35 36
34 35 37 38 40 41 40 39 37 37 39 38 38 36 34 34 34 34 34 34 34 34 34 31 33 35 36 34 36 38 39 37 41 42 40 38 38 37 38 38 34 30 37
33 35 37 40 40 43 44 44 42 41 40 37 35 35 33 32 33 32 32 33 33 32 30 31 33 34 32 34 36 37 36 40 43 40 35 34 34 34 34 35 33 32 26
31 32 32 31 32 34 34 35 37 36 34 33 32 31 31 31 31 31 31 31 30 30 31 33 35 33 31 33 34 35 38 41 41 34 33 32 32 30 29 27 27 24 24
26 26 24 24 25 26 25 27 28 28 29 29 30 29 29 29 29 29 30 30 29 29 32 35 35 32 32 33 33 36 39 40 35 32 32 32 32 32 29 28 25 23 23
21 21 22 23 24 24 25 26 26 27 27 28 27 26 26 27 27 28 27 28 29 30 31 31 31 31 32 32 33 36 39 35 33 30 30 28 27 26 25 24 25 24 22
21 23 23 23 24 24 24 25 24 24 25 26 26 26 25 25 27 28 27 28 28 28 29 28 29 30 30 31 34 36 33 30 29 27 25 23 22 21 21 22 23 24 25
23 23 23 22 22 24 24 23 23 24 25 26 27 28 29 28 27 27 27 27 26 26 25 26 27 28 29 31 34 32 29 28 27 26 25 24 23 23 23 24 25 27 28
21 21 20 20 21 22 24 24 25 25 26 25 24 25 26 25 24 25 24 25 25 24 24 25 25 26 28 30 31 29 27 26 27 27 27 27 28 27 28 29 29 30 32
19 19 20 20 21 22 24 25 25 26 26 26 27 26 24 24 24 26 26 26 26 25 25 24 24 25 27 28 29 28 27 28 28 29 28 28 28 28 29 31 32 33 34
20 19 19 20 20 20 20 19 20 19 18 17 19 21 24 25 26 25 23 23 23 23 23 24 25 26 26 26 27 27 28 29 29 30 30 30 30 31 32 33 33 34 36
19 20 21 20 19 18 17 17 17 17 15 15 17 19 19 18 19 20 20 21 21 21 22 23 25 26 27 27 27 28 29 30 31 31 32 33 33 34 34 34 35 37 38
18 19 20 20 19 17 16 16 18 18 15 14 15 16 18 19 19 21 20 21 21 21 22 23 25 27 28 29 30 29 30 30 32 33 34 34 34 35 35 36 37 39 40
19 19 19 19 19 18 18 18 18 18 17 16 17 18 18 19 20 21 21 22 22 22 24 26 28 29 30 32 32 32 31 31 33 34 35 35 35 36 37 37 39 40 40
21 21 20 21 21 20 20 20 19 19 18 18 19 20 20 21 20 20 21 22 24 26 27 30 30 31 33 35 36 35 35 34 34 35 36 36 36 37 38 40 41 41 41

GFSMW_500_spd_075.txt.gz
Wind_Speed
50 51 51 50 47 43 42 43 43 42 42 41 41 40 38 37 35 34 33 34 35 35 36 36 38 39 38 38 39 40 41 42 43 44 44 44 43 41 44 45 47 46 48
42 50 49 48 47 46 44 43 43 42 43 44 43 42 39 38 37 35 36 37 37 38 38 39 40 40 39 39 40 42 44 44 44 45 45 43 42 43 47 48 49 50 51
48 48 49 50 48 47 47 46 45 44 44 43 42 41 41 40 39 38 37 38 40 42 43 43 43 42 41 41 42 44 45 45 45 44 46 47 47 47 46 48 49 52 52
36 43 48 51 50 48 48 47 46 44 43 42 42 42 42 41 39 40 41 44 45 45 44 42 42 42 42 42 43 44 45 44 43 44 46 47 48 49 48 49 49 51 53
37 39 45 47 51 52 49 46 45 45 44 43 43 43 42 42 42 42 43 45 45 44 43 42 43 44 45 46 45 45 43 43 44 45 46 47 48 46 46 45 45 48 50
42 39 40 45 48 50 49 49 48 46 45 44 44 43 43 44 45 44 43 41 40 41 41 42 44 45 46 47 47 45 44 45 45 45 45 44 43 44 47 48 48 47 50
43 41 42 43 45 49 51 51 49 48 48 47 49 52 50 47 47 46 43 41 41 42 42 44 44 46 47 47 45 45 45 44 44 44 40 41 43 46 49 48 48 48 49
50 47 45 44 43 43 45 47 50 50 50 49 47 45 44 43 42 40 41 41 43 43 45 45 45 45 44 43 44 43 42 42 41 37 39 42 45 47 49 47 48 48 50
45 47 50 45 42 41 40 41 43 43 45 45 45 42 40 40 41 42 43 43 45 45 45 44 43 41 41 41 41 40 40 37 36 37 41 43 44 46 48 47 48 49 49
40 42 47 49 48 45 42 40 40 41 42 42 42 41 41 42 43 43 44 45 45 45 44 42 41 40 39 38 39 40 37 35 37 39 41 44 44 45 46 46 46 46 48
44 42 39 41 43 45 45 44 41 39 40 40 41 41 42 43 45 47 47 46 44 43 42 40 39 37 37 38 39 36 36 38 39 40 43 43 44 46 45 44 43 42 43
38 38 36 34 35 41 40 40 41 42 41 41 42 44 46 47 45 45 45 43 42 40 39 38 37 37 38 38 35 35 40 39 40 42 42 43 46 47 41 40 39 39 39
35 42 43 40 32 34 39 41 43 43 44 45 45 44 41 40 40 41 40 39 38 38 38 37 37 37 35 33 33 37 39 38 40 41 41 44 47 40 38 37 37 35 37
31 29 33 43 44 40 36 38 41 42 42 43 43 41 40 39 40 39 39 39 38 38 37 36 36 34 32 34 36 38 37 39 40 40 42 45 42 36 36 36 37 39 35
33 33 34 35 40 40 42 44 43 44 46 45 44 41 41 40 39 37 37 36 35 35 35 35 33 32 33 35 37 37 37 38 39 40 43 42 36 33 33 33 34 34 33
32 31 31 32 32 31 33 35 35 34 35 36 37 38 38 35 35 35 33 32 32 32 33 32 32 31 34 35 34 35 36 36 39 42 42 37 33 32 32 31 28 27 27
26 26 30 31 29 30 30 30 30 30 32 32 32 33 33 32 32 30 30 30 30 30 30 29 30 32 31 32 31 33 34 37 39 40 35 32 30 29 28 27 27 26 26
24 23 24 24 26 26 26 26 28 29 28 28 29 29 28 28 28 28 28 27 28 29 29 29 30 31 30 29 30 32 33 36 37 32 30 29 30 30 30 29 28 28 29
24 23 28 22 23 25 25 25 25 25 25 25 26 26 27 28 27 28 28 29 29 30 28 27 28 27 27 27 29 30 32 34 33 29 29 29 29 30 30 30 30 31 31
22 23 24 25 26 25 24 24 24 23 23 23 24 25 27 28 29 29 28 28 27 27 26 26 26 26 27 28 28 30 31 31 29 28 28 29 30 30 31 32 32 33 34
23 24 24 24 23 22 22 22 22 24 25 24 25 26 27 28 28 28 28 28 28 27 27 26 25 25 27 27 29 30 29 28 28 29 30 31 31 32 32 33 34 35 35
20 20 20 20 20 20 20 21 22 23 23 22 23 24 26 26 27 28 28 28 28 27 25 24 24 25 26 27 28 30 30 31 31 30 31 32 33 33 34 34 34 36 37
23 21 20 21 20 20 20 20 20 20 19 20 21 22 21 21 22 23 23 23 22 22 23 23 24 25 25 26 28 30 31 32 33 32 33 34 34 35 36 36 37 38 39
23 22 21 21 21 21 20 20 20 19 19 20 21 20 19 19 19 20 21 22 22 23 23 23 25 27 27 28 30 32 33 34 35 36 36 36 36 37 38 38 38 39 41
22 21 20 20 20 21 22 20 19 19 20 20 20 21 20 19 19 21 21 22 22 22 23 25 26 28 30 31 32 33 34 36 37 37 37 37 37 37 38 37 38 40 42
21 23 22 21 21 22 23 23 21 20 19 22 22 23 23 22 22 23 24 24 24 25 25 27 30 31 33 33 33 34 36 37 37 37 37 37 38 38 38 39 41 43 45

GFSMW_500_spd_078.txt.gz
Wind_Speed
60 56 55 55 52 50 48 46 44 43 41 40 40 39 39 38 37 37 36 36 36 35 34 34 34 35 37 39 40 41 42 42 41 41 41 42 42 41 41 41 42 43 45
56 59 59 58 57 54 51 48 47 45 44 42 42 42 41 41 40 39 39 39 38 38 37 37 37 39 41 43 43 42 41 40 41 44 46 43 40 40 42 43 43 43 44
56 55 56 59 56 52 51 51 51 49 48 47 46 46 45 43 42 42 41 40 39 39 39 40 41 44 46 46 44 42 40 41 43 44 46 45 41 41 43 43 43 43 42
49 45 49 49 52 51 50 48 48 49 49 49 49 48 46 45 44 43 43 42 42 42 42 43 45 47 47 45 43 42 42 43 43 43 43 43 45 47 43 42 40 40 41
41 40 43 46 46 46 47 48 49 49 49 48 47 46 46 45 44 43 44 44 45 45 46 47 47 45 43 43 43 44 44 44 44 42 42 43 43 42 41 37 37 40 42
41 43 41 36 40 47 49 49 51 51 50 49 49 49 48 47 47 46 45 46 46 46 50 51 48 46 43 44 45 47 46 45 42 41 42 41 40 37 36 39 41 42 43
41 41 42 45 42 41 46 49 50 52 51 51 51 49 48 48 47 47 46 48 52 53 51 49 46 44 46 47 47 47 45 43 41 42 41 40 37 35 38 41 43 44 44
47 48 48 47 48 47 44 45 49 51 52 52 50 51 51 51 50 51 53 50 48 46 44 43 43 44 46 47 46 46 44 42 42 41 40 38 36 38 41 44 46 44 46
44 50 52 51 49 49 49 46 45 47 50 53 54 54 54 53 52 49 46 43 42 42 42 44 45 46 46 45 44 43 42 40 39 39 38 35 37 40 43 45 44 47 49
42 47 49 50 51 50 48 46 45 45 45 45 47 47 47 47 46 46 43 42 42 43 44 44 46 46 44 43 42 41 39 38 38 36 34 38 40 40 43 43 45 49 45
37 44 47 49 50 50 52 51 47 45 45 43 44 45 46 45 45 45 44 44 43 45 48 49 47 45 43 42 40 38 38 38 35 33 36 39 39 41 42 44 47 47 39
40 42 45 44 45 48 47 48 51 50 48 46 44 44 44 44 44 43 44 45 46 49 48 45 43 41 40 39 38 37 37 34 31 33 38 38 40 42 44 46 47 41 37
33 38 42 48 48 48 43 42 44 44 45 47 47 46 44 43 43 44 45 47 45 42 41 40 40 40 39 38 36 36 33 32 34 36 37 40 41 43 44 47 41 37 35
32 34 32 35 42 43 43 39 35 40 41 41 41 42 44 44 44 45 46 42 41 39 40 40 40 38 37 35 34 33 32 33 36 37 37 39 40 43 46 41 35 33 33
31 32 32 31 32 39 42 46 39 34 34 36 40 41 42 43 44 44 43 41 40 40 40 38 37 34 35 34 33 32 33 35 34 34 36 37 41 42 38 33 31 30 30
32 34 34 35 33 33 33 35 52 48 46 45 45 46 48 50 49 46 41 42 41 38 35 33 32 32 33 32 32 31 32 31 31 33 35 37 39 36 32 32 31 31 31
36 37 33 35 37 34 33 33 32 36 40 41 39 37 40 38 38 37 36 36 34 32 31 31 30 29 30 30 30 29 28 30 31 33 33 36 34 32 31 31 31 31 31
33 33 34 34 34 37 38 35 29 30 32 33 33 33 34 34 34 33 33 31 30 30 29 28 28 28 29 29 28 29 28 28 31 31 32 33 31 30 30 30 30 30 31
26 25 25 25 26 25 26 27 29 31 31 30 30 30 31 31 31 30 29 29 28 27 28 29 29 28 28 27 27 27 27 29 29 30 30 29 30 31 32 33 32 32 33
24 25 25 23 25 29 27 24 26 26 27 27 28 29 28 27 27 27 27 28 30 30 29 29 27 26 27 28 26 26 27 28 29 30 31 31 31 32 33 33 34 34 35
20 21 22 23 24 24 25 25 25 24 25 26 25 25 24 25 26 26 27 28 27 28 28 27 27 28 28 27 26 26 27 28 29 30 31 33 33 33 33 34 35 36 36
22 22 23 23 23 23 24 24 24 23 23 23 24 25 26 26 27 28 29 29 26 26 27 28 29 28 26 25 25 26 27 28 29 31 33 34 34 35 35 36 36 36 37
23 24 21 19 20 21 21 22 22 22 22 22 22 21 22 22 22 22 22 23 23 24 25 25 25 24 24 24 24 26 28 30 32 33 34 35 36 36 36 36 36 37 38
20 20 23 23 23 23 22 22 21 20 19 19 20 20 20 21 22 23 22 21 21 22 22 24 25 24 25 26 27 29 31 32 33 33 35 35 36 35 35 35 37 38 39
20 20 21 20 23 24 23 24 23 22 21 21 20 21 22 21 21 21 21 21 22 23 24 23 22 23 25 27 29 31 33 33 33 36 36 36 35 35 36 37 39 40 40
18 18 20 22 22 21 22 23 23 23 22 22 21 22 23 23 23 23 24 25 25 25 26 27 27 27 28 31 33 33 34 33 35 36 36 37 37 37 37 38 39 39 40

GFSMW_500_spd_081.txt.gz
Wind_Speed
54 55 51 51 47 49 48 48 48 46 44 42 41 39 38 38 38 38 38 37 37 36 34 34 35 35 36 37 36 37 41 43 43 43 40 39 40 41 41 41 38 38 39
52 52 56 55 54 51 52 50 53 51 48 45 43 42 42 41 41 41 40 40 39 38 37 37 38 38 38 38 39 41 45 46 44 43 41 39 40 41 40 40 39 39 38
51 51 50 55 57 54 55 55 56 54 51 49 47 46 45 44 44 44 43 42 42 41 40 39 40 40 40 40 42 46 48 46 42 42 42 44 42 41 37 37 37 37 38
49 51 51 52 56 63 57 57 56 54 52 51 50 49 48 47 46 46 45 45 44 44 43 43 42 42 42 43 45 47 47 44 42 42 44 45 43 40 38 37 37 36 33
52 56 54 54 53 56 61 61 59 55 53 52 50 50 50 49 48 47 48 48 48 47 46 44 44 44 43 44 49 49 47 44 43 44 43 42 40 39 39 38 37 34 34
45 53 57 53 48 52 55 56 56 57 58 56 54 51 49 49 49 48 48 48 48 47 46 45 47 48 49 52 52 47 45 44 45 45 43 41 39 39 37 37 32 33 35
51 54 49 44 44 44 46 47 47 47 47 47 47 48 50 50 51 51 50 49 49 49 49 48 49 52 55 50 46 43 43 45 46 44 42 39 39 37 36 33 33 35 37
39 41 43 43 43 45 43 42 44 50 52 52 52 52 52 52 51 51 51 50 50 50 51 52 53 50 46 44 43 44 45 46 45 44 40 39 37 36 32 33 36 37 39
35 37 42 45 45 46 46 48 48 46 45 48 51 52 52 53 53 53 52 52 51 51 52 51 46 43 43 43 44 45 46 45 43 41 39 37 37 33 32 36 37 38 40
34 39 42 43 46 50 51 50 50 50 50 47 46 48 50 52 53 54 54 54 53 50 47 46 44 43 43 44 46 45 44 43 42 39 36 36 33 31 33 35 36 39 42
38 38 38 42 46 50 53 55 54 53 52 52 50 50 49 49 48 47 47 46 46 46 45 45 43 43 44 45 45 43 41 39 37 35 35 32 30 32 34 35 38 40 41
34 37 41 38 39 46 51 55 55 55 54 52 49 49 48 48 46 44 45 45 45 45 44 43 44 44 44 43 40 40 39 37 35 34 31 29 31 32 33 36 37 39 43
35 36 36 35 37 41 47 49 50 51 51 52 53 52 49 48 47 45 44 44 43 42 41 42 43 41 40 38 40 39 38 35 33 32 30 30 32 31 33 35 37 39 39
28 28 30 32 34 38 43 45 45 46 47 45 45 43 45 47 49 47 47 44 41 42 41 43 43 42 40 40 39 36 33 33 32 31 31 31 30 31 33 35 36 37 33
26 29 31 33 36 38 36 40 43 46 46 48 43 42 46 40 40 40 39 40 41 41 43 43 41 39 40 37 33 32 31 31 31 31 31 29 30 31 33 35 34 31 31
27 32 33 35 37 35 35 34 36 41 41 46 46 42 41 43 41 42 42 40 39 41 44 42 42 39 34 31 30 30 30 30 29 29 28 28 29 31 33 32 31 30 30
32 31 34 34 35 38 39 38 36 34 35 33 48 53 49 45 47 47 50 42 40 42 42 38 34 32 31 29 28 27 28 28 28 27 27 27 29 30 30 29 30 30 30
30 33 35 36 40 40 38 37 39 38 34 34 34 33 36 38 37 35 39 40 36 35 35 34 31 30 28 27 28 28 29 27 27 27 26 27 28 29 29 29 31 32 32
26 25 26 27 32 39 42 41 37 37 37 37 31 30 33 32 32 34 33 32 32 31 30 28 28 27 28 28 28 27 26 26 27 27 26 27 28 29 30 30 31 31 31
24 20 21 23 25 25 26 33 32 26 26 27 30 31 31 29 29 26 28 27 29 30 28 28 29 30 27 26 25 25 26 27 27 26 26 27 28 29 31 32 32 32 33
24 24 22 22 22 21 21 21 24 26 23 26 28 27 27 28 29 28 28 30 31 29 29 28 26 25 25 25 25 26 28 28 24 25 26 27 29 32 33 33 34 34 35
24 22 21 21 22 21 22 24 24 24 26 26 25 25 26 26 27 27 27 28 27 26 26 25 23 24 26 27 27 26 25 24 23 24 26 29 31 32 33 34 35 35 35
22 21 21 20 20 19 20 20 21 22 22 23 23 23 23 24 25 26 26 27 26 25 25 25 25 25 25 25 24 23 23 22 25 27 29 31 32 33 34 34 35 35 35
19 20 22 22 20 19 19 19 19 21 22 21 21 22 22 21 21 21 23 23 23 23 23 22 22 22 23 24 25 25 27 26 27 29 31 32 32 34 34 34 35 36 37
20 19 20 20 20 21 21 21 21 23 23 22 21 21 21 20 20 21 21 21 22 22 22 22 23 25 25 25 25 25 27 28 30 32 33 32 34 34 35 36 37 38 38
16 17 19 20 20 21 20 20 20 22 22 23 22 21 22 22 21 21 22 22 22 23 24 25 26 28 29 29 29 29 29 30 32 34 34 34 35 34 36 37 37 38 38

GFSMW_500_spd_084.txt.gz
Wind_Speed
59 55 53 51 50 50 47 46 49 48 47 47 45 43 41 40 38 39 38 37 35 35 35 36 36 36 35 35 36 36 37 37 39 41 44 44 42 39 40 41 42 41 39
56 55 53 53 52 51 49 47 48 47 47 50 47 46 44 43 43 42 42 40 39 38 38 38 38 38 38 39 39 40 40 40 41 44 46 42 39 39 41 43 42 41 39
56 53 52 56 55 52 50 51 48 47 43 46 45 46 46 45 45 45 44 43 42 41 41 41 41 41 40 40 41 42 42 43 43 46 48 44 41 39 41 41 40 40 40
57 52 52 54 56 56 56 54 52 52 51 51 48 48 50 50 49 48 47 46 46 45 45 44 43 43 43 43 43 44 45 44 46 49 48 44 42 43 42 40 40 40 38
60 57 54 55 56 53 53 53 58 55 54 54 54 54 55 54 52 50 50 49 48 48 47 46 45 45 46 45 46 46 46 47 50 49 44 42 42 44 43 40 39 40 38
54 50 53 54 51 51 50 52 53 57 57 57 57 56 56 56 55 53 51 50 50 49 48 47 47 48 48 48 47 48 49 52 49 44 42 42 43 43 42 39 38 37 36
42 46 51 48 50 54 57 56 57 55 55 62 61 60 60 59 58 57 55 52 49 50 54 54 53 52 50 49 49 51 52 49 44 43 42 44 44 43 40 39 36 35 31
43 53 48 52 54 53 54 55 53 52 51 53 55 56 55 56 60 61 60 58 56 53 52 52 51 51 51 50 52 52 49 44 43 42 44 45 44 43 40 37 37 32 31
32 34 44 51 53 55 57 56 52 52 50 48 48 49 50 51 52 54 54 55 55 55 54 54 53 53 53 52 52 48 44 43 43 45 45 44 43 41 38 37 35 33 33
27 29 38 38 40 54 57 55 49 46 46 45 46 47 48 50 53 54 54 53 53 53 53 53 53 53 52 48 46 44 42 42 44 46 45 43 40 38 37 36 33 33 34
27 29 31 34 36 36 39 44 49 49 49 49 51 52 52 51 50 50 50 50 50 51 49 48 47 45 45 45 44 43 42 43 43 43 41 39 38 36 36 33 33 34 34
27 31 32 31 35 37 39 44 45 47 51 54 55 56 55 54 54 54 53 51 50 49 46 44 44 44 44 44 41 41 41 41 40 41 40 38 36 35 32 32 33 32 34
30 30 32 33 34 36 37 39 41 44 49 52 55 57 58 58 55 53 51 52 50 49 46 44 43 43 42 40 41 40 42 42 42 40 38 35 34 32 33 33 31 32 33
32 30 30 29 32 37 40 41 42 42 44 47 49 52 54 55 55 54 54 54 52 50 49 47 45 43 42 40 42 43 41 42 41 38 35 34 32 33 32 31 31 32 33
31 31 33 33 34 37 36 39 41 43 44 45 45 46 45 45 48 49 49 46 47 50 48 48 46 45 44 41 40 41 41 43 39 35 33 32 32 31 30 30 31 31 32
34 33 32 32 30 32 34 33 37 40 39 39 41 42 44 45 45 45 45 46 43 39 42 41 40 39 37 40 43 45 39 35 37 34 32 31 30 29 29 30 30 31 30
33 31 31 35 31 28 30 34 37 38 40 40 42 43 47 47 49 49 44 42 44 45 44 45 44 48 46 45 35 33 36 34 30 29 29 29 28 29 28 28 29 30 30
33 33 32 34 32 33 33 35 36 40 43 43 43 43 41 41 36 44 50 51 51 51 50 41 39 40 34 33 35 33 31 29 29 29 29 27 28 28 27 29 29 30 30
35 33 34 30 30 31 33 34 36 40 41 41 42 43 40 39 36 34 34 34 33 33 37 38 37 36 34 33 31 30 31 29 29 28 27 27 28 28 28 28 29 30 31
27 29 27 24 24 24 26 28 27 31 40 45 47 41 32 32 31 30 32 30 32 33 31 31 31 30 30 30 29 29 28 27 26 26 27 28 27 28 27 28 30 31 31
27 25 24 25 24 24 25 25 26 28 30 33 34 27 29 26 29 31 29 33 31 27 28 28 28 30 30 29 28 28 26 27 26 27 27 27 26 26 27 30 31 31 32
25 26 26 25 24 24 25 24 24 24 23 22 24 29 24 26 29 29 29 29 31 31 31 31 30 30 29 28 27 27 27 27 27 27 27 26 25 28 30 30 30 32 33
24 25 24 24 24 23 23 23 23 24 23 22 22 24 25 26 25 26 28 29 29 29 29 29 29 29 28 28 28 28 28 28 27 27 27 27 29 30 30 31 32 33 33
21 21 21 21 21 22 23 20 18 18 19 21 21 22 23 24 23 22 23 24 24 25 26 27 26 27 28 28 28 27 27 28 29 29 30 30 30 31 32 32 34 33 35
18 19 19 19 20 22 22 22 23 22 23 23 23 23 23 23 22 22 22 22 22 22 23 24 25 26 26 27 26 26 27 30 32 32 31 31 32 33 33 33 35 35 36
20 19 20 20 20 22 23 22 21 21 21 22 22 24 25 26 24 23 22 22 22 22 22 24 25 25 26 27 27 30 32 33 34 34 33 34 36 36 35 35 36 36 38

GFSMW_500_spd_087.txt.gz
Wind_Speed
49 56 56 57 54 51 50 48 48 44 42 42 42 43 42 44 44 42 40 38 37 35 34 34 33 34 34 35 34 35 35 36 37 38 40 39 41 42 44 43 41 40 40
46 50 58 56 55 56 52 49 48 45 43 43 45 49 50 48 47 46 43 41 39 38 38 37 36 37 38 38 38 37 37 38 40 40 42 41 41 46 47 40 41 42 43
43 53 55 58 57 56 57 53 51 51 48 44 45 49 55 55 50 47 45 42 42 41 40 40 40 40 40 40 41 40 40 41 41 42 43 45 45 47 45 40 41 42 43
47 52 60 55 59 56 59 58 53 51 49 48 46 44 52 54 49 48 44 43 43 43 43 44 44 44 43 43 42 42 42 43 44 45 44 47 49 50 42 41 41 42 42
50 54 55 57 55 56 57 55 55 54 51 48 48 47 44 45 45 43 41 44 47 49 48 48 47 47 47 46 45 44 46 47 47 47 48 48 50 45 41 40 42 43 42
49 50 54 60 57 56 54 53 53 59 57 52 52 52 54 53 50 52 49 47 51 52 52 51 51 50 49 49 48 49 52 51 48 47 48 50 46 41 41 41 43 44 43
52 52 48 54 57 53 53 52 55 57 56 59 58 57 57 56 57 58 58 55 54 55 56 56 54 55 53 51 55 54 52 50 49 49 50 47 43 41 42 43 43 42 40
43 48 47 48 54 57 56 58 58 52 58 51 50 54 55 57 57 59 61 60 60 59 58 57 56 55 58 59 54 52 51 51 52 50 48 43 41 42 45 45 43 40 38
34 37 40 49 56 53 52 53 53 57 56 54 58 55 53 53 53 54 56 57 56 59 60 60 61 60 57 56 56 55 53 51 51 48 43 42 42 44 45 45 42 39 36
32 33 36 41 50 51 47 49 54 57 55 57 56 56 53 52 51 49 48 48 49 50 53 55 56 57 56 56 55 54 51 48 44 43 42 41 44 44 45 42 41 39 37
30 34 31 38 41 39 58 64 62 56 60 63 60 58 56 52 47 47 47 47 47 48 49 50 51 51 51 50 49 46 43 42 42 41 40 42 43 43 44 42 40 38 35
22 24 27 27 27 29 38 38 49 51 55 60 62 58 57 50 49 50 51 52 52 52 52 52 52 51 50 47 46 43 42 41 39 38 40 41 43 46 44 41 37 35 35
27 25 24 24 24 26 27 29 32 32 34 35 36 41 45 51 52 52 53 54 53 53 52 52 51 48 47 45 44 42 41 40 39 39 42 42 43 42 40 38 37 34 38
31 29 28 27 28 27 27 29 32 35 37 40 43 46 46 49 51 51 51 52 52 52 54 54 51 52 52 47 47 46 43 42 42 42 43 41 39 42 38 38 34 36 35
29 29 28 28 27 27 29 29 29 32 36 41 44 47 47 47 47 46 45 46 44 46 45 46 46 45 45 45 46 44 43 44 43 41 39 41 44 35 36 35 35 33 31
27 29 29 28 30 30 29 29 32 35 36 39 42 45 46 47 44 42 42 43 45 45 44 45 44 43 43 43 42 45 41 40 42 43 47 36 37 36 34 33 32 30 30
32 29 28 29 32 32 31 32 31 32 32 34 36 37 38 38 39 42 44 45 46 46 47 45 42 43 43 44 45 47 45 47 47 38 36 38 32 30 31 30 29 29 30
37 33 31 31 33 32 29 29 32 33 33 33 35 37 39 40 42 42 44 45 46 49 48 51 48 47 48 51 51 41 38 39 31 31 34 29 31 29 29 29 29 29 30
36 35 36 34 33 34 31 32 32 33 34 35 37 39 41 43 43 43 43 42 41 40 36 37 39 41 41 39 39 34 33 36 33 33 32 31 29 28 27 28 29 30 29
30 31 31 29 32 33 32 32 29 29 32 34 33 34 37 40 43 45 41 39 38 36 35 32 31 34 36 35 33 33 32 29 29 30 31 29 27 27 28 29 29 29 28
30 30 27 24 25 29 28 26 26 29 29 30 31 32 33 36 34 33 30 30 29 28 30 32 31 28 29 30 31 31 29 30 30 29 28 27 27 28 29 29 28 29 31
28 30 29 28 28 30 30 29 31 30 29 28 26 24 25 24 26 26 26 29 27 29 33 32 35 29 28 28 29 28 28 28 28 28 28 29 29 29 28 29 30 31 30
23 25 27 29 30 30 30 30 29 26 26 28 29 28 26 23 24 24 25 26 27 29 29 30 30 29 27 26 24 25 26 27 28 29 30 31 30 29 30 31 31 31 32
21 22 23 25 27 27 27 26 25 25 24 22 22 22 23 24 24 23 23 24 24 23 23 24 25 25 25 26 26 26 27 29 30 30 30 30 31 32 32 33 33 33 35
22 22 22 21 22 24 25 25 25 25 25 25 25 24 23 24 24 24 23 23 24 23 23 22 22 23 24 25 26 27 28 29 28 27 28 30 32 34 34 35 35 37 37
22 20 21 21 21 22 24 24 21 22 25 24 24 23 22 22 24 25 25 25 24 23 23 22 23 23 24 25 26 27 28 28 30 31 32 33 34 36 36 38 39 39 39

GFSMW_500_spd_090.txt.gz
Wind_Speed
46 40 38 43 50 54 53 47 46 44 44 41 41 39 39 39 41 43 44 43 42 39 37 36 34 33 30 30 31 31 32 32 33 32 33 34 36 36 37 37 41 45 44
48 43 38 39 42 50 54 56 55 50 46 44 42 43 42 45 44 43 43 43 43 41 40 38 37 36 34 34 34 35 35 35 36 35 36 35 37 39 39 42 43 46 41
47 45 41 40 40 45 50 54 55 55 52 49 45 43 44 44 41 44 45 48 45 44 42 40 40 39 38 37 38 39 38 38 37 38 38 41 43 43 42 43 44 43 40
47 48 45 40 41 42 45 52 54 55 56 55 48 47 49 47 45 41 44 53 51 49 42 40 40 39 40 41 42 42 42 43 41 40 41 43 48 46 44 45 45 41 37
48 49 49 42 40 42 46 50 55 54 59 57 55 52 52 50 48 44 43 48 48 36 47 45 39 41 44 44 45 45 47 47 47 44 46 49 46 45 46 45 45 40 38
52 49 51 44 42 44 48 53 53 56 55 57 56 58 53 50 50 47 48 44 42 42 47 42 43 48 50 50 49 50 50 50 51 49 53 51 47 46 47 45 40 39 40
51 49 52 48 43 46 46 49 56 54 54 58 54 52 53 54 51 49 48 51 52 50 50 51 53 55 55 52 54 54 54 52 52 57 52 50 50 50 47 43 38 38 41
47 48 49 51 48 49 46 45 51 59 56 56 54 52 51 53 55 53 55 56 53 50 55 57 56 56 56 56 55 55 53 55 57 53 53 52 51 49 44 40 38 40 41
40 41 42 45 47 45 46 47 50 58 55 54 54 51 51 49 46 48 50 49 55 56 53 53 53 54 55 56 56 56 56 53 53 54 52 51 48 42 40 39 39 41 40
33 37 38 45 42 41 45 47 47 50 53 55 55 53 53 62 60 58 54 57 53 52 51 50 49 47 47 48 49 50 51 52 51 48 46 44 41 40 39 39 39 40 40
24 25 31 36 35 39 46 42 46 52 51 49 50 55 53 58 59 58 55 56 53 53 51 48 48 47 46 45 45 45 45 45 45 43 43 42 41 40 38 39 40 42 42
22 21 23 36 38 39 35 36 45 52 55 52 56 48 59 51 55 60 64 62 58 53 50 48 48 48 48 48 47 47 46 45 44 43 42 41 40 38 40 40 41 41 35
26 26 25 25 28 27 27 24 22 31 32 67 70 67 60 54 56 57 51 48 50 52 52 49 49 49 49 49 48 48 47 45 44 43 42 41 40 42 42 43 41 36 39
29 29 29 28 27 25 24 21 20 21 23 25 26 30 37 34 30 35 39 40 43 46 48 50 50 50 50 50 48 47 45 44 44 46 44 46 44 44 45 39 37 39 34
33 31 30 29 26 26 24 22 21 21 22 23 27 30 33 37 40 42 44 46 47 47 48 47 46 48 48 47 44 42 41 42 42 43 45 47 46 42 37 38 35 31 34
27 31 30 28 27 26 26 26 25 25 24 24 26 29 31 35 38 42 45 47 48 47 46 45 45 46 46 44 42 42 42 42 41 41 42 44 45 41 40 35 34 34 31
26 27 28 28 26 26 27 28 28 26 27 29 29 29 31 33 35 38 40 40 39 39 41 43 44 46 46 46 43 40 41 40 38 39 41 43 44 40 38 33 31 28 30
28 31 35 35 31 28 29 30 29 25 26 27 29 30 31 32 36 38 39 40 40 40 41 41 43 44 45 45 45 47 46 45 45 46 41 33 33 28 27 25 30 28 29
28 32 37 39 39 35 33 30 31 29 30 30 31 33 34 36 38 39 41 41 42 43 41 42 41 41 41 38 36 40 44 44 46 38 36 30 28 29 29 28 29 28 27
30 33 35 38 38 37 35 33 31 33 32 30 32 33 34 36 38 37 37 40 39 39 41 43 42 40 37 36 31 30 33 32 33 31 31 30 29 27 28 29 28 26 27
26 31 32 32 31 29 30 30 30 30 29 28 29 30 31 32 34 34 35 38 35 34 32 33 32 29 32 31 31 32 30 29 31 33 31 29 26 27 27 27 26 27 29
25 26 29 30 29 29 28 28 27 28 29 31 32 32 33 31 30 28 28 27 25 26 27 28 26 28 32 29 31 31 33 31 29 27 27 26 26 26 26 27 28 29 29
23 25 27 28 30 31 32 32 31 31 33 32 30 30 30 30 30 29 27 24 26 26 28 27 30 29 27 28 28 26 26 26 26 25 25 25 25 26 27 29 29 30 30
22 22 23 25 26 27 28 29 29 28 28 28 28 27 26 24 24 24 25 24 23 22 23 23 23 23 24 22 20 21 21 22 23 24 25 25 26 29 30 27 27 30 32
22 22 22 23 24 24 25 26 27 27 26 26 27 26 27 27 27 26 26 25 24 23 23 23 23 22 21 21 21 22 22 23 24 26 27 28 29 26 26 29 30 31 32
21 21 22 20 22 24 24 23 23 25 27 27 24 24 25 25 25 24 24 24 23 23 25 25 24 23 22 21 21 22 23 24 25 26 27 27 27 29 31 33 34 35 36

GFSMW_500_spd_096.txt.gz
Wind_Speed
53 53 51 47 46 45 45 36 44 40 34 30 31 34 29 28 33 32 33 35 36 38 39 40 41 43 44 41 39 38 35 31 31 30 30 28 29 32 30 32 34 34 38
55 54 52 50 49 46 42 45 42 41 38 36 37 36 36 35 37 39 39 37 38 38 39 39 42 46 46 42 41 41 39 35 31 31 31 29 31 32 34 34 35 38 40
51 56 55 54 52 48 43 43 44 45 45 41 40 40 44 43 42 44 46 45 43 42 41 39 39 36 38 32 41 46 43 36 32 32 33 34 33 35 36 37 39 40 41
50 49 54 56 53 52 49 46 45 45 47 46 45 41 42 45 48 50 49 49 49 47 45 46 46 36 31 26 30 38 47 45 35 33 35 38 39 41 44 44 44 42 43
47 61 55 52 55 55 52 49 48 48 47 42 39 39 42 45 48 50 53 54 53 51 49 52 52 51 50 41 41 28 21 31 43 44 45 46 47 49 49 47 45 45 44
41 43 50 52 52 54 54 51 49 48 47 41 38 39 41 42 44 44 52 55 56 54 49 44 50 48 49 43 39 38 34 37 39 42 44 45 48 48 49 49 49 48 45
30 33 43 47 47 51 53 51 52 51 49 45 45 45 46 44 43 45 48 52 55 55 53 53 55 56 49 47 50 48 43 46 44 45 45 45 47 50 51 52 51 48 44
38 37 41 41 42 46 47 50 52 53 53 49 46 46 45 44 46 48 50 49 52 50 54 54 52 50 47 50 48 50 53 51 48 46 45 47 48 49 49 45 44 43 41
48 45 44 43 45 46 46 48 48 51 55 53 51 50 49 49 50 51 55 55 61 53 50 56 51 48 49 45 49 51 50 51 47 46 46 48 48 45 45 44 41 38 36
46 47 41 43 43 45 48 52 54 55 54 54 53 52 52 51 53 55 61 59 57 58 64 65 51 51 51 48 48 53 52 49 48 47 47 47 47 45 43 42 40 40 38
36 41 42 39 42 43 45 48 51 54 57 56 56 55 55 54 56 60 63 60 59 58 59 54 51 49 53 54 56 56 54 52 52 48 49 50 49 46 45 44 41 40 40
33 35 36 38 40 41 42 43 44 47 48 51 52 52 51 52 56 60 57 58 53 50 48 50 50 52 55 58 65 64 59 56 53 51 50 51 51 49 46 45 45 42 43
32 32 33 38 41 39 40 41 42 43 44 45 46 45 48 47 50 50 53 50 52 47 49 45 53 59 68 56 59 48 50 54 49 49 50 51 52 52 49 47 46 44 45
35 35 34 37 38 35 36 37 37 36 33 34 37 39 35 36 40 43 40 47 50 54 56 60 62 59 46 49 46 42 42 41 42 43 46 47 48 48 48 46 46 46 45
38 37 38 37 38 37 35 32 30 29 27 28 28 28 31 32 31 27 29 25 27 35 40 37 34 36 38 39 38 41 41 41 42 43 45 46 46 45 44 47 44 41 39
39 39 37 38 39 38 36 34 34 33 31 31 32 32 32 32 33 30 27 27 28 30 29 32 36 37 37 39 39 39 42 42 44 44 45 46 46 44 42 40 37 35 34
41 37 34 35 37 37 38 37 36 34 34 34 35 37 37 36 34 31 30 30 31 30 29 31 32 33 34 36 37 40 41 42 43 43 43 44 44 44 43 36 35 35 34
27 31 31 33 35 40 40 39 40 37 36 35 36 39 40 37 34 33 33 33 32 31 32 34 36 36 37 37 40 42 42 44 44 43 43 41 39 41 42 44 42 44 37
28 29 29 30 34 39 39 37 38 39 37 34 35 37 38 38 36 34 34 32 32 33 34 35 35 36 38 38 38 40 42 43 44 45 44 42 40 37 38 40 41 39 38
29 28 31 31 30 31 35 39 39 37 38 37 37 35 35 35 37 39 39 36 35 35 34 34 32 32 34 36 38 39 39 41 43 44 39 39 43 39 37 36 36 36 36
34 32 32 31 29 30 30 31 33 35 40 44 42 41 39 38 38 38 40 39 38 36 35 35 32 33 33 32 30 29 32 32 32 29 29 32 36 36 34 35 32 31 31
34 34 32 32 31 30 29 31 30 29 28 29 32 36 38 39 39 39 39 37 35 35 35 35 34 34 32 30 31 32 32 31 30 30 30 30 33 37 35 31 30 30 31
30 30 30 29 30 31 30 29 28 28 29 29 31 32 34 35 35 34 35 35 35 35 34 33 32 30 29 29 28 28 28 28 28 30 26 29 27 27 30 29 31 32 32
26 27 29 28 29 29 28 28 28 27 28 30 32 33 33 33 33 34 35 35 33 32 30 30 29 28 28 27 27 27 27 25 24 24 24 23 22 22 26 29 31 32 32
25 26 26 26 26 26 25 24 24 26 28 30 31 32 32 32 32 33 33 31 30 30 31 30 31 32 32 31 31 28 27 26 24 23 24 23 23 23 25 26 27 27 27
23 22 22 23 24 24 24 23 23 25 26 28 29 29 29 29 29 29 29 30 30 30 29 30 29 27 27 28 28 28 26 26 25 24 23 22 23 24 25 26 26 27 27

GFSMW_500_spd_099.txt.gz
Wind_Speed
50 47 44 42 42 39 32 33 35 35 32 31 27 26 25 29 27 25 27 28 29 30 31 34 35 35 37 39 43 44 40 38 39 39 38 34 33 32 33 33 32 33 34
55 51 49 48 46 42 38 38 44 39 38 35 31 30 31 28 27 28 30 32 34 37 36 36 36 33 35 39 41 43 44 42 42 43 40 36 35 34 32 34 34 35 37
55 52 54 54 51 47 45 42 42 44 45 41 32 36 37 35 36 37 36 35 36 38 40 42 44 44 39 37 38 28 22 30 37 49 48 42 34 35 37 34 34 39 42
60 57 53 50 48 49 50 49 46 44 42 40 39 42 42 42 40 39 41 41 42 43 45 46 47 47 44 42 39 38 38 44 36 34 46 49 47 41 40 40 42 44 47
49 53 55 56 53 54 52 50 49 46 45 44 45 48 47 46 46 44 40 40 40 39 42 46 50 51 50 48 45 34 40 38 31 29 32 36 40 42 46 46 43 44 47
44 46 42 42 47 52 57 54 52 50 50 47 48 47 46 45 45 43 40 38 41 43 44 45 48 49 44 48 40 43 46 49 41 41 37 37 40 42 43 43 44 45 46
58 53 50 45 41 46 54 53 54 55 53 51 50 49 49 48 46 44 41 39 42 42 45 44 44 51 52 51 51 50 52 53 43 43 45 47 50 45 43 42 44 46 47
49 48 41 43 45 44 48 57 56 52 54 54 53 52 51 51 49 47 46 44 47 47 48 48 49 41 50 53 50 56 46 44 48 51 48 47 50 47 43 44 44 47 45
36 38 36 35 36 36 39 43 46 48 52 54 54 55 54 54 54 51 50 48 51 52 50 52 54 56 51 57 52 47 46 45 43 44 46 47 46 46 44 45 44 45 44
43 45 46 46 43 41 41 41 42 44 48 51 54 58 56 57 56 55 54 53 53 56 55 55 57 56 58 59 60 63 59 51 49 47 48 51 50 49 48 45 47 47 44
42 46 48 49 48 48 46 46 46 47 50 51 52 54 57 59 60 61 55 55 57 58 61 61 61 63 61 60 60 53 50 50 51 48 50 50 51 51 47 50 48 47 46
36 38 38 42 46 48 48 47 47 48 52 53 54 57 57 58 58 58 60 60 61 62 63 64 65 64 59 54 52 54 54 53 54 54 56 52 46 49 50 51 48 47 47
37 37 39 38 40 43 47 49 48 46 48 50 52 52 51 52 54 53 55 56 58 61 62 61 56 57 56 56 51 46 51 49 52 53 55 53 48 46 47 48 47 48 47
33 34 35 35 39 42 43 45 45 46 47 49 49 51 49 48 48 47 47 51 54 56 55 52 53 50 50 52 55 55 56 48 42 42 43 41 42 41 44 44 45 46 45
32 32 35 38 39 40 41 45 46 46 47 48 48 49 48 44 40 39 39 40 40 40 38 41 41 35 37 44 46 42 41 40 43 46 45 44 44 44 43 42 44 45 45
32 35 38 40 42 42 43 42 43 43 41 40 39 38 37 35 34 34 35 35 36 34 32 30 31 33 34 33 34 35 37 38 40 41 41 42 43 43 43 43 45 44 43
34 37 38 41 42 41 42 40 40 41 42 40 38 37 37 37 36 36 38 38 38 36 35 35 34 34 34 32 33 35 37 38 38 40 41 41 41 42 42 41 41 43 43
31 34 41 43 42 39 41 42 41 40 41 41 41 40 39 40 40 41 41 40 39 39 37 35 35 34 34 35 36 38 40 40 41 41 41 42 43 44 44 43 42 40 40
28 31 33 33 35 39 41 42 42 41 41 41 41 41 41 41 42 42 43 42 42 39 36 35 34 36 36 36 36 35 36 38 41 42 42 42 43 44 43 42 43 41 39
32 30 30 30 31 34 37 40 41 39 37 38 39 41 45 45 41 40 40 39 39 38 38 38 37 38 38 37 35 35 34 35 36 34 35 38 36 35 33 33 35 38 40
33 35 34 32 32 32 33 33 34 34 36 38 39 39 40 42 41 40 37 37 38 38 38 40 41 42 39 38 37 38 36 34 35 34 33 31 31 29 30 31 30 36 36
36 35 36 37 35 32 31 31 32 33 33 31 31 31 33 37 38 39 40 41 41 41 40 39 38 37 36 37 38 37 35 32 31 31 32 32 31 31 29 31 31 27 32
34 35 36 37 37 37 34 33 33 33 30 29 30 31 30 31 33 36 37 38 38 38 37 36 35 36 35 35 35 33 33 32 30 29 29 31 29 28 31 32 28 24 27
30 32 33 33 33 33 31 31 31 32 31 30 30 31 30 31 32 32 34 35 34 34 34 34 34 34 33 32 32 33 33 32 33 31 31 31 30 29 26 26 24 24 26
32 29 29 28 28 30 30 30 31 31 30 29 30 31 31 32 32 32 33 35 35 35 34 33 33 32 32 32 32 32 32 33 33 33 32 31 28 27 26 24 23 24 24
29 27 28 27 28 28 28 29 29 29 29 29 29 30 30 31 31 32 33 33 33 32 32 31 31 30 31 30 29 26 26 27 28 30 31 28 27 27 24 25 25 25 25

GFSMW_500_spd_102.txt.gz
Wind_Speed
38 39 39 43 42 40 39 29 26 32 33 33 36 35 33 24 25 22 20 17 20 23 26 28 27 26 28 30 32 34 36 38 41 41 42 40 39 38 38 38 38 36 36
43 39 39 39 37 34 30 33 29 29 35 31 42 33 32 26 22 22 21 22 23 26 28 31 31 30 33 36 36 37 32 33 29 28 30 34 45 49 43 41 41 41 39
48 44 41 41 37 37 36 35 32 31 30 29 28 27 24 27 28 26 25 29 30 30 33 34 34 36 38 39 40 34 28 35 38 36 33 35 31 36 45 48 43 40 40
52 51 44 43 42 43 43 42 39 36 36 35 35 38 36 33 33 32 35 35 35 34 36 38 37 38 39 41 41 34 39 36 37 30 29 30 32 33 37 42 44 46 50
51 49 50 49 50 49 47 50 48 42 41 39 41 39 40 34 33 36 36 35 36 37 38 36 37 39 41 40 44 43 39 28 31 39 41 41 38 35 32 33 35 39 40
54 50 53 55 53 48 45 45 45 45 46 45 45 44 42 39 40 39 40 42 41 40 39 39 37 39 38 33 43 29 38 42 39 45 49 47 43 44 41 41 45 44 39
50 47 45 42 44 53 53 51 51 51 52 49 47 46 45 45 44 45 45 44 42 42 44 38 38 41 43 42 48 52 38 48 46 43 46 43 43 44 47 51 45 41 41
40 49 51 47 40 43 43 38 38 43 46 49 50 50 49 49 48 47 47 47 47 47 46 44 45 44 45 48 49 49 50 46 46 49 49 47 53 46 44 44 42 41 42
43 42 46 52 48 48 48 48 44 41 40 45 48 49 47 49 51 51 50 50 50 50 50 48 50 52 51 52 52 53 53 49 55 58 59 61 51 52 51 50 46 43 41
35 44 47 45 50 51 55 52 49 44 42 42 45 49 52 51 51 52 52 53 52 53 54 54 55 56 57 55 55 55 57 59 59 59 58 60 54 53 53 51 48 48 46
35 34 42 46 47 46 44 42 39 38 40 41 44 46 47 47 48 48 51 53 55 55 58 60 59 59 58 59 59 60 62 63 61 63 54 55 51 53 51 53 51 47 46
47 41 38 39 40 44 45 44 44 45 45 45 45 44 46 47 48 48 50 52 54 55 59 61 61 60 60 61 60 62 65 62 59 55 57 49 46 46 51 50 49 50 51
41 40 40 41 43 46 48 49 49 48 48 49 50 49 48 50 52 54 55 56 59 60 61 60 60 61 61 62 62 64 61 58 58 55 51 52 49 47 48 44 45 45 45
40 40 42 41 42 45 46 47 46 47 47 47 47 49 48 49 51 52 54 56 56 55 57 58 59 59 58 56 52 50 46 46 50 48 49 45 46 43 41 43 44 43 44
42 44 45 45 42 43 45 47 47 46 46 47 49 49 49 49 49 49 49 51 51 53 53 50 47 45 41 39 37 34 33 32 31 34 38 40 41 41 42 43 43 43 43
41 44 45 46 45 44 42 43 45 45 45 46 48 49 50 49 49 49 48 49 49 48 44 40 39 37 36 36 36 37 36 36 36 37 38 38 39 39 39 41 40 40 40
30 31 33 36 36 38 38 41 42 42 43 44 44 44 44 43 40 40 39 40 41 40 39 38 39 39 38 37 35 36 37 38 38 38 39 41 42 41 41 41 41 42 42
32 33 36 37 36 35 39 42 43 43 44 44 43 42 42 41 40 39 38 39 40 41 41 40 39 40 39 36 36 37 37 38 38 37 38 39 40 42 42 42 42 42 42
33 28 30 36 39 41 43 44 46 47 45 43 42 41 40 41 41 42 42 41 41 41 42 43 42 42 39 37 36 37 37 38 39 38 38 38 38 38 37 37 38 37 36
39 33 32 33 34 36 37 40 42 46 45 40 38 40 42 42 42 42 42 42 43 42 40 42 42 40 39 39 39 40 40 39 40 39 39 39 37 35 35 33 32 29 29
31 31 33 34 33 34 35 37 37 36 40 41 40 37 37 39 40 38 38 41 43 42 40 39 38 37 37 36 37 39 40 40 39 39 38 37 34 32 33 33 30 30 31
27 31 31 32 33 35 34 32 31 35 37 36 35 32 33 33 33 36 38 40 41 43 43 43 42 41 39 39 39 38 37 37 38 38 35 33 32 31 31 31 30 30 31
35 36 35 33 33 33 33 34 33 32 31 30 30 30 31 32 33 34 35 36 37 38 38 38 39 39 37 37 36 36 35 35 35 33 32 31 32 33 33 32 31 30 29
31 30 30 31 31 31 31 32 32 32 30 29 30 29 29 31 32 33 33 34 34 33 33 33 34 36 36 36 35 34 33 32 33 34 34 34 35 35 34 33 30 30 27
27 29 29 28 27 28 27 28 29 30 30 30 30 30 30 31 32 32 32 33 34 34 34 34 35 35 35 34 34 33 31 31 32 31 29 29 29 29 31 30 28 27 27
23 25 28 31 29 28 28 27 27 29 30 30 29 29 30 30 31 32 33 33 32 32 33 33 33 32 33 32 31 29 30 30 30 30 28 27 27 27 28 29 28 27 24

GFSMW_500_spd_105.txt.gz
Wind_Speed
38 34 41 40 35 33 31 32 44 51 44 47 43 44 45 42 37 32 30 24 25 28 23 22 23 23 23 25 25 25 28 31 31 32 31 33 31 34 34 38 41 42 41
46 39 31 33 38 35 41 37 31 38 40 40 44 49 49 45 37 39 38 35 30 26 26 24 24 23 26 30 30 31 32 32 33 30 25 30 24 29 32 34 33 38 42
46 43 42 37 29 29 29 36 34 39 28 47 40 38 42 38 34 34 41 40 35 32 30 27 26 27 30 32 35 36 36 29 28 28 32 33 27 23 24 29 31 34 36
45 42 40 36 33 36 34 29 36 31 32 32 41 45 31 37 38 47 38 29 27 28 26 28 30 30 33 35 31 30 30 29 24 27 18 23 28 34 30 31 35 38 40
46 43 42 40 38 38 35 37 40 40 36 29 32 33 31 30 26 26 30 29 33 32 27 28 29 32 35 33 33 31 37 33 31 27 30 32 35 34 42 41 36 36 39
48 46 45 43 41 40 39 38 39 34 34 35 37 29 30 31 35 32 31 29 26 26 26 32 33 34 32 37 34 34 32 29 35 46 40 37 40 38 41 41 41 38 43
56 52 49 44 42 43 42 42 42 41 41 40 40 40 41 39 38 38 37 34 33 34 32 34 36 37 38 39 39 40 43 42 43 41 42 42 44 45 45 46 49 51 47
49 54 51 48 45 46 44 44 45 46 44 42 38 38 40 42 42 44 40 40 40 40 40 39 41 42 44 45 44 44 47 47 46 47 46 45 46 50 51 53 53 52 45
39 52 51 50 50 45 43 39 37 40 44 46 40 40 44 46 48 48 45 44 44 44 45 45 45 47 48 50 50 49 50 52 55 53 52 52 53 54 56 57 58 54 49
31 31 38 40 41 46 48 44 40 36 40 39 38 37 37 40 45 44 44 44 44 46 47 48 49 49 49 52 54 53 55 57 57 57 55 57 58 58 60 57 54 52 51
39 31 29 36 39 40 40 40 41 40 45 45 44 44 43 42 42 42 44 46 47 47 47 46 46 49 51 53 56 58 58 60 61 59 61 60 61 61 61 55 49 48 46
43 42 34 29 32 40 40 40 41 42 40 43 45 43 41 40 39 39 40 42 42 43 44 45 46 47 50 52 54 58 59 59 60 59 60 62 62 58 54 51 50 49 47
46 45 44 37 34 35 36 37 38 40 38 39 39 38 39 40 41 43 43 44 46 46 47 48 49 51 53 54 55 57 58 59 60 57 55 52 50 48 51 50 48 44 45
45 48 49 50 47 41 38 40 41 41 44 45 45 45 44 44 45 46 47 48 48 49 49 50 50 50 50 50 50 52 51 50 49 47 45 44 41 39 37 36 39 42 41
37 38 41 46 56 53 50 43 43 44 45 45 48 47 45 46 46 46 47 48 49 48 48 49 48 48 48 48 46 45 42 41 40 37 39 39 37 37 37 38 39 39 39
35 38 41 41 41 44 48 49 50 47 47 48 47 46 47 47 46 48 49 49 49 49 49 50 48 48 46 44 41 39 39 40 40 40 38 38 38 38 39 40 40 40 41
34 37 38 41 42 44 45 47 47 46 48 49 48 47 47 44 44 45 47 46 47 47 47 45 45 42 40 39 38 39 38 38 39 39 38 38 38 38 38 39 38 38 40
34 34 35 38 39 39 41 41 42 42 45 45 45 43 42 41 41 42 42 42 40 38 39 39 38 39 39 38 40 39 39 39 38 39 39 39 39 38 40 40 39 39 38
35 36 36 36 37 37 36 38 39 36 38 43 44 43 42 42 41 40 40 40 40 40 40 40 39 38 38 39 40 41 41 41 40 40 40 39 39 40 41 40 38 37 36
36 37 38 37 34 35 37 38 38 38 42 43 42 43 43 40 38 39 39 39 39 39 40 40 39 38 37 38 40 40 40 40 40 41 42 41 40 40 39 39 37 34 32
33 35 37 39 34 34 34 36 36 36 37 39 42 41 38 36 35 37 40 41 42 43 42 42 41 39 39 38 38 38 38 39 40 40 39 38 37 37 38 37 34 31 29
27 28 33 38 39 35 32 33 34 35 36 36 36 33 29 29 31 35 37 37 40 42 42 40 41 42 42 41 43 44 45 45 44 42 39 37 36 36 35 34 32 31 30
31 31 32 28 28 28 29 31 33 36 35 33 28 27 32 35 36 37 36 37 36 36 38 40 41 39 41 40 39 39 38 39 39 38 37 34 33 34 35 35 34 33 32
27 29 30 30 31 33 33 30 29 31 31 31 32 31 31 31 32 32 33 34 36 36 36 36 34 34 36 36 35 35 36 36 36 35 35 33 33 33 32 32 31 29 27
18 21 23 23 27 28 28 27 27 28 30 31 30 30 31 33 34 34 34 34 34 34 34 34 35 36 36 36 37 36 36 35 33 34 33 31 30 29 28 28 28 26 26
17 17 20 21 23 23 28 25 24 25 26 29 30 31 31 32 32 33 33 33 34 33 34 35 35 35 35 34 35 34 34 32 32 33 31 31 31 31 30 28 26 24 24

GFSMW_500_spd_108.txt.gz
Wind_Speed
42 37 33 26 21 28 54 55 59 57 58 58 58 59 57 56 52 48 43 41 39 37 35 35 33 31 29 26 24 22 25 27 29 29 30 30 31 31 24 22 25 26 31
34 34 30 31 22 28 31 40 50 59 63 61 60 64 65 64 59 51 47 43 40 39 40 39 36 31 28 26 25 24 27 29 29 28 30 31 30 31 29 30 30 29 30
48 40 31 26 36 34 36 27 42 36 58 58 66 66 60 56 53 51 47 45 43 41 35 35 36 33 29 27 28 29 31 30 29 28 25 29 28 19 19 24 30 33 31
49 38 34 39 42 27 24 26 33 36 44 49 54 52 51 46 56 48 52 45 45 42 39 36 30 34 28 29 33 33 32 28 26 27 30 19 24 19 19 26 30 35 35
40 42 37 33 40 40 32 32 31 32 24 32 49 46 55 52 37 49 45 45 42 44 40 39 33 35 28 30 31 33 31 26 28 21 26 35 31 32 31 31 33 35 36
48 46 43 41 39 38 25 28 28 31 26 24 35 26 37 35 35 39 37 41 35 31 37 30 24 24 24 26 27 30 35 33 36 36 40 41 38 35 34 33 34 35 37
44 44 43 43 45 38 33 30 29 31 32 30 33 27 31 27 33 28 22 27 28 25 24 25 24 24 28 32 34 35 39 40 41 40 39 41 43 42 39 39 40 42 42
41 41 42 40 43 42 43 40 36 35 33 31 31 33 33 36 36 36 32 30 27 27 32 29 26 30 35 36 38 41 42 45 47 47 45 47 48 49 49 48 47 49 49
48 46 37 40 45 45 41 41 38 38 37 37 36 37 36 35 32 35 34 34 36 37 39 36 34 40 41 41 42 45 46 47 48 49 51 53 54 54 54 54 56 55 55
34 32 45 40 42 45 45 42 40 41 40 38 39 39 41 41 38 35 35 35 36 38 41 42 44 46 45 45 45 47 48 49 49 51 52 54 56 57 57 56 56 58 58
40 33 40 44 46 43 46 45 45 42 37 35 34 34 38 41 36 33 32 34 34 35 39 40 42 44 46 46 46 44 45 46 48 52 53 54 55 58 59 59 59 57 56
31 31 36 31 34 36 40 39 43 43 44 43 41 36 34 39 38 38 38 38 39 37 37 36 36 39 41 41 43 43 45 46 48 50 51 53 54 54 53 52 51 50 49
36 33 34 40 38 33 34 34 37 38 39 37 38 39 38 39 41 40 39 38 39 39 39 38 38 40 42 43 45 47 49 49 47 46 47 49 49 48 47 47 44 42 36
40 39 38 37 37 36 36 34 35 38 42 40 40 41 40 38 39 39 39 40 40 42 42 42 43 45 46 46 46 48 47 48 44 43 43 43 42 42 38 39 38 37 37
39 41 43 42 42 40 39 38 38 35 38 40 40 40 41 42 42 42 43 42 44 44 47 46 46 45 46 47 48 47 46 46 42 40 40 38 39 38 39 39 38 37 36
34 37 43 43 44 43 44 45 46 45 43 40 40 40 43 45 45 45 44 44 45 46 47 44 45 48 48 49 46 47 44 43 39 37 36 36 36 36 39 38 38 38 38
30 31 34 38 40 41 43 45 45 45 47 46 45 46 45 45 46 45 46 48 49 50 48 47 46 44 43 42 41 39 38 36 35 36 37 34 35 37 39 39 39 39 39
33 33 34 37 39 41 41 43 43 43 43 45 45 45 46 46 47 47 48 48 46 47 46 42 39 35 33 33 34 35 36 36 38 41 40 37 37 39 40 41 40 40 41
33 36 36 37 38 39 40 41 43 43 43 45 44 45 43 45 45 44 42 41 39 37 38 36 35 36 35 36 37 38 38 37 39 40 41 39 39 41 42 43 43 43 41
37 43 39 38 40 39 38 38 39 40 42 45 46 42 43 43 42 40 40 38 36 35 35 36 36 37 37 37 39 38 38 39 39 41 43 40 39 40 40 40 40 39 39
33 40 40 42 41 40 40 38 35 36 38 38 37 41 44 42 40 38 36 36 36 36 36 37 39 41 41 42 43 43 42 42 42 40 39 39 42 43 44 43 42 39 38
23 29 33 36 40 38 38 40 37 35 36 36 35 35 36 37 37 38 38 37 38 38 39 41 42 43 45 44 44 44 44 43 43 44 45 44 44 44 43 41 39 37 34
27 26 25 28 31 32 35 38 39 39 38 35 34 34 32 32 33 33 31 33 36 38 40 41 40 42 42 41 41 42 43 44 43 40 37 37 36 37 37 36 35 35 35
27 31 33 32 30 29 29 31 32 33 34 34 35 35 35 34 33 33 34 34 35 37 39 39 40 39 39 39 39 40 39 38 38 37 38 38 38 36 35 34 34 34 34
21 23 27 29 28 27 28 28 27 29 31 33 33 35 34 35 36 36 34 34 34 34 35 36 37 38 37 38 39 38 39 37 38 39 37 35 34 33 33 33 32 31 30
22 18 18 20 22 23 24 24 27 29 29 31 32 33 34 35 35 35 35 36 38 38 38 39 38 37 38 39 37 37 38 37 36 36 34 33 33 32 32 32 33 32 32

GFSMW_500_spd_111.txt.gz
Wind_Speed
38 42 66 72 47 51 43 36 65 64 64 64 58 54 52 52 52 50 49 49 45 46 43 40 36 39 36 37 34 33 32 30 27 24 24 28 31 34 34 30 31 25 27
40 35 39 53 35 29 41 43 53 67 69 65 61 58 54 55 54 52 51 51 49 48 46 41 43 40 39 37 36 35 33 30 26 26 28 30 31 32 25 14 16 14 17
39 29 36 36 19 25 33 40 46 57 75 67 60 60 60 60 58 58 58 56 55 52 50 47 43 39 38 38 37 36 34 29 28 30 30 30 31 10 17 12 14 17 24
39 33 34 35 37 29 27 44 45 47 60 59 58 64 60 58 59 59 59 59 60 57 52 46 41 41 40 38 37 40 34 31 32 29 29 18 21 27 31 23 21 24 26
44 46 36 34 30 35 33 38 31 42 47 61 51 62 62 62 62 61 61 60 51 54 51 46 42 42 40 38 35 39 30 26 22 20 24 26 31 28 28 26 24 26 33
38 37 36 31 30 33 39 31 25 39 47 46 39 55 61 59 59 64 67 66 60 52 52 45 45 44 40 40 33 29 30 22 25 26 32 30 31 31 31 32 32 33 33
34 35 32 35 32 26 22 34 20 32 32 53 36 42 48 53 55 59 61 36 43 57 52 42 43 43 37 29 27 25 19 25 30 32 35 35 34 36 38 39 39 41 41
33 33 34 35 35 36 35 31 26 30 25 21 22 27 22 45 46 35 29 47 29 41 55 35 29 24 26 23 22 21 20 31 35 37 39 40 41 41 43 43 45 45 46
31 30 30 32 33 34 36 33 33 33 32 30 29 31 21 24 29 28 27 31 25 24 23 26 27 26 26 28 29 32 35 36 38 41 42 44 45 45 45 45 47 47 49
40 40 37 34 33 31 33 34 34 36 34 29 30 28 27 28 31 28 28 26 27 28 28 28 31 28 34 33 32 37 39 37 38 43 43 43 43 47 47 48 49 50 52
35 38 44 42 42 37 33 37 41 42 40 37 33 32 33 34 35 33 33 30 30 30 29 28 29 31 32 35 38 39 39 43 40 39 41 44 45 48 50 50 48 50 50
29 30 29 33 26 32 38 38 37 41 42 43 39 38 36 34 32 35 35 34 31 30 29 31 32 32 33 33 34 35 38 38 39 41 44 46 49 50 51 51 49 46 43
34 33 32 31 31 28 39 42 48 43 42 43 43 41 38 37 34 33 35 36 35 34 34 34 35 35 37 37 38 37 38 41 43 45 46 48 49 51 52 50 47 43 40
35 35 33 31 30 29 31 28 32 37 39 40 38 39 41 40 38 38 36 39 40 39 39 38 37 38 37 39 40 41 42 43 44 46 46 47 49 49 48 46 44 41 37
30 33 34 32 32 32 32 32 31 31 30 32 34 35 38 39 39 40 40 39 39 40 38 39 40 39 40 41 43 45 46 45 45 48 49 49 47 47 45 42 40 38 37
31 32 34 34 36 37 36 34 35 35 35 35 36 36 38 41 43 43 40 40 40 41 41 41 42 43 44 43 46 46 44 50 50 50 49 47 46 41 39 39 38 36 37
27 29 32 34 37 37 37 39 40 39 39 39 39 39 38 38 38 40 41 41 44 44 45 46 46 46 47 47 48 47 48 46 46 46 45 42 39 38 37 37 37 37 37
28 28 28 30 33 37 40 41 41 42 44 45 47 47 47 46 45 44 45 46 45 46 47 47 45 45 45 44 45 44 42 40 40 40 38 39 39 40 38 36 38 37 37
31 32 32 31 31 33 34 36 38 39 40 42 45 46 47 48 48 47 47 47 48 47 47 46 45 42 40 41 41 41 41 40 40 39 40 38 37 37 38 40 38 39 38
30 31 32 32 33 35 35 35 35 35 37 40 42 42 41 42 43 44 44 44 45 44 43 42 41 42 41 41 40 41 40 40 40 38 38 37 38 39 40 39 37 38 38
34 35 35 36 36 39 39 38 37 37 35 36 38 39 39 41 42 43 42 41 43 44 44 43 42 41 41 41 42 42 41 41 40 42 40 40 41 40 41 42 43 44 41
31 35 37 40 42 43 44 44 41 38 37 37 36 36 36 37 38 39 40 40 40 41 40 41 40 40 42 44 44 44 45 45 43 41 41 41 41 39 42 42 38 36 35
24 25 28 30 26 33 37 38 41 41 40 39 40 38 36 35 36 36 38 36 36 36 40 42 44 44 42 43 44 43 42 40 39 38 37 39 38 37 38 36 35 35 36
23 26 29 28 29 25 25 29 32 37 40 40 40 41 40 38 37 37 35 34 35 37 36 36 36 37 38 38 35 35 35 36 36 35 34 34 36 37 38 39 38 36 34
23 22 23 26 29 31 33 32 31 28 30 33 42 41 41 38 37 36 35 36 36 36 35 36 36 38 37 34 33 33 34 35 36 35 36 37 38 38 36 35 34 33 32
26 25 23 20 20 21 24 25 28 28 29 32 32 32 34 36 37 37 37 38 40 40 38 37 36 36 35 36 34 33 34 36 38 38 39 37 37 36 34 33 33 32 31

GFSMW_500_spd_114.txt.gz
Wind_Speed
28 40 54 57 67 66 67 56 54 48 60 61 57 60 57 54 52 52 48 46 44 44 44 43 43 42 37 42 36 28 35 32 35 35 30 26 31 30 30 32 31 28 16
26 30 43 49 67 65 59 53 37 40 49 69 66 55 56 55 52 50 48 48 47 48 46 47 45 40 46 41 31 33 37 35 34 35 30 27 28 31 33 33 19 10 10
42 29 26 43 62 64 58 41 43 43 41 69 69 69 61 57 58 55 52 51 50 50 50 49 47 51 44 39 36 37 35 38 39 36 31 29 30 29 12 9 10 14 19
35 33 30 22 45 68 63 46 30 41 42 52 71 68 62 60 59 57 56 53 54 54 51 52 53 50 47 43 39 36 35 32 36 35 33 29 23 15 13 18 21 25 27
33 33 31 19 34 50 55 43 37 41 40 47 47 52 56 57 64 60 57 54 56 57 54 60 54 53 49 43 36 35 38 37 35 27 30 28 19 11 14 18 20 23 26
31 34 35 33 34 35 45 36 40 50 48 48 49 42 53 49 46 64 62 57 56 53 57 60 56 52 52 48 44 42 37 37 38 34 24 16 18 19 18 23 26 27 26
35 29 35 38 39 25 28 30 39 40 61 32 44 42 42 50 52 58 60 54 58 50 61 57 55 57 51 47 42 38 40 42 35 28 24 19 23 23 23 28 29 31 32
31 29 30 24 25 25 20 22 18 24 33 40 41 47 48 50 40 54 55 60 54 55 55 55 59 57 54 56 45 46 45 31 25 19 20 24 26 28 30 31 31 33 36
30 29 26 29 26 27 21 15 18 14 23 19 19 35 26 35 28 36 51 51 50 42 49 62 49 58 63 37 33 30 31 28 20 26 28 28 27 32 33 33 34 32 36
28 27 21 25 24 29 26 24 20 20 21 22 25 24 22 27 19 20 24 37 39 33 21 26 33 28 46 28 20 28 23 20 28 31 29 34 35 36 33 35 36 35 37
30 29 28 27 25 24 23 24 29 28 25 23 24 21 24 28 27 27 24 19 27 26 24 21 22 24 22 23 26 26 26 32 34 36 36 36 34 35 38 37 38 40 41
33 35 35 35 34 32 29 27 25 27 30 32 31 28 28 29 29 30 28 29 30 31 31 29 26 26 28 30 30 30 33 32 31 34 30 34 39 40 41 40 42 44 45
30 31 35 35 31 29 29 34 38 33 29 31 34 34 34 35 36 33 32 32 33 32 33 30 30 33 34 33 32 31 33 34 37 35 35 39 41 41 41 44 44 47 48
28 28 29 29 30 29 31 29 25 36 37 35 35 36 33 37 37 37 35 33 31 32 35 35 34 35 36 36 35 38 37 38 37 38 40 42 42 43 44 47 47 48 48
29 30 30 30 31 31 32 31 30 28 38 42 40 45 41 43 43 42 41 41 41 41 39 40 40 41 40 39 39 40 39 41 43 42 43 44 42 44 47 48 48 49 48
22 30 34 35 35 35 36 37 34 33 35 32 30 30 34 36 36 37 38 40 38 39 39 41 42 40 39 39 40 41 42 42 43 44 45 46 46 50 49 47 47 47 47
23 28 27 31 36 34 37 37 37 35 37 38 36 35 36 35 37 37 37 40 40 42 42 43 41 41 42 42 43 45 44 45 46 47 48 48 48 48 46 45 45 45 42
23 22 25 27 28 32 36 36 36 38 39 40 40 40 38 39 39 40 40 39 41 40 40 41 41 42 44 44 44 45 45 46 47 49 49 47 45 45 44 44 43 43 43
26 29 28 25 25 27 30 33 35 37 39 40 40 41 43 44 45 45 45 44 43 43 43 44 45 46 46 46 47 47 47 47 45 45 45 43 44 43 43 45 43 40 40
27 27 31 31 31 29 27 29 30 32 35 37 39 40 41 41 43 43 43 43 45 45 46 45 46 45 45 45 46 45 43 45 45 44 44 44 44 44 42 43 43 41 41
24 31 32 31 33 32 32 31 31 33 34 35 35 37 38 38 39 40 41 41 40 41 41 41 42 44 45 46 44 44 43 44 44 44 45 44 43 45 45 45 44 43 44
23 23 28 30 31 31 32 33 34 35 37 38 38 37 38 37 38 39 39 39 39 39 41 42 43 42 44 45 44 44 43 43 44 45 45 45 46 45 43 43 42 42 41
27 22 22 22 27 30 34 36 39 41 42 44 45 42 39 38 39 38 38 38 38 39 41 41 42 42 42 44 45 46 46 46 45 45 44 43 41 38 37 39 37 36 34
20 25 24 25 27 27 27 31 28 27 33 36 41 43 43 41 41 42 43 40 40 41 41 40 39 41 41 41 42 42 44 42 40 37 37 37 37 35 35 35 35 35 35
12 19 25 25 26 28 30 31 31 32 30 30 33 36 38 41 43 44 45 45 43 41 40 40 39 41 42 41 41 40 39 40 40 37 34 33 34 34 35 35 35 35 34
15 15 22 26 26 23 24 25 26 29 30 32 32 32 32 33 34 40 46 44 44 42 42 43 41 42 40 40 41 40 37 33 31 28 31 32 35 36 35 35 35 34 33

GFSMW_500_spd_117.txt.gz
Wind_Speed
55 54 32 35 37 43 63 63 63 56 78 64 87 78 67 59 56 52 51 49 48 46 44 41 39 38 40 41 39 37 31 34 31 30 32 33 35 34 30 34 29 32 32
40 47 37 31 36 49 53 61 61 58 64 43 64 65 61 60 55 53 52 51 51 48 45 43 43 42 44 43 41 36 37 35 31 33 34 35 35 34 33 32 30 32 26
40 29 31 25 31 35 49 58 58 58 42 38 44 60 68 65 62 61 58 56 53 51 49 48 47 45 46 47 43 38 42 34 38 32 37 37 42 34 33 31 26 15 13
27 27 28 23 14 23 37 51 56 59 75 57 53 50 60 64 66 62 57 57 55 52 51 49 48 50 50 50 43 46 36 41 34 26 28 30 34 35 34 29 22 14 13
28 24 28 17 24 18 24 34 43 46 48 48 46 39 47 59 66 62 63 58 57 56 53 52 51 50 53 49 50 43 30 43 34 31 29 30 23 34 40 23 15 14 17
29 24 24 23 26 21 28 30 38 51 45 36 44 56 54 49 44 56 54 63 58 57 56 56 55 55 52 51 52 51 44 42 40 31 32 36 39 37 31 15 14 13 19
23 22 25 25 31 18 19 32 32 50 62 37 39 47 47 60 47 47 55 60 59 59 57 57 57 54 56 58 56 49 50 46 45 48 39 36 47 28 17 18 19 20 22
28 23 17 21 20 26 21 17 29 39 54 50 37 38 41 36 44 39 42 45 59 62 56 58 57 60 55 48 51 45 43 48 46 41 45 46 32 23 21 18 18 23 23
31 29 22 22 16 16 12 13 22 32 40 45 36 31 34 36 35 40 45 45 44 43 52 57 46 42 38 44 45 44 51 51 52 50 40 38 28 20 23 22 29 28 26
24 29 31 26 17 18 15 18 18 21 30 26 38 38 30 27 29 29 33 47 51 51 53 51 45 33 46 47 42 41 43 45 33 33 33 25 22 24 23 30 33 30 30
19 25 26 26 20 18 24 20 14 16 20 25 22 20 24 17 23 16 27 28 26 32 39 44 46 35 21 15 21 22 25 30 32 28 22 29 30 27 30 30 29 32 33
22 24 26 24 17 19 17 22 28 21 21 20 16 19 21 22 24 26 19 24 22 13 26 37 30 30 24 22 22 25 28 31 30 25 28 33 29 31 29 34 33 31 34
23 30 26 29 28 26 25 23 23 22 20 19 25 22 30 28 29 27 27 28 30 26 26 32 31 32 32 30 31 28 32 34 35 33 35 31 32 37 37 37 38 39 43
23 26 28 27 29 30 30 30 29 28 27 27 24 28 30 31 31 26 30 32 33 29 31 34 36 35 36 38 36 38 40 39 37 37 37 39 38 37 37 40 42 44 44
26 26 29 30 29 29 30 29 30 31 34 37 37 34 32 30 33 31 32 35 37 38 36 35 36 38 39 42 44 41 39 39 40 41 40 40 38 38 41 43 45 47 47
23 27 27 28 29 30 31 32 31 31 33 30 38 42 41 41 38 36 39 41 41 41 43 41 40 43 43 44 45 44 42 41 41 40 42 43 42 43 44 46 48 49 50
22 25 28 29 29 29 31 32 33 33 34 34 33 38 43 41 43 44 45 44 48 47 43 43 45 44 44 43 43 43 43 45 46 47 47 44 45 47 48 49 50 49 49
19 24 26 30 30 30 32 34 34 36 35 35 36 37 39 39 42 41 40 40 41 40 41 41 42 42 41 42 44 44 45 46 47 48 48 48 49 50 51 51 51 50 48
24 24 23 27 30 34 32 33 38 36 35 36 37 40 41 41 43 46 44 43 43 42 41 42 43 43 44 44 45 47 47 48 47 48 49 50 51 50 50 49 49 50 49
21 25 28 25 29 29 30 35 38 38 37 39 40 41 42 45 46 45 43 44 44 47 47 48 47 46 46 47 48 49 49 47 47 46 46 47 47 46 48 48 49 48 48
17 19 20 27 30 31 33 32 32 33 35 37 40 41 41 42 43 43 43 45 44 42 44 44 44 44 45 48 48 47 48 48 48 47 46 46 47 48 47 48 48 48 47
8 16 22 22 24 31 31 32 34 36 38 37 38 39 38 37 38 39 40 41 42 44 45 44 43 43 44 43 44 45 45 45 45 45 46 47 47 47 46 46 46 47 46
21 11 11 19 18 19 28 34 37 37 38 39 38 41 42 43 43 43 43 42 42 43 43 42 42 42 44 44 44 44 44 45 45 45 46 45 45 44 46 45 44 42 41
23 20 12 10 17 23 24 27 30 33 38 42 43 44 47 49 50 50 49 46 44 43 43 43 42 42 42 42 43 41 42 44 44 44 43 43 43 43 42 40 40 41 39
15 15 14 12 12 16 22 26 30 34 36 37 39 38 37 39 41 44 48 49 49 48 47 47 46 44 44 45 44 43 42 42 41 39 38 38 39 40 41 39 36 35 36
11 6 10 16 19 20 23 27 29 29 30 32 33 34 38 41 42 42 43 45 45 48 50 50 50 51 49 48 47 45 44 44 43 41 42 41 40 38 34 33 34 37 36

GFSMW_500_spd_120.txt.gz
Wind_Speed
55 71 74 78 70 65 40 41 53 53 47 56 64 65 66 63 63 59 54 51 50 48 46 45 42 40 39 38 38 36 38 38 37 33 35 35 34 30 38 36 33 33 36
49 55 63 66 64 65 54 57 69 47 46 67 57 47 49 59 60 57 57 56 53 50 49 48 43 42 41 40 40 41 42 41 39 36 46 42 30 32 35 37 35 36 35
19 51 58 65 40 44 65 61 42 54 68 61 56 58 58 62 53 62 69 61 56 54 52 49 47 46 44 44 45 46 45 43 37 43 51 30 34 35 34 34 33 31 33
25 19 46 60 57 28 39 49 49 48 54 56 58 57 63 61 59 66 53 59 58 56 54 52 51 49 48 48 48 47 45 43 42 49 36 31 37 28 28 29 32 34 33
18 22 15 26 61 25 17 28 35 38 50 55 51 56 55 66 71 72 65 67 63 60 58 56 53 52 51 51 49 48 47 43 44 40 37 33 36 30 31 29 32 35 32
20 20 21 27 29 22 19 16 18 38 43 45 46 46 39 44 50 61 64 65 68 66 62 59 57 55 53 52 52 52 53 49 47 39 43 35 29 33 31 32 27 38 27
20 29 26 28 11 14 22 27 26 22 27 34 44 41 38 36 40 45 61 72 71 66 67 63 56 57 55 56 57 57 55 57 57 48 43 42 41 35 34 34 39 38 36
15 18 19 19 21 18 26 24 29 26 31 27 30 41 40 43 39 48 46 48 61 61 61 61 62 58 58 61 64 66 61 57 46 51 47 40 38 41 43 48 42 33 28
31 26 21 13 14 16 11 15 16 28 36 34 33 38 37 32 47 44 42 44 45 51 55 55 55 65 66 62 59 57 44 44 39 42 39 40 39 43 39 35 36 34 33
27 22 19 13 16 12 12 16 18 19 32 38 31 30 47 48 41 49 49 43 46 48 50 50 44 40 33 45 56 32 34 42 42 39 33 34 33 38 37 33 33 30 29
20 25 24 20 18 13 14 14 16 15 20 34 32 27 29 28 27 41 39 48 48 46 47 51 51 44 49 51 46 41 37 38 40 36 37 37 34 37 35 30 29 25 30
20 17 17 18 17 18 24 20 13 14 11 15 23 29 27 26 31 34 33 33 44 38 30 33 42 47 45 49 36 36 40 24 20 26 27 39 42 41 29 30 33 33 34
18 15 17 19 20 19 13 13 18 21 14 15 20 16 19 27 20 30 23 25 26 28 25 23 28 32 34 38 34 37 30 29 27 29 29 35 38 35 36 31 33 36 37
16 19 19 18 25 24 23 20 20 19 20 19 23 22 15 23 25 32 32 31 31 28 33 29 22 26 30 33 40 38 38 37 35 36 39 39 42 41 38 37 38 39 40
19 22 23 24 23 23 28 26 26 27 25 22 20 24 27 28 26 28 32 31 33 28 28 29 30 31 30 30 34 39 40 42 40 43 42 43 40 43 42 40 39 39 39
24 25 26 25 25 25 28 27 27 29 31 30 32 33 35 34 32 29 33 36 35 32 34 33 34 36 39 40 41 44 46 45 46 50 48 42 45 46 45 45 44 44 47
16 21 27 29 30 31 29 30 30 32 33 34 35 37 36 41 42 39 38 37 39 40 40 41 44 43 44 46 48 48 47 49 50 51 50 48 48 47 45 45 44 45 48
16 17 20 25 27 32 35 33 35 36 37 38 37 38 40 38 40 46 50 46 49 44 44 48 53 54 51 52 53 53 53 54 52 51 50 47 46 46 49 50 52 53 53
18 21 20 21 24 27 31 33 36 37 38 38 41 41 41 41 43 44 43 46 44 40 44 50 51 53 54 54 53 51 50 50 50 44 43 44 50 50 52 53 53 52 51
19 7 13 27 27 23 24 31 34 39 37 38 39 41 41 42 43 45 47 50 52 53 49 47 47 48 47 47 48 48 47 46 45 46 46 47 48 49 50 50 50 52 52
30 27 18 9 9 22 30 29 29 34 37 40 42 41 41 43 45 47 48 49 50 52 53 52 51 54 52 52 52 52 54 54 54 52 52 52 52 52 52 52 51 51 51
27 27 25 19 11 7 14 22 32 35 33 35 39 42 43 43 42 42 45 47 49 48 50 50 48 49 49 50 51 51 52 51 50 50 50 49 49 49 50 51 51 49 50
22 19 19 21 18 11 8 12 14 23 35 42 42 42 42 45 47 47 45 45 46 47 48 48 49 49 49 49 50 50 50 50 50 50 49 50 49 49 50 50 51 50 47
25 22 21 17 15 14 12 11 15 20 26 34 42 44 44 48 49 51 51 51 52 52 52 50 49 50 49 49 50 50 50 50 49 49 49 48 49 49 50 50 47 45 42
25 26 21 13 8 10 12 9 15 21 26 32 39 45 47 47 46 47 49 48 47 50 50 51 53 54 50 50 51 51 49 48 47 46 45 45 46 45 43 39 36 36 36
28 29 27 20 13 11 15 17 20 26 32 36 38 41 42 41 41 44 46 47 47 46 44 45 46 50 53 53 51 52 52 50 48 46 47 46 44 42 42 41 39 38 37